<?xml version="1.0" encoding="UTF-8" standalone="no" ?>
<gpx xmlns="http://www.topografix.com/GPX/1/1" xmlns:xsi="http://www.w3.org/2001/XMLSchema-instance" xsi:schemaLocation="http://www.topografix.com/GPX/1/1 http://www.topografix.com/GPX/1/1/gpx.xsd" version="1.1" creator="VisuGPX - https://www.visugpx.com">
  <metadata>
    <name>Neuss - Düsseldorf</name>
  </metadata>
  <trk>
    <name><![CDATA[Neuss - Düsseldorf]]></name>
    <extensions>
      <line xmlns="http://www.topografix.com/GPX/gpx_style/0/2">
        <color>0000FF</color>
        <width>4</width>
      </line>
    </extensions>
    <trkseg>
      <trkpt lat="51.19885" lon="6.72742">
        <ele>79.56779</ele>
        <time>2021-08-05T08:04:24.000Z</time>
      </trkpt>
      <trkpt lat="51.1989" lon="6.72748">
        <ele>79.56779</ele>
        <time>2021-08-05T08:04:26.000Z</time>
      </trkpt>
      <trkpt lat="51.19885" lon="6.72787">
        <ele>79.56779</ele>
        <time>2021-08-05T08:04:33.000Z</time>
      </trkpt>
      <trkpt lat="51.1988" lon="6.7284">
        <ele>79.56779</ele>
        <time>2021-08-05T08:04:42.000Z</time>
      </trkpt>
      <trkpt lat="51.1988" lon="6.72847">
        <ele>79.56779</ele>
        <time>2021-08-05T08:04:44.000Z</time>
      </trkpt>
      <trkpt lat="51.19878" lon="6.72867">
        <ele>79.56779</ele>
        <time>2021-08-05T08:04:46.000Z</time>
      </trkpt>
      <trkpt lat="51.19878" lon="6.72874">
        <ele>79.56779</ele>
        <time>2021-08-05T08:04:47.000Z</time>
      </trkpt>
      <trkpt lat="51.19874" lon="6.72942">
        <ele>79.730697</ele>
        <time>2021-08-05T08:04:58.000Z</time>
      </trkpt>
      <trkpt lat="51.1987" lon="6.72995">
        <ele>79.868249</ele>
        <time>2021-08-05T08:05:07.000Z</time>
      </trkpt>
      <trkpt lat="51.1987" lon="6.73">
        <ele>79.88295</ele>
        <time>2021-08-05T08:05:08.000Z</time>
      </trkpt>
      <trkpt lat="51.19868" lon="6.73043">
        <ele>79.99544</ele>
        <time>2021-08-05T08:05:15.000Z</time>
      </trkpt>
      <trkpt lat="51.19867" lon="6.73058">
        <ele>80.035827</ele>
        <time>2021-08-05T08:05:17.000Z</time>
      </trkpt>
      <trkpt lat="51.19865" lon="6.731">
        <ele>80.145511</ele>
        <time>2021-08-05T08:05:23.000Z</time>
      </trkpt>
      <trkpt lat="51.19861" lon="6.73161">
        <ele>80.306284</ele>
        <time>2021-08-05T08:05:32.000Z</time>
      </trkpt>
      <trkpt lat="51.19859" lon="6.73183">
        <ele>80.198055</ele>
        <time>2021-08-05T08:05:35.000Z</time>
      </trkpt>
      <trkpt lat="51.19858" lon="6.73197">
        <ele>80.096561</ele>
        <time>2021-08-05T08:05:37.000Z</time>
      </trkpt>
      <trkpt lat="51.19858" lon="6.73219">
        <ele>79.944802</ele>
        <time>2021-08-05T08:05:41.000Z</time>
      </trkpt>
      <trkpt lat="51.19857" lon="6.73233">
        <ele>79.842607</ele>
        <time>2021-08-05T08:05:42.000Z</time>
      </trkpt>
      <trkpt lat="51.19857" lon="6.7324">
        <ele>79.79318</ele>
        <time>2021-08-05T08:05:43.000Z</time>
      </trkpt>
      <trkpt lat="51.19852" lon="6.73325">
        <ele>79.194274</ele>
        <time>2021-08-05T08:05:54.000Z</time>
      </trkpt>
      <trkpt lat="51.19851" lon="6.73331">
        <ele>79.151892</ele>
        <time>2021-08-05T08:05:55.000Z</time>
      </trkpt>
      <trkpt lat="51.19847" lon="6.73409">
        <ele>78.596161</ele>
        <time>2021-08-05T08:06:05.000Z</time>
      </trkpt>
      <trkpt lat="51.19845" lon="6.73441">
        <ele>78.370133</ele>
        <time>2021-08-05T08:06:09.000Z</time>
      </trkpt>
      <trkpt lat="51.19842" lon="6.73486">
        <ele>78.060788</ele>
        <time>2021-08-05T08:06:15.000Z</time>
      </trkpt>
      <trkpt lat="51.19838" lon="6.73547">
        <ele>77.646836</ele>
        <time>2021-08-05T08:06:23.000Z</time>
      </trkpt>
      <trkpt lat="51.19835" lon="6.73586">
        <ele>77.381175</ele>
        <time>2021-08-05T08:06:28.000Z</time>
      </trkpt>
      <trkpt lat="51.19835" lon="6.73593">
        <ele>77.332276</ele>
        <time>2021-08-05T08:06:29.000Z</time>
      </trkpt>
      <trkpt lat="51.19832" lon="6.7366">
        <ele>76.874805</ele>
        <time>2021-08-05T08:06:39.000Z</time>
      </trkpt>
      <trkpt lat="51.19832" lon="6.73694">
        <ele>76.649138</ele>
        <time>2021-08-05T08:06:46.000Z</time>
      </trkpt>
      <trkpt lat="51.19832" lon="6.73712">
        <ele>76.526365</ele>
        <time>2021-08-05T08:06:50.000Z</time>
      </trkpt>
      <trkpt lat="51.1983" lon="6.73735">
        <ele>76.36803</ele>
        <time>2021-08-05T08:06:55.000Z</time>
      </trkpt>
      <trkpt lat="51.19829" lon="6.73769">
        <ele>76.11033</ele>
        <time>2021-08-05T08:07:02.000Z</time>
      </trkpt>
      <trkpt lat="51.19829" lon="6.73774">
        <ele>76.073767</ele>
        <time>2021-08-05T08:07:03.000Z</time>
      </trkpt>
      <trkpt lat="51.19829" lon="6.73824">
        <ele>75.690703</ele>
        <time>2021-08-05T08:07:12.000Z</time>
      </trkpt>
      <trkpt lat="51.19831" lon="6.73862">
        <ele>75.405698</ele>
        <time>2021-08-05T08:07:19.000Z</time>
      </trkpt>
      <trkpt lat="51.19832" lon="6.73898">
        <ele>75.128775</ele>
        <time>2021-08-05T08:07:25.000Z</time>
      </trkpt>
      <trkpt lat="51.19832" lon="6.73912">
        <ele>75.025401</ele>
        <time>2021-08-05T08:07:27.000Z</time>
      </trkpt>
      <trkpt lat="51.19832" lon="6.73935">
        <ele>74.847513</ele>
        <time>2021-08-05T08:07:30.000Z</time>
      </trkpt>
      <trkpt lat="51.19831" lon="6.73944">
        <ele>74.782625</ele>
        <time>2021-08-05T08:07:31.000Z</time>
      </trkpt>
      <trkpt lat="51.19831" lon="6.73966">
        <ele>74.608536</ele>
        <time>2021-08-05T08:07:34.000Z</time>
      </trkpt>
      <trkpt lat="51.19832" lon="6.73987">
        <ele>74.452048</ele>
        <time>2021-08-05T08:07:37.000Z</time>
      </trkpt>
      <trkpt lat="51.19834" lon="6.74022">
        <ele>74.182006</ele>
        <time>2021-08-05T08:07:41.000Z</time>
      </trkpt>
      <trkpt lat="51.19834" lon="6.74022">
        <ele>74.182006</ele>
        <time>2021-08-05T08:07:42.000Z</time>
      </trkpt>
      <trkpt lat="51.19838" lon="6.74096">
        <ele>73.606288</ele>
        <time>2021-08-05T08:07:49.000Z</time>
      </trkpt>
      <trkpt lat="51.19839" lon="6.74105">
        <ele>73.532605</ele>
        <time>2021-08-05T08:07:50.000Z</time>
      </trkpt>
      <trkpt lat="51.19843" lon="6.74143">
        <ele>73.233856</ele>
        <time>2021-08-05T08:07:54.000Z</time>
      </trkpt>
      <trkpt lat="51.19844" lon="6.74151">
        <ele>73.170748</ele>
        <time>2021-08-05T08:07:55.000Z</time>
      </trkpt>
      <trkpt lat="51.19852" lon="6.7423">
        <ele>72.549784</ele>
        <time>2021-08-05T08:08:03.000Z</time>
      </trkpt>
      <trkpt lat="51.19861" lon="6.74306">
        <ele>71.943028</ele>
        <time>2021-08-05T08:08:11.000Z</time>
      </trkpt>
      <trkpt lat="51.19869" lon="6.74359">
        <ele>71.8804</ele>
        <time>2021-08-05T08:08:17.000Z</time>
      </trkpt>
      <trkpt lat="51.19875" lon="6.74395">
        <ele>71.846541</ele>
        <time>2021-08-05T08:08:21.000Z</time>
      </trkpt>
      <trkpt lat="51.19877" lon="6.74405">
        <ele>71.837683</ele>
        <time>2021-08-05T08:08:22.000Z</time>
      </trkpt>
      <trkpt lat="51.19885" lon="6.74463">
        <ele>71.783568</ele>
        <time>2021-08-05T08:08:29.000Z</time>
      </trkpt>
      <trkpt lat="51.19887" lon="6.74485">
        <ele>71.762867</ele>
        <time>2021-08-05T08:08:32.000Z</time>
      </trkpt>
      <trkpt lat="51.19891" lon="6.74505">
        <ele>71.744047</ele>
        <time>2021-08-05T08:08:35.000Z</time>
      </trkpt>
      <trkpt lat="51.19902" lon="6.74558">
        <ele>71.69244</ele>
        <time>2021-08-05T08:08:43.000Z</time>
      </trkpt>
      <trkpt lat="51.19903" lon="6.74565">
        <ele>71.685833</ele>
        <time>2021-08-05T08:08:44.000Z</time>
      </trkpt>
      <trkpt lat="51.1991" lon="6.74592">
        <ele>71.678721</ele>
        <time>2021-08-05T08:08:48.000Z</time>
      </trkpt>
      <trkpt lat="51.19915" lon="6.74612">
        <ele>71.707273</ele>
        <time>2021-08-05T08:08:52.000Z</time>
      </trkpt>
      <trkpt lat="51.1993" lon="6.74673">
        <ele>71.795271</ele>
        <time>2021-08-05T08:09:01.000Z</time>
      </trkpt>
      <trkpt lat="51.19938" lon="6.74703">
        <ele>71.838382</ele>
        <time>2021-08-05T08:09:04.000Z</time>
      </trkpt>
      <trkpt lat="51.19943" lon="6.74724">
        <ele>71.869362</ele>
        <time>2021-08-05T08:09:07.000Z</time>
      </trkpt>
      <trkpt lat="51.19952" lon="6.74757">
        <ele>71.917959</ele>
        <time>2021-08-05T08:09:12.000Z</time>
      </trkpt>
      <trkpt lat="51.19954" lon="6.74764">
        <ele>71.927613</ele>
        <time>2021-08-05T08:09:13.000Z</time>
      </trkpt>
      <trkpt lat="51.19956" lon="6.7477">
        <ele>71.93699</ele>
        <time>2021-08-05T08:09:15.000Z</time>
      </trkpt>
      <trkpt lat="51.19964" lon="6.74804">
        <ele>71.986079</ele>
        <time>2021-08-05T08:09:19.000Z</time>
      </trkpt>
      <trkpt lat="51.19967" lon="6.74817">
        <ele>72.004253</ele>
        <time>2021-08-05T08:09:21.000Z</time>
      </trkpt>
      <trkpt lat="51.19977" lon="6.7484">
        <ele>72.041456</ele>
        <time>2021-08-05T08:09:26.000Z</time>
      </trkpt>
      <trkpt lat="51.19985" lon="6.74856">
        <ele>72.045508</ele>
        <time>2021-08-05T08:09:30.000Z</time>
      </trkpt>
      <trkpt lat="51.19995" lon="6.749">
        <ele>72.020256</ele>
        <time>2021-08-05T08:09:37.000Z</time>
      </trkpt>
      <trkpt lat="51.20005" lon="6.74948">
        <ele>71.992891</ele>
        <time>2021-08-05T08:09:44.000Z</time>
      </trkpt>
      <trkpt lat="51.2001" lon="6.74974">
        <ele>71.978361</ele>
        <time>2021-08-05T08:09:47.000Z</time>
      </trkpt>
      <trkpt lat="51.20014" lon="6.74985">
        <ele>71.97098</ele>
        <time>2021-08-05T08:09:49.000Z</time>
      </trkpt>
      <trkpt lat="51.20015" lon="6.74992">
        <ele>71.967092</ele>
        <time>2021-08-05T08:09:50.000Z</time>
      </trkpt>
      <trkpt lat="51.20026" lon="6.75044">
        <ele>71.937293</ele>
        <time>2021-08-05T08:09:58.000Z</time>
      </trkpt>
      <trkpt lat="51.20034" lon="6.75064">
        <ele>71.924817</ele>
        <time>2021-08-05T08:10:03.000Z</time>
      </trkpt>
      <trkpt lat="51.20035" lon="6.75068">
        <ele>71.922515</ele>
        <time>2021-08-05T08:10:04.000Z</time>
      </trkpt>
      <trkpt lat="51.20035" lon="6.75101">
        <ele>71.904658</ele>
        <time>2021-08-05T08:10:10.000Z</time>
      </trkpt>
      <trkpt lat="51.20043" lon="6.75136">
        <ele>71.969881</ele>
        <time>2021-08-05T08:10:15.000Z</time>
      </trkpt>
      <trkpt lat="51.20045" lon="6.75142">
        <ele>71.99192</ele>
        <time>2021-08-05T08:10:16.000Z</time>
      </trkpt>
      <trkpt lat="51.20053" lon="6.75173">
        <ele>72.097027</ele>
        <time>2021-08-05T08:10:21.000Z</time>
      </trkpt>
      <trkpt lat="51.20058" lon="6.75196">
        <ele>72.174484</ele>
        <time>2021-08-05T08:10:26.000Z</time>
      </trkpt>
      <trkpt lat="51.20058" lon="6.7521">
        <ele>72.218438</ele>
        <time>2021-08-05T08:10:27.000Z</time>
      </trkpt>
      <trkpt lat="51.20059" lon="6.75216">
        <ele>72.239553</ele>
        <time>2021-08-05T08:10:28.000Z</time>
      </trkpt>
      <trkpt lat="51.20066" lon="6.7526">
        <ele>72.382264</ele>
        <time>2021-08-05T08:10:34.000Z</time>
      </trkpt>
      <trkpt lat="51.20068" lon="6.75277">
        <ele>72.439466</ele>
        <time>2021-08-05T08:10:37.000Z</time>
      </trkpt>
      <trkpt lat="51.20071" lon="6.75292">
        <ele>72.488848</ele>
        <time>2021-08-05T08:10:40.000Z</time>
      </trkpt>
      <trkpt lat="51.20072" lon="6.75297">
        <ele>72.506503</ele>
        <time>2021-08-05T08:10:41.000Z</time>
      </trkpt>
      <trkpt lat="51.20074" lon="6.75308">
        <ele>72.540347</ele>
        <time>2021-08-05T08:10:43.000Z</time>
      </trkpt>
      <trkpt lat="51.20075" lon="6.75318">
        <ele>72.573591</ele>
        <time>2021-08-05T08:10:45.000Z</time>
      </trkpt>
      <trkpt lat="51.20075" lon="6.75323">
        <ele>72.588553</ele>
        <time>2021-08-05T08:10:46.000Z</time>
      </trkpt>
      <trkpt lat="51.20075" lon="6.75323">
        <ele>72.588553</ele>
        <time>2021-08-05T08:10:47.000Z</time>
      </trkpt>
      <trkpt lat="51.20076" lon="6.75338">
        <ele>72.637362</ele>
        <time>2021-08-05T08:10:49.000Z</time>
      </trkpt>
      <trkpt lat="51.20078" lon="6.75353">
        <ele>72.685694</ele>
        <time>2021-08-05T08:10:52.000Z</time>
      </trkpt>
      <trkpt lat="51.2008" lon="6.75363">
        <ele>72.718624</ele>
        <time>2021-08-05T08:10:54.000Z</time>
      </trkpt>
      <trkpt lat="51.20079" lon="6.75386">
        <ele>72.792127</ele>
        <time>2021-08-05T08:10:58.000Z</time>
      </trkpt>
      <trkpt lat="51.20076" lon="6.75402">
        <ele>72.82511</ele>
        <time>2021-08-05T08:11:01.000Z</time>
      </trkpt>
      <trkpt lat="51.20072" lon="6.75418">
        <ele>72.8507</ele>
        <time>2021-08-05T08:11:04.000Z</time>
      </trkpt>
      <trkpt lat="51.20071" lon="6.75442">
        <ele>72.884329</ele>
        <time>2021-08-05T08:11:08.000Z</time>
      </trkpt>
      <trkpt lat="51.20071" lon="6.75442">
        <ele>72.884329</ele>
        <time>2021-08-05T08:11:09.000Z</time>
      </trkpt>
      <trkpt lat="51.20073" lon="6.75474">
        <ele>72.929711</ele>
        <time>2021-08-05T08:11:13.000Z</time>
      </trkpt>
      <trkpt lat="51.20075" lon="6.7548">
        <ele>72.938849</ele>
        <time>2021-08-05T08:11:14.000Z</time>
      </trkpt>
      <trkpt lat="51.20079" lon="6.75498">
        <ele>72.966554</ele>
        <time>2021-08-05T08:11:17.000Z</time>
      </trkpt>
      <trkpt lat="51.20079" lon="6.75512">
        <ele>72.985756</ele>
        <time>2021-08-05T08:11:19.000Z</time>
      </trkpt>
      <trkpt lat="51.20079" lon="6.75537">
        <ele>73.021761</ele>
        <time>2021-08-05T08:11:24.000Z</time>
      </trkpt>
      <trkpt lat="51.2008" lon="6.75544">
        <ele>73.032706</ele>
        <time>2021-08-05T08:11:29.000Z</time>
      </trkpt>
      <trkpt lat="51.20088" lon="6.75551">
        <ele>73.052072</ele>
        <time>2021-08-05T08:11:34.000Z</time>
      </trkpt>
      <trkpt lat="51.20099" lon="6.75565">
        <ele>73.083604</ele>
        <time>2021-08-05T08:11:40.000Z</time>
      </trkpt>
      <trkpt lat="51.20099" lon="6.75565">
        <ele>73.083604</ele>
        <time>2021-08-05T08:11:49.000Z</time>
      </trkpt>
      <trkpt lat="51.20099" lon="6.75565">
        <ele>73.083604</ele>
        <time>2021-08-05T08:11:55.000Z</time>
      </trkpt>
      <trkpt lat="51.20099" lon="6.75565">
        <ele>73.083604</ele>
        <time>2021-08-05T08:12:06.000Z</time>
      </trkpt>
      <trkpt lat="51.20101" lon="6.75566">
        <ele>73.088262</ele>
        <time>2021-08-05T08:12:13.000Z</time>
      </trkpt>
      <trkpt lat="51.20105" lon="6.7557">
        <ele>73.099406</ele>
        <time>2021-08-05T08:12:15.000Z</time>
      </trkpt>
      <trkpt lat="51.20117" lon="6.75586">
        <ele>73.13394</ele>
        <time>2021-08-05T08:12:21.000Z</time>
      </trkpt>
      <trkpt lat="51.20122" lon="6.75591">
        <ele>73.148108</ele>
        <time>2021-08-05T08:12:22.000Z</time>
      </trkpt>
      <trkpt lat="51.20144" lon="6.75603">
        <ele>73.200753</ele>
        <time>2021-08-05T08:12:28.000Z</time>
      </trkpt>
      <trkpt lat="51.20154" lon="6.75607">
        <ele>73.218414</ele>
        <time>2021-08-05T08:12:30.000Z</time>
      </trkpt>
      <trkpt lat="51.20171" lon="6.75612">
        <ele>73.234262</ele>
        <time>2021-08-05T08:12:34.000Z</time>
      </trkpt>
      <trkpt lat="51.20202" lon="6.75622">
        <ele>73.262265</ele>
        <time>2021-08-05T08:12:41.000Z</time>
      </trkpt>
      <trkpt lat="51.20206" lon="6.75623">
        <ele>73.265339</ele>
        <time>2021-08-05T08:12:42.000Z</time>
      </trkpt>
      <trkpt lat="51.2023" lon="6.7563">
        <ele>73.287129</ele>
        <time>2021-08-05T08:12:47.000Z</time>
      </trkpt>
      <trkpt lat="51.20234" lon="6.75632">
        <ele>73.291185</ele>
        <time>2021-08-05T08:12:48.000Z</time>
      </trkpt>
      <trkpt lat="51.20247" lon="6.75635">
        <ele>73.302977</ele>
        <time>2021-08-05T08:12:51.000Z</time>
      </trkpt>
      <trkpt lat="51.20251" lon="6.75636">
        <ele>73.306138</ele>
        <time>2021-08-05T08:12:53.000Z</time>
      </trkpt>
      <trkpt lat="51.20277" lon="6.75644">
        <ele>73.330283</ele>
        <time>2021-08-05T08:12:58.000Z</time>
      </trkpt>
      <trkpt lat="51.20291" lon="6.75648">
        <ele>73.342656</ele>
        <time>2021-08-05T08:13:02.000Z</time>
      </trkpt>
      <trkpt lat="51.20309" lon="6.75653">
        <ele>73.358493</ele>
        <time>2021-08-05T08:13:05.000Z</time>
      </trkpt>
      <trkpt lat="51.20336" lon="6.75661">
        <ele>73.393938</ele>
        <time>2021-08-05T08:13:11.000Z</time>
      </trkpt>
      <trkpt lat="51.20373" lon="6.75668">
        <ele>73.472</ele>
        <time>2021-08-05T08:13:19.000Z</time>
      </trkpt>
      <trkpt lat="51.20386" lon="6.75671">
        <ele>73.499196</ele>
        <time>2021-08-05T08:13:22.000Z</time>
      </trkpt>
      <trkpt lat="51.20432" lon="6.75683">
        <ele>73.599116</ele>
        <time>2021-08-05T08:13:32.000Z</time>
      </trkpt>
      <trkpt lat="51.20458" lon="6.75689">
        <ele>73.653057</ele>
        <time>2021-08-05T08:13:38.000Z</time>
      </trkpt>
      <trkpt lat="51.20475" lon="6.75692">
        <ele>73.690204</ele>
        <time>2021-08-05T08:13:42.000Z</time>
      </trkpt>
      <trkpt lat="51.20512" lon="6.757">
        <ele>73.765627</ele>
        <time>2021-08-05T08:13:50.000Z</time>
      </trkpt>
      <trkpt lat="51.20539" lon="6.75708">
        <ele>73.813283</ele>
        <time>2021-08-05T08:13:57.000Z</time>
      </trkpt>
      <trkpt lat="51.20576" lon="6.75717">
        <ele>73.875708</ele>
        <time>2021-08-05T08:14:04.000Z</time>
      </trkpt>
      <trkpt lat="51.20595" lon="6.75725">
        <ele>73.90905</ele>
        <time>2021-08-05T08:14:08.000Z</time>
      </trkpt>
      <trkpt lat="51.2061" lon="6.75731">
        <ele>73.93513</ele>
        <time>2021-08-05T08:14:11.000Z</time>
      </trkpt>
      <trkpt lat="51.20623" lon="6.75735">
        <ele>73.958351</ele>
        <time>2021-08-05T08:14:14.000Z</time>
      </trkpt>
      <trkpt lat="51.20628" lon="6.75736">
        <ele>73.96664</ele>
        <time>2021-08-05T08:14:15.000Z</time>
      </trkpt>
      <trkpt lat="51.20633" lon="6.75737">
        <ele>73.974878</ele>
        <time>2021-08-05T08:14:16.000Z</time>
      </trkpt>
      <trkpt lat="51.20642" lon="6.7574">
        <ele>73.991219</ele>
        <time>2021-08-05T08:14:18.000Z</time>
      </trkpt>
      <trkpt lat="51.20648" lon="6.75742">
        <ele>74.000447</ele>
        <time>2021-08-05T08:14:19.000Z</time>
      </trkpt>
      <trkpt lat="51.20666" lon="6.75746">
        <ele>74.032654</ele>
        <time>2021-08-05T08:14:23.000Z</time>
      </trkpt>
      <trkpt lat="51.20685" lon="6.75749">
        <ele>74.050645</ele>
        <time>2021-08-05T08:14:27.000Z</time>
      </trkpt>
      <trkpt lat="51.20689" lon="6.7575">
        <ele>74.038006</ele>
        <time>2021-08-05T08:14:28.000Z</time>
      </trkpt>
      <trkpt lat="51.20694" lon="6.75752">
        <ele>74.020122</ele>
        <time>2021-08-05T08:14:30.000Z</time>
      </trkpt>
      <trkpt lat="51.20696" lon="6.75753">
        <ele>74.012729</ele>
        <time>2021-08-05T08:14:32.000Z</time>
      </trkpt>
      <trkpt lat="51.20696" lon="6.75753">
        <ele>74.012729</ele>
        <time>2021-08-05T08:14:33.000Z</time>
      </trkpt>
      <trkpt lat="51.20696" lon="6.75754">
        <ele>74.010156</ele>
        <time>2021-08-05T08:14:40.000Z</time>
      </trkpt>
      <trkpt lat="51.20696" lon="6.75754">
        <ele>74.010156</ele>
        <time>2021-08-05T08:14:45.000Z</time>
      </trkpt>
      <trkpt lat="51.20696" lon="6.75754">
        <ele>74.010156</ele>
        <time>2021-08-05T08:14:49.000Z</time>
      </trkpt>
      <trkpt lat="51.20696" lon="6.75754">
        <ele>74.010156</ele>
        <time>2021-08-05T08:14:50.000Z</time>
      </trkpt>
      <trkpt lat="51.20696" lon="6.75754">
        <ele>74.010156</ele>
        <time>2021-08-05T08:14:51.000Z</time>
      </trkpt>
      <trkpt lat="51.20696" lon="6.75754">
        <ele>74.010156</ele>
        <time>2021-08-05T08:14:52.000Z</time>
      </trkpt>
      <trkpt lat="51.20696" lon="6.75754">
        <ele>74.010156</ele>
        <time>2021-08-05T08:14:53.000Z</time>
      </trkpt>
      <trkpt lat="51.20696" lon="6.75754">
        <ele>74.010156</ele>
        <time>2021-08-05T08:14:54.000Z</time>
      </trkpt>
      <trkpt lat="51.20696" lon="6.75754">
        <ele>74.010156</ele>
        <time>2021-08-05T08:14:55.000Z</time>
      </trkpt>
      <trkpt lat="51.20696" lon="6.75754">
        <ele>74.010156</ele>
        <time>2021-08-05T08:14:56.000Z</time>
      </trkpt>
      <trkpt lat="51.20696" lon="6.75754">
        <ele>74.010156</ele>
        <time>2021-08-05T08:14:58.000Z</time>
      </trkpt>
      <trkpt lat="51.20696" lon="6.75754">
        <ele>74.010156</ele>
        <time>2021-08-05T08:14:59.000Z</time>
      </trkpt>
      <trkpt lat="51.20696" lon="6.75754">
        <ele>74.010156</ele>
        <time>2021-08-05T08:15:00.000Z</time>
      </trkpt>
      <trkpt lat="51.20696" lon="6.75754">
        <ele>74.009438</ele>
        <time>2021-08-05T08:15:03.000Z</time>
      </trkpt>
      <trkpt lat="51.207" lon="6.75753">
        <ele>73.997044</ele>
        <time>2021-08-05T08:15:05.000Z</time>
      </trkpt>
      <trkpt lat="51.2072" lon="6.75747">
        <ele>73.927324</ele>
        <time>2021-08-05T08:15:11.000Z</time>
      </trkpt>
      <trkpt lat="51.20738" lon="6.75751">
        <ele>73.864049</ele>
        <time>2021-08-05T08:15:17.000Z</time>
      </trkpt>
      <trkpt lat="51.20752" lon="6.75752">
        <ele>73.814704</ele>
        <time>2021-08-05T08:15:20.000Z</time>
      </trkpt>
      <trkpt lat="51.2078" lon="6.75766">
        <ele>73.717359</ele>
        <time>2021-08-05T08:15:27.000Z</time>
      </trkpt>
      <trkpt lat="51.20818" lon="6.75784">
        <ele>73.579954</ele>
        <time>2021-08-05T08:15:35.000Z</time>
      </trkpt>
      <trkpt lat="51.20857" lon="6.758">
        <ele>73.439149</ele>
        <time>2021-08-05T08:15:42.000Z</time>
      </trkpt>
      <trkpt lat="51.20862" lon="6.75803">
        <ele>73.408534</ele>
        <time>2021-08-05T08:15:43.000Z</time>
      </trkpt>
      <trkpt lat="51.20873" lon="6.75809">
        <ele>73.341984</ele>
        <time>2021-08-05T08:15:45.000Z</time>
      </trkpt>
      <trkpt lat="51.20895" lon="6.75821">
        <ele>73.208837</ele>
        <time>2021-08-05T08:15:50.000Z</time>
      </trkpt>
      <trkpt lat="51.20906" lon="6.75826">
        <ele>73.142291</ele>
        <time>2021-08-05T08:15:51.000Z</time>
      </trkpt>
      <trkpt lat="51.20927" lon="6.75835">
        <ele>73.018449</ele>
        <time>2021-08-05T08:15:55.000Z</time>
      </trkpt>
      <trkpt lat="51.20964" lon="6.75842">
        <ele>72.804228</ele>
        <time>2021-08-05T08:16:02.000Z</time>
      </trkpt>
      <trkpt lat="51.20982" lon="6.75853">
        <ele>72.692217</ele>
        <time>2021-08-05T08:16:05.000Z</time>
      </trkpt>
      <trkpt lat="51.20986" lon="6.75857">
        <ele>72.660937</ele>
        <time>2021-08-05T08:16:07.000Z</time>
      </trkpt>
      <trkpt lat="51.20996" lon="6.75863">
        <ele>72.604197</ele>
        <time>2021-08-05T08:16:08.000Z</time>
      </trkpt>
      <trkpt lat="51.21009" lon="6.75869">
        <ele>72.524912</ele>
        <time>2021-08-05T08:16:11.000Z</time>
      </trkpt>
      <trkpt lat="51.21019" lon="6.7587">
        <ele>72.466511</ele>
        <time>2021-08-05T08:16:13.000Z</time>
      </trkpt>
      <trkpt lat="51.21039" lon="6.75869">
        <ele>72.513257</ele>
        <time>2021-08-05T08:16:17.000Z</time>
      </trkpt>
      <trkpt lat="51.2105" lon="6.75872">
        <ele>72.643717</ele>
        <time>2021-08-05T08:16:20.000Z</time>
      </trkpt>
      <trkpt lat="51.21068" lon="6.75875">
        <ele>72.83907</ele>
        <time>2021-08-05T08:16:24.000Z</time>
      </trkpt>
      <trkpt lat="51.21077" lon="6.75893">
        <ele>73.006545</ele>
        <time>2021-08-05T08:16:26.000Z</time>
      </trkpt>
      <trkpt lat="51.21086" lon="6.759">
        <ele>73.114772</ele>
        <time>2021-08-05T08:16:28.000Z</time>
      </trkpt>
      <trkpt lat="51.2109" lon="6.75902">
        <ele>73.165098</ele>
        <time>2021-08-05T08:16:30.000Z</time>
      </trkpt>
      <trkpt lat="51.21103" lon="6.75908">
        <ele>73.31215</ele>
        <time>2021-08-05T08:16:32.000Z</time>
      </trkpt>
      <trkpt lat="51.21122" lon="6.75919">
        <ele>73.542638</ele>
        <time>2021-08-05T08:16:38.000Z</time>
      </trkpt>
      <trkpt lat="51.2113" lon="6.75922">
        <ele>73.633151</ele>
        <time>2021-08-05T08:16:40.000Z</time>
      </trkpt>
      <trkpt lat="51.21159" lon="6.75933">
        <ele>73.971293</ele>
        <time>2021-08-05T08:16:47.000Z</time>
      </trkpt>
      <trkpt lat="51.21162" lon="6.75933">
        <ele>74.012004</ele>
        <time>2021-08-05T08:16:48.000Z</time>
      </trkpt>
      <trkpt lat="51.21171" lon="6.75936">
        <ele>74.112966</ele>
        <time>2021-08-05T08:16:51.000Z</time>
      </trkpt>
      <trkpt lat="51.21175" lon="6.75935">
        <ele>74.15276</ele>
        <time>2021-08-05T08:16:52.000Z</time>
      </trkpt>
      <trkpt lat="51.21189" lon="6.75942">
        <ele>74.316113</ele>
        <time>2021-08-05T08:16:56.000Z</time>
      </trkpt>
      <trkpt lat="51.21193" lon="6.75948">
        <ele>74.380051</ele>
        <time>2021-08-05T08:16:58.000Z</time>
      </trkpt>
      <trkpt lat="51.21193" lon="6.75948">
        <ele>74.385488</ele>
        <time>2021-08-05T08:16:59.000Z</time>
      </trkpt>
      <trkpt lat="51.21193" lon="6.75948">
        <ele>74.385488</ele>
        <time>2021-08-05T08:17:05.000Z</time>
      </trkpt>
      <trkpt lat="51.21193" lon="6.75948">
        <ele>74.385488</ele>
        <time>2021-08-05T08:17:17.000Z</time>
      </trkpt>
      <trkpt lat="51.21193" lon="6.75948">
        <ele>74.385488</ele>
        <time>2021-08-05T08:17:24.000Z</time>
      </trkpt>
      <trkpt lat="51.21193" lon="6.75948">
        <ele>74.385488</ele>
        <time>2021-08-05T08:17:36.000Z</time>
      </trkpt>
      <trkpt lat="51.21193" lon="6.75948">
        <ele>74.385488</ele>
        <time>2021-08-05T08:17:40.000Z</time>
      </trkpt>
      <trkpt lat="51.21193" lon="6.75948">
        <ele>74.385488</ele>
        <time>2021-08-05T08:17:43.000Z</time>
      </trkpt>
      <trkpt lat="51.21193" lon="6.75948">
        <ele>74.385488</ele>
        <time>2021-08-05T08:17:47.000Z</time>
      </trkpt>
      <trkpt lat="51.21193" lon="6.75949">
        <ele>74.390217</ele>
        <time>2021-08-05T08:17:54.000Z</time>
      </trkpt>
      <trkpt lat="51.21196" lon="6.75951">
        <ele>74.4241</ele>
        <time>2021-08-05T08:17:56.000Z</time>
      </trkpt>
      <trkpt lat="51.21215" lon="6.75971">
        <ele>74.379926</ele>
        <time>2021-08-05T08:18:02.000Z</time>
      </trkpt>
      <trkpt lat="51.21233" lon="6.75987">
        <ele>74.329093</ele>
        <time>2021-08-05T08:18:08.000Z</time>
      </trkpt>
      <trkpt lat="51.21244" lon="6.75994">
        <ele>74.298571</ele>
        <time>2021-08-05T08:18:12.000Z</time>
      </trkpt>
      <trkpt lat="51.21251" lon="6.75999">
        <ele>74.280406</ele>
        <time>2021-08-05T08:18:13.000Z</time>
      </trkpt>
      <trkpt lat="51.21269" lon="6.76016">
        <ele>74.227063</ele>
        <time>2021-08-05T08:18:17.000Z</time>
      </trkpt>
      <trkpt lat="51.21282" lon="6.76029">
        <ele>74.190101</ele>
        <time>2021-08-05T08:18:20.000Z</time>
      </trkpt>
      <trkpt lat="51.21289" lon="6.76035">
        <ele>74.170033</ele>
        <time>2021-08-05T08:18:23.000Z</time>
      </trkpt>
      <trkpt lat="51.21299" lon="6.76046">
        <ele>74.140127</ele>
        <time>2021-08-05T08:18:25.000Z</time>
      </trkpt>
      <trkpt lat="51.21323" lon="6.76061">
        <ele>74.076436</ele>
        <time>2021-08-05T08:18:31.000Z</time>
      </trkpt>
      <trkpt lat="51.21323" lon="6.76061">
        <ele>74.076436</ele>
        <time>2021-08-05T08:18:32.000Z</time>
      </trkpt>
      <trkpt lat="51.21344" lon="6.76068">
        <ele>74.022524</ele>
        <time>2021-08-05T08:18:35.000Z</time>
      </trkpt>
      <trkpt lat="51.21349" lon="6.7607">
        <ele>74.009399</ele>
        <time>2021-08-05T08:18:36.000Z</time>
      </trkpt>
      <trkpt lat="51.21354" lon="6.76072">
        <ele>73.996159</ele>
        <time>2021-08-05T08:18:37.000Z</time>
      </trkpt>
      <trkpt lat="51.21363" lon="6.7608">
        <ele>74.03285</ele>
        <time>2021-08-05T08:18:39.000Z</time>
      </trkpt>
      <trkpt lat="51.21372" lon="6.76085">
        <ele>74.096988</ele>
        <time>2021-08-05T08:18:41.000Z</time>
      </trkpt>
      <trkpt lat="51.21381" lon="6.76088">
        <ele>74.157632</ele>
        <time>2021-08-05T08:18:43.000Z</time>
      </trkpt>
      <trkpt lat="51.21395" lon="6.76095">
        <ele>74.256537</ele>
        <time>2021-08-05T08:18:47.000Z</time>
      </trkpt>
      <trkpt lat="51.2142" lon="6.76106">
        <ele>74.435144</ele>
        <time>2021-08-05T08:18:51.000Z</time>
      </trkpt>
      <trkpt lat="51.21425" lon="6.76108">
        <ele>74.470211</ele>
        <time>2021-08-05T08:18:52.000Z</time>
      </trkpt>
      <trkpt lat="51.21445" lon="6.76116">
        <ele>74.609481</ele>
        <time>2021-08-05T08:18:56.000Z</time>
      </trkpt>
      <trkpt lat="51.21459" lon="6.76125">
        <ele>74.714843</ele>
        <time>2021-08-05T08:18:59.000Z</time>
      </trkpt>
      <trkpt lat="51.21467" lon="6.7613">
        <ele>74.773136</ele>
        <time>2021-08-05T08:19:01.000Z</time>
      </trkpt>
      <trkpt lat="51.21472" lon="6.76132">
        <ele>74.80831</ele>
        <time>2021-08-05T08:19:02.000Z</time>
      </trkpt>
      <trkpt lat="51.2148" lon="6.76134">
        <ele>74.859787</ele>
        <time>2021-08-05T08:19:05.000Z</time>
      </trkpt>
      <trkpt lat="51.21486" lon="6.76138">
        <ele>74.908446</ele>
        <time>2021-08-05T08:19:06.000Z</time>
      </trkpt>
      <trkpt lat="51.21492" lon="6.76143">
        <ele>74.950915</ele>
        <time>2021-08-05T08:19:09.000Z</time>
      </trkpt>
      <trkpt lat="51.21507" lon="6.76155">
        <ele>75.064428</ele>
        <time>2021-08-05T08:19:16.000Z</time>
      </trkpt>
      <trkpt lat="51.2152" lon="6.76172">
        <ele>75.17715</ele>
        <time>2021-08-05T08:19:21.000Z</time>
      </trkpt>
      <trkpt lat="51.21528" lon="6.76183">
        <ele>75.184346</ele>
        <time>2021-08-05T08:19:25.000Z</time>
      </trkpt>
      <trkpt lat="51.21531" lon="6.76184">
        <ele>75.172774</ele>
        <time>2021-08-05T08:19:26.000Z</time>
      </trkpt>
      <trkpt lat="51.21534" lon="6.76186">
        <ele>75.158255</ele>
        <time>2021-08-05T08:19:30.000Z</time>
      </trkpt>
      <trkpt lat="51.21534" lon="6.76186">
        <ele>75.158255</ele>
        <time>2021-08-05T08:19:36.000Z</time>
      </trkpt>
      <trkpt lat="51.21534" lon="6.76186">
        <ele>75.158255</ele>
        <time>2021-08-05T08:19:39.000Z</time>
      </trkpt>
      <trkpt lat="51.21534" lon="6.76186">
        <ele>75.158255</ele>
        <time>2021-08-05T08:19:41.000Z</time>
      </trkpt>
      <trkpt lat="51.21534" lon="6.76186">
        <ele>75.158255</ele>
        <time>2021-08-05T08:19:44.000Z</time>
      </trkpt>
      <trkpt lat="51.21534" lon="6.76186">
        <ele>75.158255</ele>
        <time>2021-08-05T08:19:47.000Z</time>
      </trkpt>
      <trkpt lat="51.21536" lon="6.76189">
        <ele>75.147161</ele>
        <time>2021-08-05T08:19:56.000Z</time>
      </trkpt>
      <trkpt lat="51.2154" lon="6.76196">
        <ele>75.122739</ele>
        <time>2021-08-05T08:19:58.000Z</time>
      </trkpt>
      <trkpt lat="51.21553" lon="6.76212">
        <ele>75.056073</ele>
        <time>2021-08-05T08:20:04.000Z</time>
      </trkpt>
      <trkpt lat="51.2157" lon="6.76227">
        <ele>74.976689</ele>
        <time>2021-08-05T08:20:10.000Z</time>
      </trkpt>
      <trkpt lat="51.21576" lon="6.76231">
        <ele>74.949486</ele>
        <time>2021-08-05T08:20:11.000Z</time>
      </trkpt>
      <trkpt lat="51.21581" lon="6.76237">
        <ele>74.923229</ele>
        <time>2021-08-05T08:20:14.000Z</time>
      </trkpt>
      <trkpt lat="51.21614" lon="6.76277">
        <ele>74.755452</ele>
        <time>2021-08-05T08:20:23.000Z</time>
      </trkpt>
      <trkpt lat="51.21625" lon="6.76292">
        <ele>74.694614</ele>
        <time>2021-08-05T08:20:26.000Z</time>
      </trkpt>
      <trkpt lat="51.21637" lon="6.76307">
        <ele>74.633944</ele>
        <time>2021-08-05T08:20:29.000Z</time>
      </trkpt>
      <trkpt lat="51.21644" lon="6.76314">
        <ele>74.597347</ele>
        <time>2021-08-05T08:20:31.000Z</time>
      </trkpt>
      <trkpt lat="51.21659" lon="6.76327">
        <ele>74.529121</ele>
        <time>2021-08-05T08:20:35.000Z</time>
      </trkpt>
      <trkpt lat="51.21663" lon="6.76331">
        <ele>74.510668</ele>
        <time>2021-08-05T08:20:36.000Z</time>
      </trkpt>
      <trkpt lat="51.21686" lon="6.76361">
        <ele>74.467776</ele>
        <time>2021-08-05T08:20:42.000Z</time>
      </trkpt>
      <trkpt lat="51.21693" lon="6.7637">
        <ele>74.465157</ele>
        <time>2021-08-05T08:20:44.000Z</time>
      </trkpt>
      <trkpt lat="51.21704" lon="6.76382">
        <ele>74.460892</ele>
        <time>2021-08-05T08:20:48.000Z</time>
      </trkpt>
      <trkpt lat="51.21738" lon="6.7642">
        <ele>74.448728</ele>
        <time>2021-08-05T08:20:56.000Z</time>
      </trkpt>
      <trkpt lat="51.21767" lon="6.76451">
        <ele>74.438319</ele>
        <time>2021-08-05T08:21:04.000Z</time>
      </trkpt>
      <trkpt lat="51.21775" lon="6.7646">
        <ele>74.435568</ele>
        <time>2021-08-05T08:21:05.000Z</time>
      </trkpt>
      <trkpt lat="51.21814" lon="6.76503">
        <ele>74.421373</ele>
        <time>2021-08-05T08:21:15.000Z</time>
      </trkpt>
      <trkpt lat="51.21826" lon="6.76514">
        <ele>74.446032</ele>
        <time>2021-08-05T08:21:18.000Z</time>
      </trkpt>
      <trkpt lat="51.21837" lon="6.76519">
        <ele>74.471067</ele>
        <time>2021-08-05T08:21:21.000Z</time>
      </trkpt>
      <trkpt lat="51.21851" lon="6.76518">
        <ele>74.503656</ele>
        <time>2021-08-05T08:21:26.000Z</time>
      </trkpt>
      <trkpt lat="51.21859" lon="6.76536">
        <ele>74.535031</ele>
        <time>2021-08-05T08:21:31.000Z</time>
      </trkpt>
      <trkpt lat="51.2187" lon="6.7656">
        <ele>74.579421</ele>
        <time>2021-08-05T08:21:36.000Z</time>
      </trkpt>
      <trkpt lat="51.21884" lon="6.76583">
        <ele>74.624517</ele>
        <time>2021-08-05T08:21:40.000Z</time>
      </trkpt>
      <trkpt lat="51.21891" lon="6.76591">
        <ele>74.643478</ele>
        <time>2021-08-05T08:21:43.000Z</time>
      </trkpt>
      <trkpt lat="51.21899" lon="6.76601">
        <ele>74.667372</ele>
        <time>2021-08-05T08:21:46.000Z</time>
      </trkpt>
      <trkpt lat="51.21907" lon="6.76606">
        <ele>74.686874</ele>
        <time>2021-08-05T08:21:49.000Z</time>
      </trkpt>
      <trkpt lat="51.21923" lon="6.76623">
        <ele>74.732207</ele>
        <time>2021-08-05T08:21:53.000Z</time>
      </trkpt>
      <trkpt lat="51.21931" lon="6.76628">
        <ele>74.750859</ele>
        <time>2021-08-05T08:21:54.000Z</time>
      </trkpt>
      <trkpt lat="51.21951" lon="6.76634">
        <ele>74.797379</ele>
        <time>2021-08-05T08:22:00.000Z</time>
      </trkpt>
      <trkpt lat="51.21978" lon="6.76655">
        <ele>74.763253</ele>
        <time>2021-08-05T08:22:06.000Z</time>
      </trkpt>
      <trkpt lat="51.22021" lon="6.76685">
        <ele>74.549042</ele>
        <time>2021-08-05T08:22:17.000Z</time>
      </trkpt>
      <trkpt lat="51.22028" lon="6.7669">
        <ele>74.511315</ele>
        <time>2021-08-05T08:22:19.000Z</time>
      </trkpt>
      <trkpt lat="51.22058" lon="6.76711">
        <ele>74.363774</ele>
        <time>2021-08-05T08:22:26.000Z</time>
      </trkpt>
      <trkpt lat="51.22062" lon="6.76715">
        <ele>74.343417</ele>
        <time>2021-08-05T08:22:27.000Z</time>
      </trkpt>
      <trkpt lat="51.22076" lon="6.76736">
        <ele>74.251584</ele>
        <time>2021-08-05T08:22:31.000Z</time>
      </trkpt>
      <trkpt lat="51.2209" lon="6.7675">
        <ele>74.177204</ele>
        <time>2021-08-05T08:22:34.000Z</time>
      </trkpt>
      <trkpt lat="51.22105" lon="6.76761">
        <ele>74.102839</ele>
        <time>2021-08-05T08:22:37.000Z</time>
      </trkpt>
      <trkpt lat="51.22129" lon="6.76776">
        <ele>74.008419</ele>
        <time>2021-08-05T08:22:42.000Z</time>
      </trkpt>
      <trkpt lat="51.22152" lon="6.7679">
        <ele>74.019263</ele>
        <time>2021-08-05T08:22:48.000Z</time>
      </trkpt>
      <trkpt lat="51.22198" lon="6.76819">
        <ele>74.040891</ele>
        <time>2021-08-05T08:22:57.000Z</time>
      </trkpt>
      <trkpt lat="51.22202" lon="6.76822">
        <ele>74.042876</ele>
        <time>2021-08-05T08:22:59.000Z</time>
      </trkpt>
      <trkpt lat="51.22215" lon="6.76831">
        <ele>74.049123</ele>
        <time>2021-08-05T08:23:01.000Z</time>
      </trkpt>
      <trkpt lat="51.22232" lon="6.76843">
        <ele>74.057206</ele>
        <time>2021-08-05T08:23:05.000Z</time>
      </trkpt>
      <trkpt lat="51.2224" lon="6.76849">
        <ele>74.06123</ele>
        <time>2021-08-05T08:23:08.000Z</time>
      </trkpt>
      <trkpt lat="51.22257" lon="6.7686">
        <ele>74.068949</ele>
        <time>2021-08-05T08:23:11.000Z</time>
      </trkpt>
      <trkpt lat="51.22274" lon="6.76872">
        <ele>74.077214</ele>
        <time>2021-08-05T08:23:15.000Z</time>
      </trkpt>
      <trkpt lat="51.22288" lon="6.76882">
        <ele>74.083883</ele>
        <time>2021-08-05T08:23:18.000Z</time>
      </trkpt>
      <trkpt lat="51.22296" lon="6.76887">
        <ele>74.094638</ele>
        <time>2021-08-05T08:23:20.000Z</time>
      </trkpt>
      <trkpt lat="51.22296" lon="6.76887">
        <ele>74.094638</ele>
        <time>2021-08-05T08:23:21.000Z</time>
      </trkpt>
      <trkpt lat="51.22304" lon="6.76892">
        <ele>74.108076</ele>
        <time>2021-08-05T08:23:22.000Z</time>
      </trkpt>
      <trkpt lat="51.22313" lon="6.76897">
        <ele>74.122878</ele>
        <time>2021-08-05T08:23:24.000Z</time>
      </trkpt>
      <trkpt lat="51.22322" lon="6.76903">
        <ele>74.138359</ele>
        <time>2021-08-05T08:23:26.000Z</time>
      </trkpt>
      <trkpt lat="51.22327" lon="6.76905">
        <ele>74.146065</ele>
        <time>2021-08-05T08:23:28.000Z</time>
      </trkpt>
      <trkpt lat="51.2234" lon="6.76913">
        <ele>74.168153</ele>
        <time>2021-08-05T08:23:30.000Z</time>
      </trkpt>
      <trkpt lat="51.22348" lon="6.7692">
        <ele>74.183093</ele>
        <time>2021-08-05T08:23:32.000Z</time>
      </trkpt>
      <trkpt lat="51.22353" lon="6.76923">
        <ele>74.19041</ele>
        <time>2021-08-05T08:23:34.000Z</time>
      </trkpt>
      <trkpt lat="51.22365" lon="6.76932">
        <ele>74.212258</ele>
        <time>2021-08-05T08:23:36.000Z</time>
      </trkpt>
      <trkpt lat="51.2237" lon="6.76934">
        <ele>74.219537</ele>
        <time>2021-08-05T08:23:38.000Z</time>
      </trkpt>
      <trkpt lat="51.22383" lon="6.76942">
        <ele>74.24152</ele>
        <time>2021-08-05T08:23:40.000Z</time>
      </trkpt>
      <trkpt lat="51.22391" lon="6.76947">
        <ele>74.255795</ele>
        <time>2021-08-05T08:23:42.000Z</time>
      </trkpt>
      <trkpt lat="51.22404" lon="6.76956">
        <ele>74.277775</ele>
        <time>2021-08-05T08:23:45.000Z</time>
      </trkpt>
      <trkpt lat="51.22414" lon="6.76962">
        <ele>74.294386</ele>
        <time>2021-08-05T08:23:48.000Z</time>
      </trkpt>
      <trkpt lat="51.22446" lon="6.76988">
        <ele>74.351411</ele>
        <time>2021-08-05T08:23:54.000Z</time>
      </trkpt>
      <trkpt lat="51.22455" lon="6.76994">
        <ele>74.366823</ele>
        <time>2021-08-05T08:23:56.000Z</time>
      </trkpt>
      <trkpt lat="51.22459" lon="6.76997">
        <ele>74.364219</ele>
        <time>2021-08-05T08:23:57.000Z</time>
      </trkpt>
      <trkpt lat="51.225" lon="6.77019">
        <ele>74.308831</ele>
        <time>2021-08-05T08:24:07.000Z</time>
      </trkpt>
      <trkpt lat="51.22525" lon="6.77032">
        <ele>74.275077</ele>
        <time>2021-08-05T08:24:13.000Z</time>
      </trkpt>
      <trkpt lat="51.22535" lon="6.77039">
        <ele>74.260729</ele>
        <time>2021-08-05T08:24:15.000Z</time>
      </trkpt>
      <trkpt lat="51.2257" lon="6.77054">
        <ele>74.215174</ele>
        <time>2021-08-05T08:24:22.000Z</time>
      </trkpt>
      <trkpt lat="51.22593" lon="6.77064">
        <ele>74.183487</ele>
        <time>2021-08-05T08:24:27.000Z</time>
      </trkpt>
      <trkpt lat="51.2263" lon="6.77079">
        <ele>74.140928</ele>
        <time>2021-08-05T08:24:36.000Z</time>
      </trkpt>
      <trkpt lat="51.22661" lon="6.77088">
        <ele>74.197985</ele>
        <time>2021-08-05T08:24:43.000Z</time>
      </trkpt>
      <trkpt lat="51.22678" lon="6.77092">
        <ele>74.229868</ele>
        <time>2021-08-05T08:24:46.000Z</time>
      </trkpt>
      <trkpt lat="51.22698" lon="6.7709">
        <ele>74.264762</ele>
        <time>2021-08-05T08:24:51.000Z</time>
      </trkpt>
      <trkpt lat="51.22698" lon="6.7709">
        <ele>74.264762</ele>
        <time>2021-08-05T08:24:52.000Z</time>
      </trkpt>
      <trkpt lat="51.22717" lon="6.77094">
        <ele>74.300866</ele>
        <time>2021-08-05T08:24:57.000Z</time>
      </trkpt>
      <trkpt lat="51.22723" lon="6.77096">
        <ele>74.31126</ele>
        <time>2021-08-05T08:25:02.000Z</time>
      </trkpt>
      <trkpt lat="51.22724" lon="6.77095">
        <ele>74.312773</ele>
        <time>2021-08-05T08:25:11.000Z</time>
      </trkpt>
      <trkpt lat="51.22726" lon="6.77093">
        <ele>74.316732</ele>
        <time>2021-08-05T08:25:12.000Z</time>
      </trkpt>
      <trkpt lat="51.22729" lon="6.77091">
        <ele>74.323443</ele>
        <time>2021-08-05T08:25:14.000Z</time>
      </trkpt>
      <trkpt lat="51.22733" lon="6.77089">
        <ele>74.331323</ele>
        <time>2021-08-05T08:25:16.000Z</time>
      </trkpt>
      <trkpt lat="51.22751" lon="6.77088">
        <ele>74.362807</ele>
        <time>2021-08-05T08:25:22.000Z</time>
      </trkpt>
      <trkpt lat="51.22773" lon="6.77084">
        <ele>74.402529</ele>
        <time>2021-08-05T08:25:28.000Z</time>
      </trkpt>
      <trkpt lat="51.22801" lon="6.77089">
        <ele>74.45351</ele>
        <time>2021-08-05T08:25:35.000Z</time>
      </trkpt>
      <trkpt lat="51.2283" lon="6.77089">
        <ele>74.52119</ele>
        <time>2021-08-05T08:25:42.000Z</time>
      </trkpt>
      <trkpt lat="51.22839" lon="6.7709">
        <ele>74.543732</ele>
        <time>2021-08-05T08:25:45.000Z</time>
      </trkpt>
      <trkpt lat="51.22853" lon="6.77094">
        <ele>74.577821</ele>
        <time>2021-08-05T08:25:47.000Z</time>
      </trkpt>
      <trkpt lat="51.22867" lon="6.77099">
        <ele>74.613139</ele>
        <time>2021-08-05T08:25:50.000Z</time>
      </trkpt>
      <trkpt lat="51.22872" lon="6.77103">
        <ele>74.627056</ele>
        <time>2021-08-05T08:25:51.000Z</time>
      </trkpt>
      <trkpt lat="51.22886" lon="6.77108">
        <ele>74.661518</ele>
        <time>2021-08-05T08:25:54.000Z</time>
      </trkpt>
      <trkpt lat="51.22896" lon="6.77111">
        <ele>74.687649</ele>
        <time>2021-08-05T08:25:57.000Z</time>
      </trkpt>
      <trkpt lat="51.22902" lon="6.77112">
        <ele>74.702305</ele>
        <time>2021-08-05T08:25:59.000Z</time>
      </trkpt>
      <trkpt lat="51.22909" lon="6.77111">
        <ele>74.719485</ele>
        <time>2021-08-05T08:26:02.000Z</time>
      </trkpt>
      <trkpt lat="51.22935" lon="6.7711">
        <ele>74.782836</ele>
        <time>2021-08-05T08:26:08.000Z</time>
      </trkpt>
      <trkpt lat="51.22943" lon="6.7711">
        <ele>74.803375</ele>
        <time>2021-08-05T08:26:10.000Z</time>
      </trkpt>
      <trkpt lat="51.22983" lon="6.77112">
        <ele>74.899256</ele>
        <time>2021-08-05T08:26:19.000Z</time>
      </trkpt>
      <trkpt lat="51.22991" lon="6.77112">
        <ele>74.867705</ele>
        <time>2021-08-05T08:26:21.000Z</time>
      </trkpt>
      <trkpt lat="51.23026" lon="6.77115">
        <ele>74.709816</ele>
        <time>2021-08-05T08:26:29.000Z</time>
      </trkpt>
      <trkpt lat="51.23061" lon="6.77123">
        <ele>74.547775</ele>
        <time>2021-08-05T08:26:38.000Z</time>
      </trkpt>
      <trkpt lat="51.23106" lon="6.77133">
        <ele>74.338965</ele>
        <time>2021-08-05T08:26:46.000Z</time>
      </trkpt>
      <trkpt lat="51.23132" lon="6.77138">
        <ele>74.220651</ele>
        <time>2021-08-05T08:26:51.000Z</time>
      </trkpt>
      <trkpt lat="51.23155" lon="6.77141">
        <ele>74.113766</ele>
        <time>2021-08-05T08:26:56.000Z</time>
      </trkpt>
      <trkpt lat="51.23168" lon="6.77141">
        <ele>74.091043</ele>
        <time>2021-08-05T08:26:59.000Z</time>
      </trkpt>
      <trkpt lat="51.23185" lon="6.77144">
        <ele>74.124407</ele>
        <time>2021-08-05T08:27:03.000Z</time>
      </trkpt>
      <trkpt lat="51.23213" lon="6.7715">
        <ele>74.17973</ele>
        <time>2021-08-05T08:27:10.000Z</time>
      </trkpt>
      <trkpt lat="51.23225" lon="6.77152">
        <ele>74.202327</ele>
        <time>2021-08-05T08:27:13.000Z</time>
      </trkpt>
      <trkpt lat="51.23233" lon="6.77152">
        <ele>74.219431</ele>
        <time>2021-08-05T08:27:16.000Z</time>
      </trkpt>
      <trkpt lat="51.23233" lon="6.77152">
        <ele>74.219431</ele>
        <time>2021-08-05T08:27:17.000Z</time>
      </trkpt>
      <trkpt lat="51.23242" lon="6.77153">
        <ele>74.237128</ele>
        <time>2021-08-05T08:27:19.000Z</time>
      </trkpt>
      <trkpt lat="51.23245" lon="6.77153">
        <ele>74.242042</ele>
        <time>2021-08-05T08:27:20.000Z</time>
      </trkpt>
      <trkpt lat="51.23247" lon="6.77152">
        <ele>74.246393</ele>
        <time>2021-08-05T08:27:22.000Z</time>
      </trkpt>
      <trkpt lat="51.23253" lon="6.77151">
        <ele>74.259019</ele>
        <time>2021-08-05T08:27:23.000Z</time>
      </trkpt>
      <trkpt lat="51.23256" lon="6.77151">
        <ele>74.264914</ele>
        <time>2021-08-05T08:27:24.000Z</time>
      </trkpt>
      <trkpt lat="51.23259" lon="6.77152">
        <ele>74.270429</ele>
        <time>2021-08-05T08:27:25.000Z</time>
      </trkpt>
      <trkpt lat="51.23261" lon="6.77152">
        <ele>74.274754</ele>
        <time>2021-08-05T08:27:26.000Z</time>
      </trkpt>
      <trkpt lat="51.23264" lon="6.77152">
        <ele>74.279667</ele>
        <time>2021-08-05T08:27:27.000Z</time>
      </trkpt>
      <trkpt lat="51.23269" lon="6.77152">
        <ele>74.290672</ele>
        <time>2021-08-05T08:27:29.000Z</time>
      </trkpt>
      <trkpt lat="51.23273" lon="6.77152">
        <ele>74.298567</ele>
        <time>2021-08-05T08:27:31.000Z</time>
      </trkpt>
      <trkpt lat="51.23276" lon="6.77152">
        <ele>74.303102</ele>
        <time>2021-08-05T08:27:32.000Z</time>
      </trkpt>
      <trkpt lat="51.23278" lon="6.77152">
        <ele>74.306838</ele>
        <time>2021-08-05T08:27:34.000Z</time>
      </trkpt>
      <trkpt lat="51.23283" lon="6.77153">
        <ele>74.317664</ele>
        <time>2021-08-05T08:27:36.000Z</time>
      </trkpt>
      <trkpt lat="51.233" lon="6.77153">
        <ele>74.349898</ele>
        <time>2021-08-05T08:27:44.000Z</time>
      </trkpt>
      <trkpt lat="51.23317" lon="6.77152">
        <ele>74.384119</ele>
        <time>2021-08-05T08:27:51.000Z</time>
      </trkpt>
      <trkpt lat="51.23346" lon="6.77154">
        <ele>74.426833</ele>
        <time>2021-08-05T08:27:59.000Z</time>
      </trkpt>
      <trkpt lat="51.23375" lon="6.77154">
        <ele>74.376817</ele>
        <time>2021-08-05T08:28:07.000Z</time>
      </trkpt>
      <trkpt lat="51.23384" lon="6.77154">
        <ele>74.361401</ele>
        <time>2021-08-05T08:28:09.000Z</time>
      </trkpt>
      <trkpt lat="51.23405" lon="6.77154">
        <ele>74.324569</ele>
        <time>2021-08-05T08:28:14.000Z</time>
      </trkpt>
      <trkpt lat="51.23417" lon="6.77153">
        <ele>74.303981</ele>
        <time>2021-08-05T08:28:17.000Z</time>
      </trkpt>
      <trkpt lat="51.23422" lon="6.77153">
        <ele>74.295585</ele>
        <time>2021-08-05T08:28:18.000Z</time>
      </trkpt>
      <trkpt lat="51.23452" lon="6.77154">
        <ele>74.244351</ele>
        <time>2021-08-05T08:28:25.000Z</time>
      </trkpt>
      <trkpt lat="51.23461" lon="6.77154">
        <ele>74.229963</ele>
        <time>2021-08-05T08:28:27.000Z</time>
      </trkpt>
      <trkpt lat="51.23517" lon="6.77154">
        <ele>74.133871</ele>
        <time>2021-08-05T08:28:39.000Z</time>
      </trkpt>
      <trkpt lat="51.23558" lon="6.77152">
        <ele>74.182943</ele>
        <time>2021-08-05T08:28:49.000Z</time>
      </trkpt>
      <trkpt lat="51.23603" lon="6.77152">
        <ele>74.255707</ele>
        <time>2021-08-05T08:28:57.000Z</time>
      </trkpt>
      <trkpt lat="51.2365" lon="6.77154">
        <ele>74.331375</ele>
        <time>2021-08-05T08:29:07.000Z</time>
      </trkpt>
      <trkpt lat="51.23663" lon="6.77153">
        <ele>74.352394</ele>
        <time>2021-08-05T08:29:10.000Z</time>
      </trkpt>
      <trkpt lat="51.2367" lon="6.77149">
        <ele>74.364007</ele>
        <time>2021-08-05T08:29:13.000Z</time>
      </trkpt>
      <trkpt lat="51.23678" lon="6.77134">
        <ele>74.383962</ele>
        <time>2021-08-05T08:29:15.000Z</time>
      </trkpt>
      <trkpt lat="51.23679" lon="6.77129">
        <ele>74.389241</ele>
        <time>2021-08-05T08:29:16.000Z</time>
      </trkpt>
      <trkpt lat="51.23692" lon="6.77092">
        <ele>74.395519</ele>
        <time>2021-08-05T08:29:23.000Z</time>
      </trkpt>
      <trkpt lat="51.23705" lon="6.77069">
        <ele>74.365023</ele>
        <time>2021-08-05T08:29:28.000Z</time>
      </trkpt>
      <trkpt lat="51.23713" lon="6.7704">
        <ele>74.332783</ele>
        <time>2021-08-05T08:29:35.000Z</time>
      </trkpt>
      <trkpt lat="51.23716" lon="6.77039">
        <ele>74.328786</ele>
        <time>2021-08-05T08:29:37.000Z</time>
      </trkpt>
      <trkpt lat="51.23721" lon="6.7704">
        <ele>74.320314</ele>
        <time>2021-08-05T08:29:40.000Z</time>
      </trkpt>
      <trkpt lat="51.23731" lon="6.77038">
        <ele>74.304444</ele>
        <time>2021-08-05T08:29:44.000Z</time>
      </trkpt>
      <trkpt lat="51.23739" lon="6.77036">
        <ele>74.291845</ele>
        <time>2021-08-05T08:29:47.000Z</time>
      </trkpt>
      <trkpt lat="51.23753" lon="6.77032">
        <ele>74.268063</ele>
        <time>2021-08-05T08:29:52.000Z</time>
      </trkpt>
      <trkpt lat="51.23763" lon="6.77027">
        <ele>74.251346</ele>
        <time>2021-08-05T08:29:55.000Z</time>
      </trkpt>
      <trkpt lat="51.23789" lon="6.77017">
        <ele>74.209108</ele>
        <time>2021-08-05T08:30:03.000Z</time>
      </trkpt>
      <trkpt lat="51.23792" lon="6.77017">
        <ele>74.204768</ele>
        <time>2021-08-05T08:30:04.000Z</time>
      </trkpt>
      <trkpt lat="51.23802" lon="6.77015">
        <ele>74.187925</ele>
        <time>2021-08-05T08:30:09.000Z</time>
      </trkpt>
      <trkpt lat="51.23824" lon="6.77005">
        <ele>74.152149</ele>
        <time>2021-08-05T08:30:18.000Z</time>
      </trkpt>
      <trkpt lat="51.23837" lon="6.76991">
        <ele>74.127362</ele>
        <time>2021-08-05T08:30:24.000Z</time>
      </trkpt>
      <trkpt lat="51.23837" lon="6.76991">
        <ele>74.127362</ele>
        <time>2021-08-05T08:30:25.000Z</time>
      </trkpt>
      <trkpt lat="51.23841" lon="6.76984">
        <ele>74.125512</ele>
        <time>2021-08-05T08:30:27.000Z</time>
      </trkpt>
      <trkpt lat="51.23844" lon="6.76983">
        <ele>74.125175</ele>
        <time>2021-08-05T08:30:29.000Z</time>
      </trkpt>
      <trkpt lat="51.23859" lon="6.76975">
        <ele>74.122915</ele>
        <time>2021-08-05T08:30:35.000Z</time>
      </trkpt>
      <trkpt lat="51.23873" lon="6.76967">
        <ele>74.120894</ele>
        <time>2021-08-05T08:30:40.000Z</time>
      </trkpt>
      <trkpt lat="51.2388" lon="6.76967">
        <ele>74.120015</ele>
        <time>2021-08-05T08:30:42.000Z</time>
      </trkpt>
      <trkpt lat="51.23887" lon="6.76968">
        <ele>74.11902</ele>
        <time>2021-08-05T08:30:44.000Z</time>
      </trkpt>
      <trkpt lat="51.23902" lon="6.76963">
        <ele>74.116905</ele>
        <time>2021-08-05T08:30:49.000Z</time>
      </trkpt>
      <trkpt lat="51.23933" lon="6.76948">
        <ele>74.112489</ele>
        <time>2021-08-05T08:30:57.000Z</time>
      </trkpt>
      <trkpt lat="51.23961" lon="6.76934">
        <ele>74.108434</ele>
        <time>2021-08-05T08:31:06.000Z</time>
      </trkpt>
      <trkpt lat="51.23998" lon="6.76913">
        <ele>74.103073</ele>
        <time>2021-08-05T08:31:17.000Z</time>
      </trkpt>
      <trkpt lat="51.24023" lon="6.76898">
        <ele>74.073123</ele>
        <time>2021-08-05T08:31:25.000Z</time>
      </trkpt>
      <trkpt lat="51.24054" lon="6.7688">
        <ele>74.014108</ele>
        <time>2021-08-05T08:31:35.000Z</time>
      </trkpt>
      <trkpt lat="51.24082" lon="6.76862">
        <ele>73.962966</ele>
        <time>2021-08-05T08:31:43.000Z</time>
      </trkpt>
      <trkpt lat="51.24089" lon="6.76858">
        <ele>73.949539</ele>
        <time>2021-08-05T08:31:45.000Z</time>
      </trkpt>
      <trkpt lat="51.24099" lon="6.7685">
        <ele>73.929088</ele>
        <time>2021-08-05T08:31:48.000Z</time>
      </trkpt>
      <trkpt lat="51.24122" lon="6.76834">
        <ele>73.885588</ele>
        <time>2021-08-05T08:31:54.000Z</time>
      </trkpt>
      <trkpt lat="51.2416" lon="6.76805">
        <ele>73.811388</ele>
        <time>2021-08-05T08:32:04.000Z</time>
      </trkpt>
      <trkpt lat="51.24192" lon="6.76784">
        <ele>73.784808</ele>
        <time>2021-08-05T08:32:12.000Z</time>
      </trkpt>
      <trkpt lat="51.24192" lon="6.76784">
        <ele>73.784808</ele>
        <time>2021-08-05T08:32:13.000Z</time>
      </trkpt>
      <trkpt lat="51.24215" lon="6.76766">
        <ele>73.78277</ele>
        <time>2021-08-05T08:32:18.000Z</time>
      </trkpt>
      <trkpt lat="51.24223" lon="6.7676">
        <ele>73.782079</ele>
        <time>2021-08-05T08:32:20.000Z</time>
      </trkpt>
      <trkpt lat="51.24235" lon="6.76749">
        <ele>73.780996</ele>
        <time>2021-08-05T08:32:23.000Z</time>
      </trkpt>
      <trkpt lat="51.2427" lon="6.7672">
        <ele>73.777801</ele>
        <time>2021-08-05T08:32:32.000Z</time>
      </trkpt>
      <trkpt lat="51.24278" lon="6.76712">
        <ele>73.77709</ele>
        <time>2021-08-05T08:32:34.000Z</time>
      </trkpt>
      <trkpt lat="51.24293" lon="6.76698">
        <ele>73.775682</ele>
        <time>2021-08-05T08:32:38.000Z</time>
      </trkpt>
      <trkpt lat="51.24301" lon="6.76691">
        <ele>73.77497</ele>
        <time>2021-08-05T08:32:41.000Z</time>
      </trkpt>
      <trkpt lat="51.24335" lon="6.76661">
        <ele>73.768208</ele>
        <time>2021-08-05T08:32:50.000Z</time>
      </trkpt>
      <trkpt lat="51.2435" lon="6.76647">
        <ele>73.744486</ele>
        <time>2021-08-05T08:32:53.000Z</time>
      </trkpt>
      <trkpt lat="51.24375" lon="6.7662">
        <ele>73.704013</ele>
        <time>2021-08-05T08:33:00.000Z</time>
      </trkpt>
      <trkpt lat="51.24407" lon="6.7659">
        <ele>73.653528</ele>
        <time>2021-08-05T08:33:09.000Z</time>
      </trkpt>
      <trkpt lat="51.2441" lon="6.76586">
        <ele>73.64786</ele>
        <time>2021-08-05T08:33:10.000Z</time>
      </trkpt>
      <trkpt lat="51.24424" lon="6.76569">
        <ele>73.624711</ele>
        <time>2021-08-05T08:33:14.000Z</time>
      </trkpt>
      <trkpt lat="51.24434" lon="6.76557">
        <ele>73.607271</ele>
        <time>2021-08-05T08:33:17.000Z</time>
      </trkpt>
      <trkpt lat="51.24465" lon="6.76521">
        <ele>73.555831</ele>
        <time>2021-08-05T08:33:26.000Z</time>
      </trkpt>
      <trkpt lat="51.24474" lon="6.76508">
        <ele>73.53961</ele>
        <time>2021-08-05T08:33:29.000Z</time>
      </trkpt>
      <trkpt lat="51.24477" lon="6.76504">
        <ele>73.53405</ele>
        <time>2021-08-05T08:33:30.000Z</time>
      </trkpt>
      <trkpt lat="51.2448" lon="6.765">
        <ele>73.528376</ele>
        <time>2021-08-05T08:33:32.000Z</time>
      </trkpt>
      <trkpt lat="51.24493" lon="6.76483">
        <ele>73.511295</ele>
        <time>2021-08-05T08:33:35.000Z</time>
      </trkpt>
      <trkpt lat="51.24517" lon="6.76456">
        <ele>73.481993</ele>
        <time>2021-08-05T08:33:42.000Z</time>
      </trkpt>
      <trkpt lat="51.24524" lon="6.76447">
        <ele>73.472998</ele>
        <time>2021-08-05T08:33:44.000Z</time>
      </trkpt>
      <trkpt lat="51.24543" lon="6.7642">
        <ele>73.447757</ele>
        <time>2021-08-05T08:33:50.000Z</time>
      </trkpt>
      <trkpt lat="51.24546" lon="6.76416">
        <ele>73.443649</ele>
        <time>2021-08-05T08:33:51.000Z</time>
      </trkpt>
      <trkpt lat="51.24572" lon="6.76381">
        <ele>73.409319</ele>
        <time>2021-08-05T08:34:00.000Z</time>
      </trkpt>
      <trkpt lat="51.24579" lon="6.76373">
        <ele>73.400717</ele>
        <time>2021-08-05T08:34:01.000Z</time>
      </trkpt>
      <trkpt lat="51.24582" lon="6.76369">
        <ele>73.396788</ele>
        <time>2021-08-05T08:34:02.000Z</time>
      </trkpt>
      <trkpt lat="51.246" lon="6.76347">
        <ele>73.37412</ele>
        <time>2021-08-05T08:34:08.000Z</time>
      </trkpt>
      <trkpt lat="51.24605" lon="6.7634">
        <ele>73.367553</ele>
        <time>2021-08-05T08:34:11.000Z</time>
      </trkpt>
      <trkpt lat="51.24618" lon="6.76319">
        <ele>73.348735</ele>
        <time>2021-08-05T08:34:15.000Z</time>
      </trkpt>
      <trkpt lat="51.24621" lon="6.76314">
        <ele>73.349172</ele>
        <time>2021-08-05T08:34:16.000Z</time>
      </trkpt>
      <trkpt lat="51.24651" lon="6.76277">
        <ele>73.371276</ele>
        <time>2021-08-05T08:34:26.000Z</time>
      </trkpt>
      <trkpt lat="51.24662" lon="6.7626">
        <ele>73.38052</ele>
        <time>2021-08-05T08:34:30.000Z</time>
      </trkpt>
      <trkpt lat="51.24667" lon="6.76245">
        <ele>73.386578</ele>
        <time>2021-08-05T08:34:32.000Z</time>
      </trkpt>
      <trkpt lat="51.24681" lon="6.76222">
        <ele>73.398501</ele>
        <time>2021-08-05T08:34:38.000Z</time>
      </trkpt>
      <trkpt lat="51.24687" lon="6.76214">
        <ele>73.402945</ele>
        <time>2021-08-05T08:34:41.000Z</time>
      </trkpt>
      <trkpt lat="51.24696" lon="6.76202">
        <ele>73.409701</ele>
        <time>2021-08-05T08:34:44.000Z</time>
      </trkpt>
      <trkpt lat="51.24706" lon="6.76185">
        <ele>73.418403</ele>
        <time>2021-08-05T08:34:48.000Z</time>
      </trkpt>
      <trkpt lat="51.24717" lon="6.76168">
        <ele>73.427329</ele>
        <time>2021-08-05T08:34:52.000Z</time>
      </trkpt>
      <trkpt lat="51.24725" lon="6.76158">
        <ele>73.433315</ele>
        <time>2021-08-05T08:34:54.000Z</time>
      </trkpt>
      <trkpt lat="51.24731" lon="6.76157">
        <ele>73.436736</ele>
        <time>2021-08-05T08:34:56.000Z</time>
      </trkpt>
      <trkpt lat="51.24744" lon="6.76164">
        <ele>73.4446</ele>
        <time>2021-08-05T08:35:00.000Z</time>
      </trkpt>
      <trkpt lat="51.24746" lon="6.76168">
        <ele>73.446685</ele>
        <time>2021-08-05T08:35:01.000Z</time>
      </trkpt>
      <trkpt lat="51.24751" lon="6.76176">
        <ele>73.450872</ele>
        <time>2021-08-05T08:35:03.000Z</time>
      </trkpt>
      <trkpt lat="51.24756" lon="6.76186">
        <ele>73.452132</ele>
        <time>2021-08-05T08:35:05.000Z</time>
      </trkpt>
      <trkpt lat="51.24758" lon="6.76192">
        <ele>73.451362</ele>
        <time>2021-08-05T08:35:07.000Z</time>
      </trkpt>
      <trkpt lat="51.24771" lon="6.76213">
        <ele>73.448052</ele>
        <time>2021-08-05T08:35:11.000Z</time>
      </trkpt>
      <trkpt lat="51.24777" lon="6.76224">
        <ele>73.446466</ele>
        <time>2021-08-05T08:35:14.000Z</time>
      </trkpt>
      <trkpt lat="51.24802" lon="6.76266">
        <ele>73.439931</ele>
        <time>2021-08-05T08:35:23.000Z</time>
      </trkpt>
      <trkpt lat="51.24812" lon="6.7628">
        <ele>73.437489</ele>
        <time>2021-08-05T08:35:28.000Z</time>
      </trkpt>
      <trkpt lat="51.24816" lon="6.76279">
        <ele>73.436823</ele>
        <time>2021-08-05T08:35:30.000Z</time>
      </trkpt>
      <trkpt lat="51.24819" lon="6.76275">
        <ele>73.436031</ele>
        <time>2021-08-05T08:35:32.000Z</time>
      </trkpt>
      <trkpt lat="51.24827" lon="6.76255">
        <ele>73.433361</ele>
        <time>2021-08-05T08:35:37.000Z</time>
      </trkpt>
      <trkpt lat="51.24834" lon="6.76241">
        <ele>73.431455</ele>
        <time>2021-08-05T08:35:40.000Z</time>
      </trkpt>
      <trkpt lat="51.24845" lon="6.76217">
        <ele>73.428074</ele>
        <time>2021-08-05T08:35:46.000Z</time>
      </trkpt>
      <trkpt lat="51.24851" lon="6.76201">
        <ele>73.426016</ele>
        <time>2021-08-05T08:35:50.000Z</time>
      </trkpt>
      <trkpt lat="51.24851" lon="6.76201">
        <ele>73.426016</ele>
        <time>2021-08-05T08:35:51.000Z</time>
      </trkpt>
      <trkpt lat="51.24856" lon="6.7619">
        <ele>73.42441</ele>
        <time>2021-08-05T08:35:54.000Z</time>
      </trkpt>
      <trkpt lat="51.24856" lon="6.7619">
        <ele>73.42441</ele>
        <time>2021-08-05T08:35:55.000Z</time>
      </trkpt>
      <trkpt lat="51.2486" lon="6.76189">
        <ele>73.423796</ele>
        <time>2021-08-05T08:35:56.000Z</time>
      </trkpt>
      <trkpt lat="51.24871" lon="6.76187">
        <ele>73.421701</ele>
        <time>2021-08-05T08:36:00.000Z</time>
      </trkpt>
      <trkpt lat="51.24884" lon="6.7616">
        <ele>73.426358</ele>
        <time>2021-08-05T08:36:06.000Z</time>
      </trkpt>
      <trkpt lat="51.2489" lon="6.76144">
        <ele>73.430816</ele>
        <time>2021-08-05T08:36:11.000Z</time>
      </trkpt>
      <trkpt lat="51.24917" lon="6.76085">
        <ele>73.448085</ele>
        <time>2021-08-05T08:36:22.000Z</time>
      </trkpt>
      <trkpt lat="51.24928" lon="6.7606">
        <ele>73.455344</ele>
        <time>2021-08-05T08:36:26.000Z</time>
      </trkpt>
      <trkpt lat="51.2493" lon="6.76053">
        <ele>73.457067</ele>
        <time>2021-08-05T08:36:27.000Z</time>
      </trkpt>
      <trkpt lat="51.2494" lon="6.76027">
        <ele>73.464238</ele>
        <time>2021-08-05T08:36:31.000Z</time>
      </trkpt>
      <trkpt lat="51.24945" lon="6.76021">
        <ele>73.466659</ele>
        <time>2021-08-05T08:36:32.000Z</time>
      </trkpt>
      <trkpt lat="51.24948" lon="6.76014">
        <ele>73.468647</ele>
        <time>2021-08-05T08:36:34.000Z</time>
      </trkpt>
      <trkpt lat="51.24954" lon="6.76001">
        <ele>73.472381</ele>
        <time>2021-08-05T08:36:35.000Z</time>
      </trkpt>
      <trkpt lat="51.2496" lon="6.75991">
        <ele>73.475766</ele>
        <time>2021-08-05T08:36:37.000Z</time>
      </trkpt>
      <trkpt lat="51.24968" lon="6.75981">
        <ele>73.479556</ele>
        <time>2021-08-05T08:36:39.000Z</time>
      </trkpt>
      <trkpt lat="51.24979" lon="6.75954">
        <ele>73.487292</ele>
        <time>2021-08-05T08:36:43.000Z</time>
      </trkpt>
      <trkpt lat="51.24982" lon="6.75947">
        <ele>73.488816</ele>
        <time>2021-08-05T08:36:45.000Z</time>
      </trkpt>
      <trkpt lat="51.25012" lon="6.75892">
        <ele>73.494284</ele>
        <time>2021-08-05T08:36:53.000Z</time>
      </trkpt>
      <trkpt lat="51.25015" lon="6.75885">
        <ele>73.494953</ele>
        <time>2021-08-05T08:36:54.000Z</time>
      </trkpt>
      <trkpt lat="51.25021" lon="6.75873">
        <ele>73.496118</ele>
        <time>2021-08-05T08:36:56.000Z</time>
      </trkpt>
      <trkpt lat="51.25029" lon="6.75856">
        <ele>73.497737</ele>
        <time>2021-08-05T08:37:00.000Z</time>
      </trkpt>
      <trkpt lat="51.25037" lon="6.75838">
        <ele>73.499456</ele>
        <time>2021-08-05T08:37:02.000Z</time>
      </trkpt>
      <trkpt lat="51.25046" lon="6.7582">
        <ele>73.501155</ele>
        <time>2021-08-05T08:37:05.000Z</time>
      </trkpt>
      <trkpt lat="51.25051" lon="6.75808">
        <ele>73.502277</ele>
        <time>2021-08-05T08:37:07.000Z</time>
      </trkpt>
      <trkpt lat="51.25062" lon="6.75785">
        <ele>73.504516</ele>
        <time>2021-08-05T08:37:12.000Z</time>
      </trkpt>
      <trkpt lat="51.25067" lon="6.75774">
        <ele>73.505545</ele>
        <time>2021-08-05T08:37:13.000Z</time>
      </trkpt>
      <trkpt lat="51.25072" lon="6.75759">
        <ele>73.506801</ele>
        <time>2021-08-05T08:37:15.000Z</time>
      </trkpt>
      <trkpt lat="51.25077" lon="6.75737">
        <ele>73.508604</ele>
        <time>2021-08-05T08:37:18.000Z</time>
      </trkpt>
      <trkpt lat="51.25079" lon="6.7573">
        <ele>73.509149</ele>
        <time>2021-08-05T08:37:20.000Z</time>
      </trkpt>
      <trkpt lat="51.25084" lon="6.75704">
        <ele>73.512595</ele>
        <time>2021-08-05T08:37:23.000Z</time>
      </trkpt>
      <trkpt lat="51.25086" lon="6.75697">
        <ele>73.514174</ele>
        <time>2021-08-05T08:37:24.000Z</time>
      </trkpt>
      <trkpt lat="51.25088" lon="6.75691">
        <ele>73.515709</ele>
        <time>2021-08-05T08:37:25.000Z</time>
      </trkpt>
      <trkpt lat="51.25093" lon="6.75677">
        <ele>73.518962</ele>
        <time>2021-08-05T08:37:27.000Z</time>
      </trkpt>
      <trkpt lat="51.25097" lon="6.75662">
        <ele>73.522325</ele>
        <time>2021-08-05T08:37:29.000Z</time>
      </trkpt>
      <trkpt lat="51.25109" lon="6.75619">
        <ele>73.53214</ele>
        <time>2021-08-05T08:37:36.000Z</time>
      </trkpt>
      <trkpt lat="51.25112" lon="6.75608">
        <ele>73.534776</ele>
        <time>2021-08-05T08:37:38.000Z</time>
      </trkpt>
      <trkpt lat="51.25121" lon="6.75582">
        <ele>73.540812</ele>
        <time>2021-08-05T08:37:40.000Z</time>
      </trkpt>
      <trkpt lat="51.25124" lon="6.75569">
        <ele>73.543893</ele>
        <time>2021-08-05T08:37:42.000Z</time>
      </trkpt>
      <trkpt lat="51.25124" lon="6.75569">
        <ele>73.543893</ele>
        <time>2021-08-05T08:37:43.000Z</time>
      </trkpt>
      <trkpt lat="51.25137" lon="6.75526">
        <ele>73.553819</ele>
        <time>2021-08-05T08:37:48.000Z</time>
      </trkpt>
      <trkpt lat="51.25137" lon="6.75526">
        <ele>73.553819</ele>
        <time>2021-08-05T08:37:49.000Z</time>
      </trkpt>
      <trkpt lat="51.25148" lon="6.75486">
        <ele>73.562868</ele>
        <time>2021-08-05T08:37:54.000Z</time>
      </trkpt>
      <trkpt lat="51.25152" lon="6.75472">
        <ele>73.566058</ele>
        <time>2021-08-05T08:37:56.000Z</time>
      </trkpt>
      <trkpt lat="51.25157" lon="6.75457">
        <ele>73.569536</ele>
        <time>2021-08-05T08:37:58.000Z</time>
      </trkpt>
      <trkpt lat="51.25161" lon="6.75443">
        <ele>73.576991</ele>
        <time>2021-08-05T08:38:00.000Z</time>
      </trkpt>
      <trkpt lat="51.25162" lon="6.75437">
        <ele>73.5803</ele>
        <time>2021-08-05T08:38:01.000Z</time>
      </trkpt>
      <trkpt lat="51.25166" lon="6.75422">
        <ele>73.589015</ele>
        <time>2021-08-05T08:38:03.000Z</time>
      </trkpt>
      <trkpt lat="51.2517" lon="6.75407">
        <ele>73.597386</ele>
        <time>2021-08-05T08:38:05.000Z</time>
      </trkpt>
      <trkpt lat="51.25172" lon="6.754">
        <ele>73.601262</ele>
        <time>2021-08-05T08:38:06.000Z</time>
      </trkpt>
      <trkpt lat="51.25173" lon="6.75394">
        <ele>73.604971</ele>
        <time>2021-08-05T08:38:08.000Z</time>
      </trkpt>
      <trkpt lat="51.25176" lon="6.75381">
        <ele>73.612151</ele>
        <time>2021-08-05T08:38:09.000Z</time>
      </trkpt>
      <trkpt lat="51.25183" lon="6.75355">
        <ele>73.62717</ele>
        <time>2021-08-05T08:38:13.000Z</time>
      </trkpt>
      <trkpt lat="51.25186" lon="6.75342">
        <ele>73.634992</ele>
        <time>2021-08-05T08:38:15.000Z</time>
      </trkpt>
      <trkpt lat="51.25191" lon="6.75319">
        <ele>73.647697</ele>
        <time>2021-08-05T08:38:18.000Z</time>
      </trkpt>
      <trkpt lat="51.25193" lon="6.75312">
        <ele>73.651802</ele>
        <time>2021-08-05T08:38:19.000Z</time>
      </trkpt>
      <trkpt lat="51.25194" lon="6.75306">
        <ele>73.655087</ele>
        <time>2021-08-05T08:38:20.000Z</time>
      </trkpt>
      <trkpt lat="51.25197" lon="6.75299">
        <ele>73.659602</ele>
        <time>2021-08-05T08:38:21.000Z</time>
      </trkpt>
      <trkpt lat="51.25199" lon="6.75285">
        <ele>73.667267</ele>
        <time>2021-08-05T08:38:23.000Z</time>
      </trkpt>
      <trkpt lat="51.25199" lon="6.75285">
        <ele>73.667267</ele>
        <time>2021-08-05T08:38:24.000Z</time>
      </trkpt>
      <trkpt lat="51.25201" lon="6.75278">
        <ele>73.671372</ele>
        <time>2021-08-05T08:38:25.000Z</time>
      </trkpt>
      <trkpt lat="51.25208" lon="6.7525">
        <ele>73.687259</ele>
        <time>2021-08-05T08:38:28.000Z</time>
      </trkpt>
      <trkpt lat="51.25212" lon="6.75236">
        <ele>73.695421</ele>
        <time>2021-08-05T08:38:30.000Z</time>
      </trkpt>
      <trkpt lat="51.25218" lon="6.75208">
        <ele>73.71121</ele>
        <time>2021-08-05T08:38:34.000Z</time>
      </trkpt>
      <trkpt lat="51.25224" lon="6.75183">
        <ele>73.725747</ele>
        <time>2021-08-05T08:38:37.000Z</time>
      </trkpt>
      <trkpt lat="51.25226" lon="6.75176">
        <ele>73.731468</ele>
        <time>2021-08-05T08:38:38.000Z</time>
      </trkpt>
      <trkpt lat="51.25231" lon="6.75158">
        <ele>73.744052</ele>
        <time>2021-08-05T08:38:39.000Z</time>
      </trkpt>
      <trkpt lat="51.25234" lon="6.7515">
        <ele>73.750484</ele>
        <time>2021-08-05T08:38:40.000Z</time>
      </trkpt>
      <trkpt lat="51.25242" lon="6.75126">
        <ele>73.768547</ele>
        <time>2021-08-05T08:38:43.000Z</time>
      </trkpt>
      <trkpt lat="51.25242" lon="6.75126">
        <ele>73.768547</ele>
        <time>2021-08-05T08:38:44.000Z</time>
      </trkpt>
      <trkpt lat="51.25247" lon="6.7511">
        <ele>73.780514</ele>
        <time>2021-08-05T08:38:45.000Z</time>
      </trkpt>
      <trkpt lat="51.25253" lon="6.75083">
        <ele>73.799456</ele>
        <time>2021-08-05T08:38:48.000Z</time>
      </trkpt>
      <trkpt lat="51.25258" lon="6.75056">
        <ele>73.818316</ele>
        <time>2021-08-05T08:38:51.000Z</time>
      </trkpt>
      <trkpt lat="51.25263" lon="6.75039">
        <ele>73.830556</ele>
        <time>2021-08-05T08:38:53.000Z</time>
      </trkpt>
      <trkpt lat="51.25266" lon="6.75032">
        <ele>73.836701</ele>
        <time>2021-08-05T08:38:54.000Z</time>
      </trkpt>
      <trkpt lat="51.25268" lon="6.75024">
        <ele>73.84221</ele>
        <time>2021-08-05T08:38:55.000Z</time>
      </trkpt>
      <trkpt lat="51.25268" lon="6.75024">
        <ele>73.84221</ele>
        <time>2021-08-05T08:38:56.000Z</time>
      </trkpt>
      <trkpt lat="51.25273" lon="6.7501">
        <ele>73.853179</ele>
        <time>2021-08-05T08:38:57.000Z</time>
      </trkpt>
      <trkpt lat="51.25276" lon="6.75003">
        <ele>73.858822</ele>
        <time>2021-08-05T08:38:58.000Z</time>
      </trkpt>
      <trkpt lat="51.25276" lon="6.75003">
        <ele>73.858822</ele>
        <time>2021-08-05T08:38:59.000Z</time>
      </trkpt>
      <trkpt lat="51.25282" lon="6.74986">
        <ele>73.87155</ele>
        <time>2021-08-05T08:39:00.000Z</time>
      </trkpt>
      <trkpt lat="51.25288" lon="6.74952">
        <ele>73.894718</ele>
        <time>2021-08-05T08:39:04.000Z</time>
      </trkpt>
      <trkpt lat="51.25291" lon="6.74935">
        <ele>73.906592</ele>
        <time>2021-08-05T08:39:06.000Z</time>
      </trkpt>
      <trkpt lat="51.25301" lon="6.74904">
        <ele>73.950357</ele>
        <time>2021-08-05T08:39:10.000Z</time>
      </trkpt>
      <trkpt lat="51.25312" lon="6.74874">
        <ele>74.005917</ele>
        <time>2021-08-05T08:39:14.000Z</time>
      </trkpt>
      <trkpt lat="51.25317" lon="6.74859">
        <ele>74.032567</ele>
        <time>2021-08-05T08:39:17.000Z</time>
      </trkpt>
      <trkpt lat="51.25323" lon="6.74835">
        <ele>74.072115</ele>
        <time>2021-08-05T08:39:19.000Z</time>
      </trkpt>
      <trkpt lat="51.2533" lon="6.74814">
        <ele>74.110196</ele>
        <time>2021-08-05T08:39:23.000Z</time>
      </trkpt>
      <trkpt lat="51.25346" lon="6.74757">
        <ele>74.20873</ele>
        <time>2021-08-05T08:39:30.000Z</time>
      </trkpt>
      <trkpt lat="51.25348" lon="6.74749">
        <ele>74.221633</ele>
        <time>2021-08-05T08:39:31.000Z</time>
      </trkpt>
      <trkpt lat="51.25355" lon="6.7472">
        <ele>74.270532</ele>
        <time>2021-08-05T08:39:35.000Z</time>
      </trkpt>
      <trkpt lat="51.25356" lon="6.74713">
        <ele>74.282633</ele>
        <time>2021-08-05T08:39:36.000Z</time>
      </trkpt>
      <trkpt lat="51.25361" lon="6.74693">
        <ele>74.317285</ele>
        <time>2021-08-05T08:39:39.000Z</time>
      </trkpt>
      <trkpt lat="51.25371" lon="6.74652">
        <ele>74.375548</ele>
        <time>2021-08-05T08:39:45.000Z</time>
      </trkpt>
      <trkpt lat="51.25391" lon="6.74583">
        <ele>74.427016</ele>
        <time>2021-08-05T08:39:55.000Z</time>
      </trkpt>
      <trkpt lat="51.25405" lon="6.74536">
        <ele>74.462931</ele>
        <time>2021-08-05T08:40:02.000Z</time>
      </trkpt>
      <trkpt lat="51.25411" lon="6.74516">
        <ele>74.477775</ele>
        <time>2021-08-05T08:40:05.000Z</time>
      </trkpt>
      <trkpt lat="51.25414" lon="6.74503">
        <ele>74.487803</ele>
        <time>2021-08-05T08:40:07.000Z</time>
      </trkpt>
      <trkpt lat="51.25419" lon="6.74482">
        <ele>74.502961</ele>
        <time>2021-08-05T08:40:10.000Z</time>
      </trkpt>
      <trkpt lat="51.25426" lon="6.74455">
        <ele>74.522429</ele>
        <time>2021-08-05T08:40:14.000Z</time>
      </trkpt>
      <trkpt lat="51.2543" lon="6.74443">
        <ele>74.531899</ele>
        <time>2021-08-05T08:40:16.000Z</time>
      </trkpt>
      <trkpt lat="51.25433" lon="6.7443">
        <ele>74.541755</ele>
        <time>2021-08-05T08:40:18.000Z</time>
      </trkpt>
      <trkpt lat="51.25435" lon="6.74423">
        <ele>74.546631</ele>
        <time>2021-08-05T08:40:19.000Z</time>
      </trkpt>
      <trkpt lat="51.25438" lon="6.7441">
        <ele>74.556174</ele>
        <time>2021-08-05T08:40:21.000Z</time>
      </trkpt>
      <trkpt lat="51.2544" lon="6.74404">
        <ele>74.560755</ele>
        <time>2021-08-05T08:40:23.000Z</time>
      </trkpt>
      <trkpt lat="51.25446" lon="6.74379">
        <ele>74.555646</ele>
        <time>2021-08-05T08:40:26.000Z</time>
      </trkpt>
      <trkpt lat="51.25449" lon="6.74367">
        <ele>74.550855</ele>
        <time>2021-08-05T08:40:28.000Z</time>
      </trkpt>
      <trkpt lat="51.25453" lon="6.74356">
        <ele>74.546569</ele>
        <time>2021-08-05T08:40:30.000Z</time>
      </trkpt>
      <trkpt lat="51.25458" lon="6.74348">
        <ele>74.542465</ele>
        <time>2021-08-05T08:40:32.000Z</time>
      </trkpt>
      <trkpt lat="51.25461" lon="6.74345">
        <ele>74.540247</ele>
        <time>2021-08-05T08:40:33.000Z</time>
      </trkpt>
      <trkpt lat="51.25485" lon="6.74318">
        <ele>74.523364</ele>
        <time>2021-08-05T08:40:41.000Z</time>
      </trkpt>
      <trkpt lat="51.25491" lon="6.743">
        <ele>74.516064</ele>
        <time>2021-08-05T08:40:45.000Z</time>
      </trkpt>
      <trkpt lat="51.25497" lon="6.74279">
        <ele>74.507954</ele>
        <time>2021-08-05T08:40:49.000Z</time>
      </trkpt>
      <trkpt lat="51.255" lon="6.74268">
        <ele>74.503472</ele>
        <time>2021-08-05T08:40:51.000Z</time>
      </trkpt>
      <trkpt lat="51.25505" lon="6.74252">
        <ele>74.497166</ele>
        <time>2021-08-05T08:40:54.000Z</time>
      </trkpt>
      <trkpt lat="51.25514" lon="6.74227">
        <ele>74.487075</ele>
        <time>2021-08-05T08:40:59.000Z</time>
      </trkpt>
      <trkpt lat="51.25529" lon="6.74203">
        <ele>74.474846</ele>
        <time>2021-08-05T08:41:05.000Z</time>
      </trkpt>
      <trkpt lat="51.25531" lon="6.74193">
        <ele>74.471045</ele>
        <time>2021-08-05T08:41:07.000Z</time>
      </trkpt>
      <trkpt lat="51.2554" lon="6.74159">
        <ele>74.460037</ele>
        <time>2021-08-05T08:41:13.000Z</time>
      </trkpt>
      <trkpt lat="51.25544" lon="6.74137">
        <ele>74.45777</ele>
        <time>2021-08-05T08:41:18.000Z</time>
      </trkpt>
      <trkpt lat="51.25556" lon="6.74099">
        <ele>74.453704</ele>
        <time>2021-08-05T08:41:23.000Z</time>
      </trkpt>
      <trkpt lat="51.25569" lon="6.74054">
        <ele>74.448894</ele>
        <time>2021-08-05T08:41:31.000Z</time>
      </trkpt>
      <trkpt lat="51.25577" lon="6.74026">
        <ele>74.44592</ele>
        <time>2021-08-05T08:41:37.000Z</time>
      </trkpt>
      <trkpt lat="51.25588" lon="6.7399">
        <ele>74.442095</ele>
        <time>2021-08-05T08:41:42.000Z</time>
      </trkpt>
      <trkpt lat="51.25602" lon="6.73956">
        <ele>74.438142</ele>
        <time>2021-08-05T08:41:49.000Z</time>
      </trkpt>
      <trkpt lat="51.25609" lon="6.73934">
        <ele>74.435646</ele>
        <time>2021-08-05T08:41:54.000Z</time>
      </trkpt>
      <trkpt lat="51.25611" lon="6.73927">
        <ele>74.434935</ele>
        <time>2021-08-05T08:41:55.000Z</time>
      </trkpt>
      <trkpt lat="51.25606" lon="6.73921">
        <ele>74.433989</ele>
        <time>2021-08-05T08:41:57.000Z</time>
      </trkpt>
      <trkpt lat="51.2561" lon="6.739">
        <ele>74.438889</ele>
        <time>2021-08-05T08:42:01.000Z</time>
      </trkpt>
      <trkpt lat="51.25611" lon="6.73895">
        <ele>74.441457</ele>
        <time>2021-08-05T08:42:02.000Z</time>
      </trkpt>
      <trkpt lat="51.25621" lon="6.73862">
        <ele>74.459473</ele>
        <time>2021-08-05T08:42:09.000Z</time>
      </trkpt>
      <trkpt lat="51.25624" lon="6.73847">
        <ele>74.467425</ele>
        <time>2021-08-05T08:42:13.000Z</time>
      </trkpt>
      <trkpt lat="51.25628" lon="6.73833">
        <ele>74.474882</ele>
        <time>2021-08-05T08:42:15.000Z</time>
      </trkpt>
      <trkpt lat="51.25633" lon="6.73819">
        <ele>74.48293</ele>
        <time>2021-08-05T08:42:18.000Z</time>
      </trkpt>
      <trkpt lat="51.25635" lon="6.73808">
        <ele>74.488296</ele>
        <time>2021-08-05T08:42:20.000Z</time>
      </trkpt>
      <trkpt lat="51.25641" lon="6.73784">
        <ele>74.501318</ele>
        <time>2021-08-05T08:42:26.000Z</time>
      </trkpt>
      <trkpt lat="51.25648" lon="6.73759">
        <ele>74.515071</ele>
        <time>2021-08-05T08:42:30.000Z</time>
      </trkpt>
      <trkpt lat="51.25653" lon="6.73742">
        <ele>74.523994</ele>
        <time>2021-08-05T08:42:33.000Z</time>
      </trkpt>
      <trkpt lat="51.25657" lon="6.73726">
        <ele>74.532492</ele>
        <time>2021-08-05T08:42:36.000Z</time>
      </trkpt>
      <trkpt lat="51.25666" lon="6.73703">
        <ele>74.545711</ele>
        <time>2021-08-05T08:42:41.000Z</time>
      </trkpt>
      <trkpt lat="51.25674" lon="6.73676">
        <ele>74.560495</ele>
        <time>2021-08-05T08:42:47.000Z</time>
      </trkpt>
      <trkpt lat="51.25686" lon="6.73642">
        <ele>74.536541</ele>
        <time>2021-08-05T08:42:52.000Z</time>
      </trkpt>
      <trkpt lat="51.25701" lon="6.73593">
        <ele>74.329174</ele>
        <time>2021-08-05T08:43:01.000Z</time>
      </trkpt>
      <trkpt lat="51.25715" lon="6.73544">
        <ele>74.128528</ele>
        <time>2021-08-05T08:43:10.000Z</time>
      </trkpt>
      <trkpt lat="51.25719" lon="6.73529">
        <ele>74.064413</ele>
        <time>2021-08-05T08:43:15.000Z</time>
      </trkpt>
      <trkpt lat="51.2572" lon="6.73519">
        <ele>74.028304</ele>
        <time>2021-08-05T08:43:16.000Z</time>
      </trkpt>
      <trkpt lat="51.25718" lon="6.7351">
        <ele>73.991971</ele>
        <time>2021-08-05T08:43:19.000Z</time>
      </trkpt>
      <trkpt lat="51.2572" lon="6.73479">
        <ele>73.876434</ele>
        <time>2021-08-05T08:43:24.000Z</time>
      </trkpt>
      <trkpt lat="51.2573" lon="6.73453">
        <ele>73.757961</ele>
        <time>2021-08-05T08:43:31.000Z</time>
      </trkpt>
      <trkpt lat="51.25731" lon="6.7345">
        <ele>73.7487</ele>
        <time>2021-08-05T08:43:35.000Z</time>
      </trkpt>
      <trkpt lat="51.25731" lon="6.7345">
        <ele>73.7487</ele>
        <time>2021-08-05T08:43:40.000Z</time>
      </trkpt>
      <trkpt lat="51.2573" lon="6.73451">
        <ele>73.744698</ele>
        <time>2021-08-05T08:43:45.000Z</time>
      </trkpt>
      <trkpt lat="51.2573" lon="6.73451">
        <ele>73.744698</ele>
        <time>2021-08-05T08:43:48.000Z</time>
      </trkpt>
      <trkpt lat="51.2573" lon="6.73451">
        <ele>73.744698</ele>
        <time>2021-08-05T08:43:53.000Z</time>
      </trkpt>
      <trkpt lat="51.2573" lon="6.73451">
        <ele>73.744698</ele>
        <time>2021-08-05T08:43:57.000Z</time>
      </trkpt>
      <trkpt lat="51.2573" lon="6.73451">
        <ele>73.744698</ele>
        <time>2021-08-05T08:44:05.000Z</time>
      </trkpt>
      <trkpt lat="51.2573" lon="6.73451">
        <ele>73.744698</ele>
        <time>2021-08-05T08:44:18.000Z</time>
      </trkpt>
      <trkpt lat="51.2573" lon="6.73451">
        <ele>73.744698</ele>
        <time>2021-08-05T08:44:22.000Z</time>
      </trkpt>
      <trkpt lat="51.2573" lon="6.73446">
        <ele>73.725765</ele>
        <time>2021-08-05T08:44:48.000Z</time>
      </trkpt>
      <trkpt lat="51.25729" lon="6.73438">
        <ele>73.696229</ele>
        <time>2021-08-05T08:44:50.000Z</time>
      </trkpt>
      <trkpt lat="51.25734" lon="6.73413">
        <ele>73.595384</ele>
        <time>2021-08-05T08:44:55.000Z</time>
      </trkpt>
      <trkpt lat="51.2574" lon="6.73389">
        <ele>73.499425</ele>
        <time>2021-08-05T08:45:00.000Z</time>
      </trkpt>
      <trkpt lat="51.25744" lon="6.73376">
        <ele>73.461458</ele>
        <time>2021-08-05T08:45:01.000Z</time>
      </trkpt>
      <trkpt lat="51.25746" lon="6.7337">
        <ele>73.443051</ele>
        <time>2021-08-05T08:45:02.000Z</time>
      </trkpt>
      <trkpt lat="51.25751" lon="6.73356">
        <ele>73.404376</ele>
        <time>2021-08-05T08:45:04.000Z</time>
      </trkpt>
      <trkpt lat="51.25764" lon="6.73321">
        <ele>73.301892</ele>
        <time>2021-08-05T08:45:10.000Z</time>
      </trkpt>
      <trkpt lat="51.25765" lon="6.73315">
        <ele>73.286948</ele>
        <time>2021-08-05T08:45:11.000Z</time>
      </trkpt>
      <trkpt lat="51.25769" lon="6.73301">
        <ele>73.246755</ele>
        <time>2021-08-05T08:45:14.000Z</time>
      </trkpt>
      <trkpt lat="51.25773" lon="6.73288">
        <ele>73.211965</ele>
        <time>2021-08-05T08:45:17.000Z</time>
      </trkpt>
      <trkpt lat="51.25775" lon="6.73284">
        <ele>73.20001</ele>
        <time>2021-08-05T08:45:18.000Z</time>
      </trkpt>
      <trkpt lat="51.25781" lon="6.73258">
        <ele>73.130279</ele>
        <time>2021-08-05T08:45:25.000Z</time>
      </trkpt>
      <trkpt lat="51.25785" lon="6.73246">
        <ele>73.097095</ele>
        <time>2021-08-05T08:45:27.000Z</time>
      </trkpt>
      <trkpt lat="51.25788" lon="6.73227">
        <ele>73.048814</ele>
        <time>2021-08-05T08:45:33.000Z</time>
      </trkpt>
      <trkpt lat="51.25788" lon="6.73204">
        <ele>72.991519</ele>
        <time>2021-08-05T08:45:39.000Z</time>
      </trkpt>
      <trkpt lat="51.25792" lon="6.73171">
        <ele>72.906326</ele>
        <time>2021-08-05T08:45:45.000Z</time>
      </trkpt>
      <trkpt lat="51.258" lon="6.73142">
        <ele>72.827166</ele>
        <time>2021-08-05T08:45:50.000Z</time>
      </trkpt>
      <trkpt lat="51.25809" lon="6.73123">
        <ele>72.793855</ele>
        <time>2021-08-05T08:45:53.000Z</time>
      </trkpt>
      <trkpt lat="51.25811" lon="6.73122">
        <ele>72.817367</ele>
        <time>2021-08-05T08:45:54.000Z</time>
      </trkpt>
      <trkpt lat="51.25813" lon="6.73122">
        <ele>72.832344</ele>
        <time>2021-08-05T08:45:56.000Z</time>
      </trkpt>
      <trkpt lat="51.25815" lon="6.73123">
        <ele>72.854193</ele>
        <time>2021-08-05T08:45:58.000Z</time>
      </trkpt>
      <trkpt lat="51.25815" lon="6.73123">
        <ele>72.854193</ele>
        <time>2021-08-05T08:46:08.000Z</time>
      </trkpt>
      <trkpt lat="51.25815" lon="6.73123">
        <ele>72.854193</ele>
        <time>2021-08-05T08:46:12.000Z</time>
      </trkpt>
      <trkpt lat="51.25815" lon="6.73123">
        <ele>72.854193</ele>
        <time>2021-08-05T08:46:21.000Z</time>
      </trkpt>
      <trkpt lat="51.25815" lon="6.73123">
        <ele>72.854193</ele>
        <time>2021-08-05T08:46:24.000Z</time>
      </trkpt>
      <trkpt lat="51.25815" lon="6.73123">
        <ele>72.854193</ele>
        <time>2021-08-05T08:46:26.000Z</time>
      </trkpt>
      <trkpt lat="51.25816" lon="6.73119">
        <ele>72.877608</ele>
        <time>2021-08-05T08:46:32.000Z</time>
      </trkpt>
      <trkpt lat="51.25817" lon="6.73111">
        <ele>72.927502</ele>
        <time>2021-08-05T08:46:34.000Z</time>
      </trkpt>
      <trkpt lat="51.25826" lon="6.73083">
        <ele>73.108712</ele>
        <time>2021-08-05T08:46:39.000Z</time>
      </trkpt>
      <trkpt lat="51.25827" lon="6.73077">
        <ele>73.147983</ele>
        <time>2021-08-05T08:46:40.000Z</time>
      </trkpt>
      <trkpt lat="51.25837" lon="6.73035">
        <ele>73.409874</ele>
        <time>2021-08-05T08:46:47.000Z</time>
      </trkpt>
      <trkpt lat="51.25837" lon="6.73035">
        <ele>73.409874</ele>
        <time>2021-08-05T08:46:48.000Z</time>
      </trkpt>
      <trkpt lat="51.25838" lon="6.7302">
        <ele>73.495971</ele>
        <time>2021-08-05T08:46:50.000Z</time>
      </trkpt>
      <trkpt lat="51.25837" lon="6.73016">
        <ele>73.523309</ele>
        <time>2021-08-05T08:46:51.000Z</time>
      </trkpt>
      <trkpt lat="51.25835" lon="6.73013">
        <ele>73.547037</ele>
        <time>2021-08-05T08:46:52.000Z</time>
      </trkpt>
      <trkpt lat="51.25832" lon="6.73013">
        <ele>73.579887</ele>
        <time>2021-08-05T08:46:54.000Z</time>
      </trkpt>
      <trkpt lat="51.2583" lon="6.73023">
        <ele>73.641532</ele>
        <time>2021-08-05T08:46:57.000Z</time>
      </trkpt>
      <trkpt lat="51.25837" lon="6.73045">
        <ele>73.79101</ele>
        <time>2021-08-05T08:47:02.000Z</time>
      </trkpt>
      <trkpt lat="51.25838" lon="6.73047">
        <ele>73.799102</ele>
        <time>2021-08-05T08:47:03.000Z</time>
      </trkpt>
      <trkpt lat="51.25839" lon="6.73051">
        <ele>73.826985</ele>
        <time>2021-08-05T08:47:05.000Z</time>
      </trkpt>
      <trkpt lat="51.25842" lon="6.73062">
        <ele>73.897298</ele>
        <time>2021-08-05T08:47:10.000Z</time>
      </trkpt>
      <trkpt lat="51.25843" lon="6.73063">
        <ele>73.908831</ele>
        <time>2021-08-05T08:47:12.000Z</time>
      </trkpt>
      <trkpt lat="51.25844" lon="6.73063">
        <ele>73.922357</ele>
        <time>2021-08-05T08:47:13.000Z</time>
      </trkpt>
      <trkpt lat="51.25846" lon="6.73059">
        <ele>73.949091</ele>
        <time>2021-08-05T08:47:16.000Z</time>
      </trkpt>
      <trkpt lat="51.2585" lon="6.73039">
        <ele>74.073762</ele>
        <time>2021-08-05T08:47:22.000Z</time>
      </trkpt>
      <trkpt lat="51.25857" lon="6.73004">
        <ele>74.286397</ele>
        <time>2021-08-05T08:47:28.000Z</time>
      </trkpt>
      <trkpt lat="51.25857" lon="6.73004">
        <ele>74.286397</ele>
        <time>2021-08-05T08:47:29.000Z</time>
      </trkpt>
      <trkpt lat="51.25863" lon="6.72978">
        <ele>74.446307</ele>
        <time>2021-08-05T08:47:33.000Z</time>
      </trkpt>
      <trkpt lat="51.25869" lon="6.72954">
        <ele>74.488714</ele>
        <time>2021-08-05T08:47:36.000Z</time>
      </trkpt>
      <trkpt lat="51.2588" lon="6.72912">
        <ele>74.552324</ele>
        <time>2021-08-05T08:47:43.000Z</time>
      </trkpt>
      <trkpt lat="51.25884" lon="6.72899">
        <ele>74.573137</ele>
        <time>2021-08-05T08:47:45.000Z</time>
      </trkpt>
      <trkpt lat="51.25886" lon="6.72893">
        <ele>74.582159</ele>
        <time>2021-08-05T08:47:46.000Z</time>
      </trkpt>
      <trkpt lat="51.25891" lon="6.72884">
        <ele>74.597957</ele>
        <time>2021-08-05T08:47:48.000Z</time>
      </trkpt>
      <trkpt lat="51.25892" lon="6.72878">
        <ele>74.607585</ele>
        <time>2021-08-05T08:47:50.000Z</time>
      </trkpt>
      <trkpt lat="51.25898" lon="6.72858">
        <ele>74.638867</ele>
        <time>2021-08-05T08:47:53.000Z</time>
      </trkpt>
      <trkpt lat="51.25901" lon="6.72848">
        <ele>74.653955</ele>
        <time>2021-08-05T08:47:55.000Z</time>
      </trkpt>
      <trkpt lat="51.25906" lon="6.72831">
        <ele>74.679574</ele>
        <time>2021-08-05T08:47:58.000Z</time>
      </trkpt>
      <trkpt lat="51.25909" lon="6.72819">
        <ele>74.697759</ele>
        <time>2021-08-05T08:48:00.000Z</time>
      </trkpt>
      <trkpt lat="51.2592" lon="6.72774">
        <ele>74.766246</ele>
        <time>2021-08-05T08:48:08.000Z</time>
      </trkpt>
      <trkpt lat="51.25928" lon="6.72739">
        <ele>74.817138</ele>
        <time>2021-08-05T08:48:15.000Z</time>
      </trkpt>
      <trkpt lat="51.25934" lon="6.72705">
        <ele>74.870769</ele>
        <time>2021-08-05T08:48:20.000Z</time>
      </trkpt>
      <trkpt lat="51.25945" lon="6.72662">
        <ele>74.959573</ele>
        <time>2021-08-05T08:48:28.000Z</time>
      </trkpt>
      <trkpt lat="51.25953" lon="6.72644">
        <ele>75.000117</ele>
        <time>2021-08-05T08:48:33.000Z</time>
      </trkpt>
      <trkpt lat="51.25956" lon="6.72633">
        <ele>75.024137</ele>
        <time>2021-08-05T08:48:34.000Z</time>
      </trkpt>
      <trkpt lat="51.25968" lon="6.72613">
        <ele>75.076785</ele>
        <time>2021-08-05T08:48:38.000Z</time>
      </trkpt>
      <trkpt lat="51.25972" lon="6.72608">
        <ele>75.091596</ele>
        <time>2021-08-05T08:48:39.000Z</time>
      </trkpt>
      <trkpt lat="51.25977" lon="6.72597">
        <ele>75.117682</ele>
        <time>2021-08-05T08:48:41.000Z</time>
      </trkpt>
      <trkpt lat="51.25982" lon="6.7259">
        <ele>75.137753</ele>
        <time>2021-08-05T08:48:43.000Z</time>
      </trkpt>
      <trkpt lat="51.25987" lon="6.72573">
        <ele>75.174327</ele>
        <time>2021-08-05T08:48:46.000Z</time>
      </trkpt>
      <trkpt lat="51.25991" lon="6.72562">
        <ele>75.197262</ele>
        <time>2021-08-05T08:48:49.000Z</time>
      </trkpt>
      <trkpt lat="51.26" lon="6.72537">
        <ele>75.251152</ele>
        <time>2021-08-05T08:48:52.000Z</time>
      </trkpt>
      <trkpt lat="51.26008" lon="6.72511">
        <ele>75.307881</ele>
        <time>2021-08-05T08:48:56.000Z</time>
      </trkpt>
      <trkpt lat="51.26015" lon="6.72491">
        <ele>75.350477</ele>
        <time>2021-08-05T08:48:59.000Z</time>
      </trkpt>
      <trkpt lat="51.2602" lon="6.72473">
        <ele>75.3879</ele>
        <time>2021-08-05T08:49:01.000Z</time>
      </trkpt>
      <trkpt lat="51.2603" lon="6.72439">
        <ele>75.417997</ele>
        <time>2021-08-05T08:49:05.000Z</time>
      </trkpt>
      <trkpt lat="51.26034" lon="6.72425">
        <ele>75.426003</ele>
        <time>2021-08-05T08:49:07.000Z</time>
      </trkpt>
      <trkpt lat="51.26037" lon="6.72417">
        <ele>75.430526</ele>
        <time>2021-08-05T08:49:08.000Z</time>
      </trkpt>
      <trkpt lat="51.26037" lon="6.72417">
        <ele>75.430526</ele>
        <time>2021-08-05T08:49:09.000Z</time>
      </trkpt>
      <trkpt lat="51.26056" lon="6.72359">
        <ele>75.462549</ele>
        <time>2021-08-05T08:49:15.000Z</time>
      </trkpt>
      <trkpt lat="51.2606" lon="6.72344">
        <ele>75.470406</ele>
        <time>2021-08-05T08:49:17.000Z</time>
      </trkpt>
      <trkpt lat="51.26062" lon="6.72335">
        <ele>75.474968</ele>
        <time>2021-08-05T08:49:18.000Z</time>
      </trkpt>
      <trkpt lat="51.26079" lon="6.72282">
        <ele>75.504455</ele>
        <time>2021-08-05T08:49:25.000Z</time>
      </trkpt>
      <trkpt lat="51.26086" lon="6.7226">
        <ele>75.515981</ele>
        <time>2021-08-05T08:49:29.000Z</time>
      </trkpt>
      <trkpt lat="51.26096" lon="6.72224">
        <ele>75.53566</ele>
        <time>2021-08-05T08:49:34.000Z</time>
      </trkpt>
      <trkpt lat="51.26104" lon="6.722">
        <ele>75.548908</ele>
        <time>2021-08-05T08:49:36.000Z</time>
      </trkpt>
      <trkpt lat="51.26107" lon="6.72192">
        <ele>75.552961</ele>
        <time>2021-08-05T08:49:37.000Z</time>
      </trkpt>
      <trkpt lat="51.26118" lon="6.72157">
        <ele>75.571393</ele>
        <time>2021-08-05T08:49:42.000Z</time>
      </trkpt>
      <trkpt lat="51.26128" lon="6.72126">
        <ele>75.587907</ele>
        <time>2021-08-05T08:49:46.000Z</time>
      </trkpt>
      <trkpt lat="51.26132" lon="6.72113">
        <ele>75.594723</ele>
        <time>2021-08-05T08:49:48.000Z</time>
      </trkpt>
      <trkpt lat="51.26139" lon="6.72091">
        <ele>75.60645</ele>
        <time>2021-08-05T08:49:52.000Z</time>
      </trkpt>
      <trkpt lat="51.26157" lon="6.72034">
        <ele>75.63643</ele>
        <time>2021-08-05T08:49:59.000Z</time>
      </trkpt>
      <trkpt lat="51.26164" lon="6.72013">
        <ele>75.647585</ele>
        <time>2021-08-05T08:50:02.000Z</time>
      </trkpt>
      <trkpt lat="51.26168" lon="6.71999">
        <ele>75.655066</ele>
        <time>2021-08-05T08:50:04.000Z</time>
      </trkpt>
      <trkpt lat="51.26172" lon="6.71983">
        <ele>75.663164</ele>
        <time>2021-08-05T08:50:06.000Z</time>
      </trkpt>
      <trkpt lat="51.26174" lon="6.71976">
        <ele>75.66716</ele>
        <time>2021-08-05T08:50:07.000Z</time>
      </trkpt>
      <trkpt lat="51.26196" lon="6.71909">
        <ele>75.671308</ele>
        <time>2021-08-05T08:50:17.000Z</time>
      </trkpt>
      <trkpt lat="51.26208" lon="6.71871">
        <ele>75.663399</ele>
        <time>2021-08-05T08:50:23.000Z</time>
      </trkpt>
      <trkpt lat="51.26215" lon="6.71844">
        <ele>75.658001</ele>
        <time>2021-08-05T08:50:27.000Z</time>
      </trkpt>
      <trkpt lat="51.26234" lon="6.71788">
        <ele>75.646243</ele>
        <time>2021-08-05T08:50:36.000Z</time>
      </trkpt>
      <trkpt lat="51.26254" lon="6.71731">
        <ele>75.634172</ele>
        <time>2021-08-05T08:50:43.000Z</time>
      </trkpt>
      <trkpt lat="51.26256" lon="6.71725">
        <ele>75.632741</ele>
        <time>2021-08-05T08:50:44.000Z</time>
      </trkpt>
      <trkpt lat="51.26276" lon="6.71675">
        <ele>75.623856</ele>
        <time>2021-08-05T08:50:51.000Z</time>
      </trkpt>
      <trkpt lat="51.26302" lon="6.71618">
        <ele>75.616089</ele>
        <time>2021-08-05T08:50:59.000Z</time>
      </trkpt>
      <trkpt lat="51.26305" lon="6.71611">
        <ele>75.615184</ele>
        <time>2021-08-05T08:51:00.000Z</time>
      </trkpt>
      <trkpt lat="51.26322" lon="6.71573">
        <ele>75.610084</ele>
        <time>2021-08-05T08:51:07.000Z</time>
      </trkpt>
      <trkpt lat="51.26351" lon="6.71511">
        <ele>75.601732</ele>
        <time>2021-08-05T08:51:16.000Z</time>
      </trkpt>
      <trkpt lat="51.26357" lon="6.71498">
        <ele>75.59998</ele>
        <time>2021-08-05T08:51:19.000Z</time>
      </trkpt>
      <trkpt lat="51.26396" lon="6.71432">
        <ele>75.604738</ele>
        <time>2021-08-05T08:51:30.000Z</time>
      </trkpt>
      <trkpt lat="51.26436" lon="6.71371">
        <ele>75.621215</ele>
        <time>2021-08-05T08:51:43.000Z</time>
      </trkpt>
      <trkpt lat="51.2644" lon="6.71366">
        <ele>75.622619</ele>
        <time>2021-08-05T08:51:44.000Z</time>
      </trkpt>
      <trkpt lat="51.26482" lon="6.71312">
        <ele>75.638566</ele>
        <time>2021-08-05T08:51:55.000Z</time>
      </trkpt>
      <trkpt lat="51.26526" lon="6.71262">
        <ele>75.655724</ele>
        <time>2021-08-05T08:52:06.000Z</time>
      </trkpt>
      <trkpt lat="51.26554" lon="6.71234">
        <ele>75.667365</ele>
        <time>2021-08-05T08:52:13.000Z</time>
      </trkpt>
      <trkpt lat="51.26577" lon="6.71213">
        <ele>75.676687</ele>
        <time>2021-08-05T08:52:19.000Z</time>
      </trkpt>
      <trkpt lat="51.26585" lon="6.71207">
        <ele>75.679747</ele>
        <time>2021-08-05T08:52:21.000Z</time>
      </trkpt>
      <trkpt lat="51.26593" lon="6.71201">
        <ele>75.682795</ele>
        <time>2021-08-05T08:52:23.000Z</time>
      </trkpt>
      <trkpt lat="51.26613" lon="6.71186">
        <ele>75.69044</ele>
        <time>2021-08-05T08:52:28.000Z</time>
      </trkpt>
      <trkpt lat="51.26617" lon="6.71184">
        <ele>75.692046</ele>
        <time>2021-08-05T08:52:29.000Z</time>
      </trkpt>
      <trkpt lat="51.2667" lon="6.71149">
        <ele>75.712238</ele>
        <time>2021-08-05T08:52:41.000Z</time>
      </trkpt>
      <trkpt lat="51.26675" lon="6.71146">
        <ele>75.715531</ele>
        <time>2021-08-05T08:52:42.000Z</time>
      </trkpt>
      <trkpt lat="51.26706" lon="6.71128">
        <ele>75.737764</ele>
        <time>2021-08-05T08:52:49.000Z</time>
      </trkpt>
      <trkpt lat="51.26755" lon="6.71111">
        <ele>75.770433</ele>
        <time>2021-08-05T08:52:59.000Z</time>
      </trkpt>
      <trkpt lat="51.26775" lon="6.71105">
        <ele>75.784295</ele>
        <time>2021-08-05T08:53:03.000Z</time>
      </trkpt>
      <trkpt lat="51.26798" lon="6.71097">
        <ele>75.799766</ele>
        <time>2021-08-05T08:53:08.000Z</time>
      </trkpt>
      <trkpt lat="51.26816" lon="6.71092">
        <ele>75.811821</ele>
        <time>2021-08-05T08:53:12.000Z</time>
      </trkpt>
      <trkpt lat="51.2683" lon="6.71088">
        <ele>75.820834</ele>
        <time>2021-08-05T08:53:15.000Z</time>
      </trkpt>
      <trkpt lat="51.26879" lon="6.71084">
        <ele>75.803658</ele>
        <time>2021-08-05T08:53:25.000Z</time>
      </trkpt>
      <trkpt lat="51.26932" lon="6.71085">
        <ele>75.76292</ele>
        <time>2021-08-05T08:53:35.000Z</time>
      </trkpt>
      <trkpt lat="51.26984" lon="6.7109">
        <ele>75.722718</ele>
        <time>2021-08-05T08:53:46.000Z</time>
      </trkpt>
      <trkpt lat="51.27002" lon="6.71092">
        <ele>75.70827</ele>
        <time>2021-08-05T08:53:50.000Z</time>
      </trkpt>
      <trkpt lat="51.27048" lon="6.71099">
        <ele>75.645988</ele>
        <time>2021-08-05T08:53:59.000Z</time>
      </trkpt>
      <trkpt lat="51.27077" lon="6.71103">
        <ele>75.592718</ele>
        <time>2021-08-05T08:54:04.000Z</time>
      </trkpt>
      <trkpt lat="51.27095" lon="6.71105">
        <ele>75.558366</ele>
        <time>2021-08-05T08:54:07.000Z</time>
      </trkpt>
      <trkpt lat="51.27119" lon="6.71108">
        <ele>75.513402</ele>
        <time>2021-08-05T08:54:11.000Z</time>
      </trkpt>
      <trkpt lat="51.27142" lon="6.71113">
        <ele>75.469243</ele>
        <time>2021-08-05T08:54:15.000Z</time>
      </trkpt>
      <trkpt lat="51.27197" lon="6.71136">
        <ele>75.364418</ele>
        <time>2021-08-05T08:54:24.000Z</time>
      </trkpt>
      <trkpt lat="51.2724" lon="6.71155">
        <ele>75.365877</ele>
        <time>2021-08-05T08:54:32.000Z</time>
      </trkpt>
      <trkpt lat="51.27263" lon="6.71165">
        <ele>75.372276</ele>
        <time>2021-08-05T08:54:36.000Z</time>
      </trkpt>
      <trkpt lat="51.2729" lon="6.7118">
        <ele>75.379995</ele>
        <time>2021-08-05T08:54:41.000Z</time>
      </trkpt>
      <trkpt lat="51.2729" lon="6.7118">
        <ele>75.379995</ele>
        <time>2021-08-05T08:54:42.000Z</time>
      </trkpt>
      <trkpt lat="51.27325" lon="6.71201">
        <ele>75.389988</ele>
        <time>2021-08-05T08:54:48.000Z</time>
      </trkpt>
      <trkpt lat="51.2733" lon="6.71203">
        <ele>75.391429</ele>
        <time>2021-08-05T08:54:49.000Z</time>
      </trkpt>
      <trkpt lat="51.27335" lon="6.71206">
        <ele>75.392822</ele>
        <time>2021-08-05T08:54:50.000Z</time>
      </trkpt>
      <trkpt lat="51.27339" lon="6.71208">
        <ele>75.394215</ele>
        <time>2021-08-05T08:54:51.000Z</time>
      </trkpt>
      <trkpt lat="51.27378" lon="6.71229">
        <ele>75.352932</ele>
        <time>2021-08-05T08:54:59.000Z</time>
      </trkpt>
      <trkpt lat="51.27388" lon="6.71235">
        <ele>75.263373</ele>
        <time>2021-08-05T08:55:01.000Z</time>
      </trkpt>
      <trkpt lat="51.27415" lon="6.71249">
        <ele>75.013809</ele>
        <time>2021-08-05T08:55:07.000Z</time>
      </trkpt>
      <trkpt lat="51.27428" lon="6.71257">
        <ele>74.895623</ele>
        <time>2021-08-05T08:55:10.000Z</time>
      </trkpt>
      <trkpt lat="51.27441" lon="6.71263">
        <ele>74.778859</ele>
        <time>2021-08-05T08:55:13.000Z</time>
      </trkpt>
      <trkpt lat="51.27449" lon="6.71267">
        <ele>74.707019</ele>
        <time>2021-08-05T08:55:15.000Z</time>
      </trkpt>
      <trkpt lat="51.27455" lon="6.71275">
        <ele>74.63963</ele>
        <time>2021-08-05T08:55:17.000Z</time>
      </trkpt>
      <trkpt lat="51.27464" lon="6.71289">
        <ele>74.530761</ele>
        <time>2021-08-05T08:55:20.000Z</time>
      </trkpt>
      <trkpt lat="51.27477" lon="6.713">
        <ele>74.398574</ele>
        <time>2021-08-05T08:55:23.000Z</time>
      </trkpt>
      <trkpt lat="51.27488" lon="6.71308">
        <ele>74.297068</ele>
        <time>2021-08-05T08:55:25.000Z</time>
      </trkpt>
      <trkpt lat="51.27506" lon="6.71319">
        <ele>74.125184</ele>
        <time>2021-08-05T08:55:28.000Z</time>
      </trkpt>
      <trkpt lat="51.27525" lon="6.7133">
        <ele>73.951181</ele>
        <time>2021-08-05T08:55:31.000Z</time>
      </trkpt>
      <trkpt lat="51.2753" lon="6.71334">
        <ele>73.905763</ele>
        <time>2021-08-05T08:55:33.000Z</time>
      </trkpt>
      <trkpt lat="51.27561" lon="6.71351">
        <ele>73.958644</ele>
        <time>2021-08-05T08:55:37.000Z</time>
      </trkpt>
      <trkpt lat="51.27573" lon="6.71356">
        <ele>74.010334</ele>
        <time>2021-08-05T08:55:39.000Z</time>
      </trkpt>
      <trkpt lat="51.27578" lon="6.71358">
        <ele>74.032227</ele>
        <time>2021-08-05T08:55:40.000Z</time>
      </trkpt>
      <trkpt lat="51.27589" lon="6.71363">
        <ele>74.083772</ele>
        <time>2021-08-05T08:55:43.000Z</time>
      </trkpt>
      <trkpt lat="51.27593" lon="6.71364">
        <ele>74.101226</ele>
        <time>2021-08-05T08:55:44.000Z</time>
      </trkpt>
      <trkpt lat="51.27608" lon="6.71368">
        <ele>74.168626</ele>
        <time>2021-08-05T08:55:48.000Z</time>
      </trkpt>
      <trkpt lat="51.27613" lon="6.71369">
        <ele>74.187856</ele>
        <time>2021-08-05T08:55:50.000Z</time>
      </trkpt>
      <trkpt lat="51.2763" lon="6.71369">
        <ele>74.262962</ele>
        <time>2021-08-05T08:55:53.000Z</time>
      </trkpt>
      <trkpt lat="51.27638" lon="6.71374">
        <ele>74.300085</ele>
        <time>2021-08-05T08:55:55.000Z</time>
      </trkpt>
      <trkpt lat="51.27666" lon="6.71396">
        <ele>74.43541</ele>
        <time>2021-08-05T08:56:02.000Z</time>
      </trkpt>
      <trkpt lat="51.27674" lon="6.71402">
        <ele>74.476009</ele>
        <time>2021-08-05T08:56:04.000Z</time>
      </trkpt>
      <trkpt lat="51.27683" lon="6.7141">
        <ele>74.518785</ele>
        <time>2021-08-05T08:56:06.000Z</time>
      </trkpt>
      <trkpt lat="51.27686" lon="6.71414">
        <ele>74.538728</ele>
        <time>2021-08-05T08:56:08.000Z</time>
      </trkpt>
      <trkpt lat="51.277" lon="6.71427">
        <ele>74.608432</ele>
        <time>2021-08-05T08:56:10.000Z</time>
      </trkpt>
      <trkpt lat="51.2771" lon="6.71435">
        <ele>74.638977</ele>
        <time>2021-08-05T08:56:12.000Z</time>
      </trkpt>
      <trkpt lat="51.27725" lon="6.71454">
        <ele>74.668452</ele>
        <time>2021-08-05T08:56:16.000Z</time>
      </trkpt>
      <trkpt lat="51.27734" lon="6.71463">
        <ele>74.683803</ele>
        <time>2021-08-05T08:56:18.000Z</time>
      </trkpt>
      <trkpt lat="51.27738" lon="6.71467">
        <ele>74.691724</ele>
        <time>2021-08-05T08:56:19.000Z</time>
      </trkpt>
      <trkpt lat="51.27758" lon="6.71492">
        <ele>74.72957</ele>
        <time>2021-08-05T08:56:24.000Z</time>
      </trkpt>
      <trkpt lat="51.27766" lon="6.71502">
        <ele>74.745949</ele>
        <time>2021-08-05T08:56:27.000Z</time>
      </trkpt>
      <trkpt lat="51.27774" lon="6.71511">
        <ele>74.761047</ele>
        <time>2021-08-05T08:56:28.000Z</time>
      </trkpt>
      <trkpt lat="51.27786" lon="6.71525">
        <ele>74.783655</ele>
        <time>2021-08-05T08:56:31.000Z</time>
      </trkpt>
      <trkpt lat="51.27796" lon="6.71539">
        <ele>74.803771</ele>
        <time>2021-08-05T08:56:34.000Z</time>
      </trkpt>
      <trkpt lat="51.27835" lon="6.71585">
        <ele>74.877096</ele>
        <time>2021-08-05T08:56:44.000Z</time>
      </trkpt>
      <trkpt lat="51.27839" lon="6.71592">
        <ele>74.886201</ele>
        <time>2021-08-05T08:56:45.000Z</time>
      </trkpt>
      <trkpt lat="51.27847" lon="6.71601">
        <ele>74.900956</ele>
        <time>2021-08-05T08:56:47.000Z</time>
      </trkpt>
      <trkpt lat="51.2785" lon="6.71605">
        <ele>74.907274</ele>
        <time>2021-08-05T08:56:49.000Z</time>
      </trkpt>
      <trkpt lat="51.27875" lon="6.71631">
        <ele>74.95563</ele>
        <time>2021-08-05T08:56:54.000Z</time>
      </trkpt>
      <trkpt lat="51.27891" lon="6.7165">
        <ele>74.987517</ele>
        <time>2021-08-05T08:56:58.000Z</time>
      </trkpt>
      <trkpt lat="51.279" lon="6.7166">
        <ele>75.004787</ele>
        <time>2021-08-05T08:57:01.000Z</time>
      </trkpt>
      <trkpt lat="51.27916" lon="6.71678">
        <ele>75.036745</ele>
        <time>2021-08-05T08:57:04.000Z</time>
      </trkpt>
      <trkpt lat="51.27924" lon="6.71687">
        <ele>75.052519</ele>
        <time>2021-08-05T08:57:06.000Z</time>
      </trkpt>
      <trkpt lat="51.27946" lon="6.71713">
        <ele>75.097498</ele>
        <time>2021-08-05T08:57:12.000Z</time>
      </trkpt>
      <trkpt lat="51.2795" lon="6.71718">
        <ele>75.105022</ele>
        <time>2021-08-05T08:57:14.000Z</time>
      </trkpt>
      <trkpt lat="51.27964" lon="6.71736">
        <ele>75.134482</ele>
        <time>2021-08-05T08:57:17.000Z</time>
      </trkpt>
      <trkpt lat="51.27987" lon="6.71761">
        <ele>75.179192</ele>
        <time>2021-08-05T08:57:23.000Z</time>
      </trkpt>
      <trkpt lat="51.28001" lon="6.7178">
        <ele>75.197947</ele>
        <time>2021-08-05T08:57:27.000Z</time>
      </trkpt>
      <trkpt lat="51.28013" lon="6.71796">
        <ele>75.203295</ele>
        <time>2021-08-05T08:57:31.000Z</time>
      </trkpt>
      <trkpt lat="51.28028" lon="6.71814">
        <ele>75.209592</ele>
        <time>2021-08-05T08:57:34.000Z</time>
      </trkpt>
      <trkpt lat="51.28032" lon="6.71818">
        <ele>75.211229</ele>
        <time>2021-08-05T08:57:35.000Z</time>
      </trkpt>
      <trkpt lat="51.28069" lon="6.71864">
        <ele>75.227495</ele>
        <time>2021-08-05T08:57:45.000Z</time>
      </trkpt>
      <trkpt lat="51.28112" lon="6.71915">
        <ele>75.245711</ele>
        <time>2021-08-05T08:57:57.000Z</time>
      </trkpt>
      <trkpt lat="51.28156" lon="6.71967">
        <ele>75.228797</ele>
        <time>2021-08-05T08:58:08.000Z</time>
      </trkpt>
      <trkpt lat="51.28171" lon="6.71983">
        <ele>75.207618</ele>
        <time>2021-08-05T08:58:12.000Z</time>
      </trkpt>
      <trkpt lat="51.28181" lon="6.71995">
        <ele>75.193264</ele>
        <time>2021-08-05T08:58:16.000Z</time>
      </trkpt>
      <trkpt lat="51.28199" lon="6.72015">
        <ele>75.166839</ele>
        <time>2021-08-05T08:58:20.000Z</time>
      </trkpt>
      <trkpt lat="51.28211" lon="6.72027">
        <ele>75.151042</ele>
        <time>2021-08-05T08:58:23.000Z</time>
      </trkpt>
      <trkpt lat="51.2823" lon="6.72048">
        <ele>75.123575</ele>
        <time>2021-08-05T08:58:28.000Z</time>
      </trkpt>
      <trkpt lat="51.28234" lon="6.72052">
        <ele>75.118157</ele>
        <time>2021-08-05T08:58:29.000Z</time>
      </trkpt>
      <trkpt lat="51.28273" lon="6.72092">
        <ele>75.063252</ele>
        <time>2021-08-05T08:58:39.000Z</time>
      </trkpt>
      <trkpt lat="51.2829" lon="6.72109">
        <ele>75.039694</ele>
        <time>2021-08-05T08:58:43.000Z</time>
      </trkpt>
      <trkpt lat="51.28323" lon="6.7214">
        <ele>74.990792</ele>
        <time>2021-08-05T08:58:51.000Z</time>
      </trkpt>
      <trkpt lat="51.28365" lon="6.72179">
        <ele>74.930833</ele>
        <time>2021-08-05T08:59:02.000Z</time>
      </trkpt>
      <trkpt lat="51.2841" lon="6.72219">
        <ele>74.865555</ele>
        <time>2021-08-05T08:59:13.000Z</time>
      </trkpt>
      <trkpt lat="51.28423" lon="6.7223">
        <ele>74.847079</ele>
        <time>2021-08-05T08:59:16.000Z</time>
      </trkpt>
      <trkpt lat="51.28431" lon="6.72236">
        <ele>74.836236</ele>
        <time>2021-08-05T08:59:18.000Z</time>
      </trkpt>
      <trkpt lat="51.28448" lon="6.72252">
        <ele>74.821073</ele>
        <time>2021-08-05T08:59:23.000Z</time>
      </trkpt>
      <trkpt lat="51.2849" lon="6.72289">
        <ele>74.835778</ele>
        <time>2021-08-05T08:59:32.000Z</time>
      </trkpt>
      <trkpt lat="51.28524" lon="6.72319">
        <ele>74.847531</ele>
        <time>2021-08-05T08:59:40.000Z</time>
      </trkpt>
      <trkpt lat="51.28571" lon="6.72363">
        <ele>74.8643</ele>
        <time>2021-08-05T08:59:50.000Z</time>
      </trkpt>
      <trkpt lat="51.28576" lon="6.72368">
        <ele>74.865949</ele>
        <time>2021-08-05T08:59:51.000Z</time>
      </trkpt>
      <trkpt lat="51.2859" lon="6.7238">
        <ele>74.871076</ele>
        <time>2021-08-05T08:59:54.000Z</time>
      </trkpt>
      <trkpt lat="51.28606" lon="6.72393">
        <ele>74.864827</ele>
        <time>2021-08-05T08:59:57.000Z</time>
      </trkpt>
      <trkpt lat="51.28633" lon="6.72416">
        <ele>74.822298</ele>
        <time>2021-08-05T09:00:03.000Z</time>
      </trkpt>
      <trkpt lat="51.28649" lon="6.7243">
        <ele>74.797508</ele>
        <time>2021-08-05T09:00:07.000Z</time>
      </trkpt>
      <trkpt lat="51.2867" lon="6.72449">
        <ele>74.762593</ele>
        <time>2021-08-05T09:00:12.000Z</time>
      </trkpt>
      <trkpt lat="51.28713" lon="6.72487">
        <ele>74.695594</ele>
        <time>2021-08-05T09:00:22.000Z</time>
      </trkpt>
      <trkpt lat="51.2876" lon="6.72526">
        <ele>74.626298</ele>
        <time>2021-08-05T09:00:33.000Z</time>
      </trkpt>
      <trkpt lat="51.28804" lon="6.72563">
        <ele>74.657965</ele>
        <time>2021-08-05T09:00:43.000Z</time>
      </trkpt>
      <trkpt lat="51.28843" lon="6.7259">
        <ele>74.684814</ele>
        <time>2021-08-05T09:00:52.000Z</time>
      </trkpt>
      <trkpt lat="51.28878" lon="6.7261">
        <ele>74.708523</ele>
        <time>2021-08-05T09:01:01.000Z</time>
      </trkpt>
      <trkpt lat="51.289" lon="6.72622">
        <ele>74.723038</ele>
        <time>2021-08-05T09:01:05.000Z</time>
      </trkpt>
      <trkpt lat="51.28927" lon="6.72633">
        <ele>74.718861</ele>
        <time>2021-08-05T09:01:11.000Z</time>
      </trkpt>
      <trkpt lat="51.28974" lon="6.72648">
        <ele>74.370584</ele>
        <time>2021-08-05T09:01:21.000Z</time>
      </trkpt>
      <trkpt lat="51.29002" lon="6.72656">
        <ele>74.164314</ele>
        <time>2021-08-05T09:01:28.000Z</time>
      </trkpt>
      <trkpt lat="51.29023" lon="6.72663">
        <ele>74.007241</ele>
        <time>2021-08-05T09:01:31.000Z</time>
      </trkpt>
      <trkpt lat="51.29046" lon="6.72672">
        <ele>73.843013</ele>
        <time>2021-08-05T09:01:35.000Z</time>
      </trkpt>
      <trkpt lat="51.2908" lon="6.72681">
        <ele>73.591221</ele>
        <time>2021-08-05T09:01:41.000Z</time>
      </trkpt>
      <trkpt lat="51.29097" lon="6.72685">
        <ele>73.46942</ele>
        <time>2021-08-05T09:01:44.000Z</time>
      </trkpt>
      <trkpt lat="51.29102" lon="6.72687">
        <ele>73.434611</ele>
        <time>2021-08-05T09:01:45.000Z</time>
      </trkpt>
      <trkpt lat="51.29119" lon="6.72692">
        <ele>73.378087</ele>
        <time>2021-08-05T09:01:48.000Z</time>
      </trkpt>
      <trkpt lat="51.29134" lon="6.72697">
        <ele>73.330986</ele>
        <time>2021-08-05T09:01:52.000Z</time>
      </trkpt>
      <trkpt lat="51.29154" lon="6.72706">
        <ele>73.262198</ele>
        <time>2021-08-05T09:01:55.000Z</time>
      </trkpt>
      <trkpt lat="51.29201" lon="6.72728">
        <ele>73.106886</ele>
        <time>2021-08-05T09:02:04.000Z</time>
      </trkpt>
      <trkpt lat="51.29211" lon="6.72734">
        <ele>73.072798</ele>
        <time>2021-08-05T09:02:06.000Z</time>
      </trkpt>
      <trkpt lat="51.29259" lon="6.72765">
        <ele>72.907257</ele>
        <time>2021-08-05T09:02:15.000Z</time>
      </trkpt>
      <trkpt lat="51.29294" lon="6.72792">
        <ele>72.845223</ele>
        <time>2021-08-05T09:02:22.000Z</time>
      </trkpt>
      <trkpt lat="51.29318" lon="6.72812">
        <ele>72.826366</ele>
        <time>2021-08-05T09:02:27.000Z</time>
      </trkpt>
      <trkpt lat="51.29322" lon="6.72816">
        <ele>72.822494</ele>
        <time>2021-08-05T09:02:28.000Z</time>
      </trkpt>
      <trkpt lat="51.29342" lon="6.72832">
        <ele>72.807126</ele>
        <time>2021-08-05T09:02:32.000Z</time>
      </trkpt>
      <trkpt lat="51.2936" lon="6.72846">
        <ele>72.792626</ele>
        <time>2021-08-05T09:02:36.000Z</time>
      </trkpt>
      <trkpt lat="51.29369" lon="6.72853">
        <ele>72.785425</ele>
        <time>2021-08-05T09:02:38.000Z</time>
      </trkpt>
      <trkpt lat="51.29385" lon="6.72863">
        <ele>72.773844</ele>
        <time>2021-08-05T09:02:41.000Z</time>
      </trkpt>
      <trkpt lat="51.29411" lon="6.72884">
        <ele>72.752977</ele>
        <time>2021-08-05T09:02:48.000Z</time>
      </trkpt>
      <trkpt lat="51.29421" lon="6.72891">
        <ele>72.745558</ele>
        <time>2021-08-05T09:02:49.000Z</time>
      </trkpt>
      <trkpt lat="51.29431" lon="6.72898">
        <ele>72.737344</ele>
        <time>2021-08-05T09:02:51.000Z</time>
      </trkpt>
      <trkpt lat="51.29449" lon="6.72913">
        <ele>72.725692</ele>
        <time>2021-08-05T09:02:55.000Z</time>
      </trkpt>
      <trkpt lat="51.29501" lon="6.72954">
        <ele>72.691965</ele>
        <time>2021-08-05T09:03:06.000Z</time>
      </trkpt>
      <trkpt lat="51.29527" lon="6.72977">
        <ele>72.674735</ele>
        <time>2021-08-05T09:03:12.000Z</time>
      </trkpt>
      <trkpt lat="51.29531" lon="6.72981">
        <ele>72.672024</ele>
        <time>2021-08-05T09:03:14.000Z</time>
      </trkpt>
      <trkpt lat="51.2954" lon="6.72989">
        <ele>72.666211</ele>
        <time>2021-08-05T09:03:15.000Z</time>
      </trkpt>
      <trkpt lat="51.2955" lon="6.73001">
        <ele>72.658764</ele>
        <time>2021-08-05T09:03:18.000Z</time>
      </trkpt>
      <trkpt lat="51.29566" lon="6.73021">
        <ele>72.647306</ele>
        <time>2021-08-05T09:03:23.000Z</time>
      </trkpt>
      <trkpt lat="51.29575" lon="6.73036">
        <ele>72.639531</ele>
        <time>2021-08-05T09:03:25.000Z</time>
      </trkpt>
      <trkpt lat="51.29582" lon="6.73047">
        <ele>72.633877</ele>
        <time>2021-08-05T09:03:27.000Z</time>
      </trkpt>
      <trkpt lat="51.29592" lon="6.73064">
        <ele>72.560436</ele>
        <time>2021-08-05T09:03:30.000Z</time>
      </trkpt>
      <trkpt lat="51.29596" lon="6.73069">
        <ele>72.528362</ele>
        <time>2021-08-05T09:03:32.000Z</time>
      </trkpt>
      <trkpt lat="51.29613" lon="6.73102">
        <ele>72.353725</ele>
        <time>2021-08-05T09:03:37.000Z</time>
      </trkpt>
      <trkpt lat="51.29624" lon="6.7312">
        <ele>72.247105</ele>
        <time>2021-08-05T09:03:39.000Z</time>
      </trkpt>
      <trkpt lat="51.2964" lon="6.73142">
        <ele>72.110385</ele>
        <time>2021-08-05T09:03:43.000Z</time>
      </trkpt>
      <trkpt lat="51.29644" lon="6.73145">
        <ele>72.075609</ele>
        <time>2021-08-05T09:03:44.000Z</time>
      </trkpt>
      <trkpt lat="51.29644" lon="6.73145">
        <ele>72.075609</ele>
        <time>2021-08-05T09:03:45.000Z</time>
      </trkpt>
      <trkpt lat="51.29649" lon="6.73148">
        <ele>72.040345</ele>
        <time>2021-08-05T09:03:46.000Z</time>
      </trkpt>
      <trkpt lat="51.2967" lon="6.73154">
        <ele>71.90273</ele>
        <time>2021-08-05T09:03:50.000Z</time>
      </trkpt>
      <trkpt lat="51.29678" lon="6.73157">
        <ele>71.848177</ele>
        <time>2021-08-05T09:03:51.000Z</time>
      </trkpt>
      <trkpt lat="51.29688" lon="6.73163">
        <ele>71.776965</ele>
        <time>2021-08-05T09:03:54.000Z</time>
      </trkpt>
      <trkpt lat="51.2969" lon="6.73164">
        <ele>71.760857</ele>
        <time>2021-08-05T09:03:57.000Z</time>
      </trkpt>
      <trkpt lat="51.2969" lon="6.73158">
        <ele>71.737175</ele>
        <time>2021-08-05T09:04:04.000Z</time>
      </trkpt>
      <trkpt lat="51.29683" lon="6.73146">
        <ele>71.668638</ele>
        <time>2021-08-05T09:04:09.000Z</time>
      </trkpt>
      <trkpt lat="51.29669" lon="6.73124">
        <ele>71.536278</ele>
        <time>2021-08-05T09:04:14.000Z</time>
      </trkpt>
      <trkpt lat="51.29663" lon="6.73114">
        <ele>71.483523</ele>
        <time>2021-08-05T09:04:17.000Z</time>
      </trkpt>
      <trkpt lat="51.29639" lon="6.73077">
        <ele>71.64424</ele>
        <time>2021-08-05T09:04:25.000Z</time>
      </trkpt>
      <trkpt lat="51.29627" lon="6.7305">
        <ele>71.793767</ele>
        <time>2021-08-05T09:04:30.000Z</time>
      </trkpt>
      <trkpt lat="51.29617" lon="6.73032">
        <ele>71.905403</ele>
        <time>2021-08-05T09:04:34.000Z</time>
      </trkpt>
      <trkpt lat="51.29604" lon="6.73007">
        <ele>72.053044</ele>
        <time>2021-08-05T09:04:39.000Z</time>
      </trkpt>
      <trkpt lat="51.29594" lon="6.72978">
        <ele>72.205333</ele>
        <time>2021-08-05T09:04:45.000Z</time>
      </trkpt>
      <trkpt lat="51.29593" lon="6.72971">
        <ele>72.240139</ele>
        <time>2021-08-05T09:04:49.000Z</time>
      </trkpt>
      <trkpt lat="51.29592" lon="6.72969">
        <ele>72.245796</ele>
        <time>2021-08-05T09:04:52.000Z</time>
      </trkpt>
      <trkpt lat="51.29592" lon="6.72967">
        <ele>72.258848</ele>
        <time>2021-08-05T09:04:53.000Z</time>
      </trkpt>
      <trkpt lat="51.29591" lon="6.72965">
        <ele>72.268238</ele>
        <time>2021-08-05T09:04:55.000Z</time>
      </trkpt>
      <trkpt lat="51.2959" lon="6.72961">
        <ele>72.285476</ele>
        <time>2021-08-05T09:04:56.000Z</time>
      </trkpt>
      <trkpt lat="51.2959" lon="6.72961">
        <ele>72.288209</ele>
        <time>2021-08-05T09:05:00.000Z</time>
      </trkpt>
      <trkpt lat="51.29591" lon="6.7296">
        <ele>72.291645</ele>
        <time>2021-08-05T09:05:08.000Z</time>
      </trkpt>
      <trkpt lat="51.29591" lon="6.72961">
        <ele>72.293467</ele>
        <time>2021-08-05T09:05:22.000Z</time>
      </trkpt>
      <trkpt lat="51.29591" lon="6.72961">
        <ele>72.293467</ele>
        <time>2021-08-05T09:05:26.000Z</time>
      </trkpt>
      <trkpt lat="51.2959" lon="6.72961">
        <ele>72.296312</ele>
        <time>2021-08-05T09:05:38.000Z</time>
      </trkpt>
      <trkpt lat="51.2983" lon="6.72277">
        <ele>75.045653</ele>
        <time>2021-08-05T09:55:47.000Z</time>
      </trkpt>
      <trkpt lat="51.2985" lon="6.72236">
        <ele>75.004138</ele>
        <time>2021-08-05T09:55:51.000Z</time>
      </trkpt>
      <trkpt lat="51.29847" lon="6.72228">
        <ele>74.996769</ele>
        <time>2021-08-05T09:55:52.000Z</time>
      </trkpt>
      <trkpt lat="51.29843" lon="6.72223">
        <ele>74.990695</ele>
        <time>2021-08-05T09:55:53.000Z</time>
      </trkpt>
      <trkpt lat="51.29832" lon="6.72215">
        <ele>74.975716</ele>
        <time>2021-08-05T09:55:55.000Z</time>
      </trkpt>
      <trkpt lat="51.29824" lon="6.72211">
        <ele>74.964863</ele>
        <time>2021-08-05T09:55:57.000Z</time>
      </trkpt>
      <trkpt lat="51.29823" lon="6.72209">
        <ele>74.962126</ele>
        <time>2021-08-05T09:55:59.000Z</time>
      </trkpt>
      <trkpt lat="51.29823" lon="6.72209">
        <ele>74.961654</ele>
        <time>2021-08-05T09:56:00.000Z</time>
      </trkpt>
      <trkpt lat="51.29825" lon="6.72209">
        <ele>74.959348</ele>
        <time>2021-08-05T09:56:02.000Z</time>
      </trkpt>
      <trkpt lat="51.29824" lon="6.72209">
        <ele>74.958999</ele>
        <time>2021-08-05T09:56:03.000Z</time>
      </trkpt>
      <trkpt lat="51.29824" lon="6.7221">
        <ele>74.95865</ele>
        <time>2021-08-05T09:56:05.000Z</time>
      </trkpt>
      <trkpt lat="51.29825" lon="6.7221">
        <ele>74.958087</ele>
        <time>2021-08-05T09:56:07.000Z</time>
      </trkpt>
      <trkpt lat="51.29824" lon="6.72207">
        <ele>74.955824</ele>
        <time>2021-08-05T09:56:11.000Z</time>
      </trkpt>
      <trkpt lat="51.29824" lon="6.72206">
        <ele>74.954948</ele>
        <time>2021-08-05T09:56:21.000Z</time>
      </trkpt>
      <trkpt lat="51.29825" lon="6.72205">
        <ele>74.953992</ele>
        <time>2021-08-05T09:56:22.000Z</time>
      </trkpt>
      <trkpt lat="51.29825" lon="6.72204">
        <ele>74.952798</ele>
        <time>2021-08-05T09:56:29.000Z</time>
      </trkpt>
      <trkpt lat="51.29825" lon="6.722">
        <ele>74.94983</ele>
        <time>2021-08-05T09:56:40.000Z</time>
      </trkpt>
      <trkpt lat="51.29828" lon="6.72192">
        <ele>74.942436</ele>
        <time>2021-08-05T09:56:42.000Z</time>
      </trkpt>
      <trkpt lat="51.2984" lon="6.72171">
        <ele>74.920033</ele>
        <time>2021-08-05T09:56:47.000Z</time>
      </trkpt>
      <trkpt lat="51.29855" lon="6.72149">
        <ele>74.99704</ele>
        <time>2021-08-05T09:56:53.000Z</time>
      </trkpt>
      <trkpt lat="51.2988" lon="6.72114">
        <ele>75.442501</ele>
        <time>2021-08-05T09:57:01.000Z</time>
      </trkpt>
      <trkpt lat="51.29897" lon="6.72087">
        <ele>75.765827</ele>
        <time>2021-08-05T09:57:07.000Z</time>
      </trkpt>
      <trkpt lat="51.29906" lon="6.72067">
        <ele>75.968403</ele>
        <time>2021-08-05T09:57:12.000Z</time>
      </trkpt>
      <trkpt lat="51.29909" lon="6.72061">
        <ele>76.033686</ele>
        <time>2021-08-05T09:57:14.000Z</time>
      </trkpt>
      <trkpt lat="51.29915" lon="6.72047">
        <ele>76.17227</ele>
        <time>2021-08-05T09:57:18.000Z</time>
      </trkpt>
      <trkpt lat="51.29919" lon="6.72037">
        <ele>76.273012</ele>
        <time>2021-08-05T09:57:21.000Z</time>
      </trkpt>
      <trkpt lat="51.29925" lon="6.72023">
        <ele>76.422401</ele>
        <time>2021-08-05T09:57:26.000Z</time>
      </trkpt>
      <trkpt lat="51.29928" lon="6.72015">
        <ele>76.498382</ele>
        <time>2021-08-05T09:57:29.000Z</time>
      </trkpt>
      <trkpt lat="51.29932" lon="6.72007">
        <ele>76.580228</ele>
        <time>2021-08-05T09:57:31.000Z</time>
      </trkpt>
      <trkpt lat="51.29933" lon="6.72004">
        <ele>76.613188</ele>
        <time>2021-08-05T09:57:32.000Z</time>
      </trkpt>
      <trkpt lat="51.29931" lon="6.71997">
        <ele>76.67602</ele>
        <time>2021-08-05T09:57:34.000Z</time>
      </trkpt>
      <trkpt lat="51.29922" lon="6.71985">
        <ele>76.837203</ele>
        <time>2021-08-05T09:57:39.000Z</time>
      </trkpt>
      <trkpt lat="51.29902" lon="6.71967">
        <ele>77.139028</ele>
        <time>2021-08-05T09:57:45.000Z</time>
      </trkpt>
      <trkpt lat="51.29889" lon="6.71953">
        <ele>77.313009</ele>
        <time>2021-08-05T09:57:49.000Z</time>
      </trkpt>
      <trkpt lat="51.29878" lon="6.71944">
        <ele>77.327983</ele>
        <time>2021-08-05T09:57:52.000Z</time>
      </trkpt>
      <trkpt lat="51.29855" lon="6.71924">
        <ele>77.357486</ele>
        <time>2021-08-05T09:57:57.000Z</time>
      </trkpt>
      <trkpt lat="51.29843" lon="6.7191">
        <ele>77.375055</ele>
        <time>2021-08-05T09:58:00.000Z</time>
      </trkpt>
      <trkpt lat="51.29804" lon="6.7187">
        <ele>77.428519</ele>
        <time>2021-08-05T09:58:09.000Z</time>
      </trkpt>
      <trkpt lat="51.29787" lon="6.71852">
        <ele>77.451677</ele>
        <time>2021-08-05T09:58:13.000Z</time>
      </trkpt>
      <trkpt lat="51.29783" lon="6.71848">
        <ele>77.457568</ele>
        <time>2021-08-05T09:58:14.000Z</time>
      </trkpt>
      <trkpt lat="51.29765" lon="6.71832">
        <ele>77.481001</ele>
        <time>2021-08-05T09:58:18.000Z</time>
      </trkpt>
      <trkpt lat="51.29718" lon="6.71791">
        <ele>77.544164</ele>
        <time>2021-08-05T09:58:29.000Z</time>
      </trkpt>
      <trkpt lat="51.29701" lon="6.71776">
        <ele>77.567809</ele>
        <time>2021-08-05T09:58:33.000Z</time>
      </trkpt>
      <trkpt lat="51.2968" lon="6.71757">
        <ele>77.59622</ele>
        <time>2021-08-05T09:58:38.000Z</time>
      </trkpt>
      <trkpt lat="51.29648" lon="6.71729">
        <ele>77.640814</ele>
        <time>2021-08-05T09:58:46.000Z</time>
      </trkpt>
      <trkpt lat="51.2961" lon="6.71691">
        <ele>77.695109</ele>
        <time>2021-08-05T09:58:56.000Z</time>
      </trkpt>
      <trkpt lat="51.29588" lon="6.7167">
        <ele>77.725542</ele>
        <time>2021-08-05T09:59:02.000Z</time>
      </trkpt>
      <trkpt lat="51.29583" lon="6.71666">
        <ele>77.732715</ele>
        <time>2021-08-05T09:59:04.000Z</time>
      </trkpt>
      <trkpt lat="51.29578" lon="6.71658">
        <ele>77.679502</ele>
        <time>2021-08-05T09:59:07.000Z</time>
      </trkpt>
      <trkpt lat="51.29578" lon="6.71655">
        <ele>77.664308</ele>
        <time>2021-08-05T09:59:08.000Z</time>
      </trkpt>
      <trkpt lat="51.29576" lon="6.71653">
        <ele>77.643253</ele>
        <time>2021-08-05T09:59:09.000Z</time>
      </trkpt>
      <trkpt lat="51.2957" lon="6.71644">
        <ele>77.554858</ele>
        <time>2021-08-05T09:59:12.000Z</time>
      </trkpt>
      <trkpt lat="51.29554" lon="6.71631">
        <ele>77.383725</ele>
        <time>2021-08-05T09:59:16.000Z</time>
      </trkpt>
      <trkpt lat="51.29549" lon="6.71627">
        <ele>77.325609</ele>
        <time>2021-08-05T09:59:17.000Z</time>
      </trkpt>
      <trkpt lat="51.29522" lon="6.71602">
        <ele>77.02001</ele>
        <time>2021-08-05T09:59:23.000Z</time>
      </trkpt>
      <trkpt lat="51.29518" lon="6.71597">
        <ele>76.964086</ele>
        <time>2021-08-05T09:59:24.000Z</time>
      </trkpt>
      <trkpt lat="51.29501" lon="6.71576">
        <ele>76.752801</ele>
        <time>2021-08-05T09:59:28.000Z</time>
      </trkpt>
      <trkpt lat="51.2949" lon="6.71557">
        <ele>76.595222</ele>
        <time>2021-08-05T09:59:31.000Z</time>
      </trkpt>
      <trkpt lat="51.29487" lon="6.71551">
        <ele>76.544737</ele>
        <time>2021-08-05T09:59:32.000Z</time>
      </trkpt>
      <trkpt lat="51.2948" lon="6.7154">
        <ele>76.4501</ele>
        <time>2021-08-05T09:59:34.000Z</time>
      </trkpt>
      <trkpt lat="51.29476" lon="6.71533">
        <ele>76.388294</ele>
        <time>2021-08-05T09:59:35.000Z</time>
      </trkpt>
      <trkpt lat="51.29472" lon="6.71527">
        <ele>76.33509</ele>
        <time>2021-08-05T09:59:36.000Z</time>
      </trkpt>
      <trkpt lat="51.29465" lon="6.71517">
        <ele>76.236947</ele>
        <time>2021-08-05T09:59:38.000Z</time>
      </trkpt>
      <trkpt lat="51.29456" lon="6.71506">
        <ele>76.124898</ele>
        <time>2021-08-05T09:59:40.000Z</time>
      </trkpt>
      <trkpt lat="51.29452" lon="6.71501">
        <ele>76.075275</ele>
        <time>2021-08-05T09:59:41.000Z</time>
      </trkpt>
      <trkpt lat="51.29414" lon="6.71453">
        <ele>75.883271</ele>
        <time>2021-08-05T09:59:50.000Z</time>
      </trkpt>
      <trkpt lat="51.29397" lon="6.71434">
        <ele>75.845774</ele>
        <time>2021-08-05T09:59:54.000Z</time>
      </trkpt>
      <trkpt lat="51.29389" lon="6.71424">
        <ele>75.826503</ele>
        <time>2021-08-05T09:59:56.000Z</time>
      </trkpt>
      <trkpt lat="51.29376" lon="6.71411">
        <ele>75.798547</ele>
        <time>2021-08-05T09:59:59.000Z</time>
      </trkpt>
      <trkpt lat="51.29363" lon="6.71399">
        <ele>75.771976</ele>
        <time>2021-08-05T10:00:02.000Z</time>
      </trkpt>
      <trkpt lat="51.2935" lon="6.71386">
        <ele>75.741907</ele>
        <time>2021-08-05T10:00:05.000Z</time>
      </trkpt>
      <trkpt lat="51.29342" lon="6.71378">
        <ele>75.724888</ele>
        <time>2021-08-05T10:00:07.000Z</time>
      </trkpt>
      <trkpt lat="51.29333" lon="6.7137">
        <ele>75.707477</ele>
        <time>2021-08-05T10:00:09.000Z</time>
      </trkpt>
      <trkpt lat="51.29322" lon="6.71357">
        <ele>75.680908</ele>
        <time>2021-08-05T10:00:12.000Z</time>
      </trkpt>
      <trkpt lat="51.29307" lon="6.71341">
        <ele>75.647815</ele>
        <time>2021-08-05T10:00:16.000Z</time>
      </trkpt>
      <trkpt lat="51.29302" lon="6.71335">
        <ele>75.637203</ele>
        <time>2021-08-05T10:00:17.000Z</time>
      </trkpt>
      <trkpt lat="51.29259" lon="6.71301">
        <ele>75.974146</ele>
        <time>2021-08-05T10:00:27.000Z</time>
      </trkpt>
      <trkpt lat="51.29231" lon="6.71292">
        <ele>76.23878</ele>
        <time>2021-08-05T10:00:33.000Z</time>
      </trkpt>
      <trkpt lat="51.29202" lon="6.71285">
        <ele>76.51291</ele>
        <time>2021-08-05T10:00:40.000Z</time>
      </trkpt>
      <trkpt lat="51.29197" lon="6.71283">
        <ele>76.557481</ele>
        <time>2021-08-05T10:00:41.000Z</time>
      </trkpt>
      <trkpt lat="51.29156" lon="6.71261">
        <ele>76.96808</ele>
        <time>2021-08-05T10:00:50.000Z</time>
      </trkpt>
      <trkpt lat="51.29151" lon="6.71258">
        <ele>77.014753</ele>
        <time>2021-08-05T10:00:51.000Z</time>
      </trkpt>
      <trkpt lat="51.29125" lon="6.71239">
        <ele>77.285437</ele>
        <time>2021-08-05T10:00:57.000Z</time>
      </trkpt>
      <trkpt lat="51.29111" lon="6.7123">
        <ele>77.452855</ele>
        <time>2021-08-05T10:01:00.000Z</time>
      </trkpt>
      <trkpt lat="51.29103" lon="6.71224">
        <ele>77.55722</ele>
        <time>2021-08-05T10:01:02.000Z</time>
      </trkpt>
      <trkpt lat="51.29097" lon="6.71218">
        <ele>77.650219</ele>
        <time>2021-08-05T10:01:04.000Z</time>
      </trkpt>
      <trkpt lat="51.29084" lon="6.71205">
        <ele>77.826737</ele>
        <time>2021-08-05T10:01:08.000Z</time>
      </trkpt>
      <trkpt lat="51.29073" lon="6.71192">
        <ele>77.993702</ele>
        <time>2021-08-05T10:01:12.000Z</time>
      </trkpt>
      <trkpt lat="51.29059" lon="6.71177">
        <ele>78.19002</ele>
        <time>2021-08-05T10:01:17.000Z</time>
      </trkpt>
      <trkpt lat="51.2905" lon="6.71164">
        <ele>78.337078</ele>
        <time>2021-08-05T10:01:21.000Z</time>
      </trkpt>
      <trkpt lat="51.29036" lon="6.71147">
        <ele>78.541879</ele>
        <time>2021-08-05T10:01:26.000Z</time>
      </trkpt>
      <trkpt lat="51.29016" lon="6.71125">
        <ele>78.839302</ele>
        <time>2021-08-05T10:01:32.000Z</time>
      </trkpt>
      <trkpt lat="51.29003" lon="6.71113">
        <ele>79.014623</ele>
        <time>2021-08-05T10:01:35.000Z</time>
      </trkpt>
      <trkpt lat="51.28984" lon="6.71099">
        <ele>79.266857</ele>
        <time>2021-08-05T10:01:40.000Z</time>
      </trkpt>
      <trkpt lat="51.28966" lon="6.7109">
        <ele>79.445697</ele>
        <time>2021-08-05T10:01:45.000Z</time>
      </trkpt>
      <trkpt lat="51.28962" lon="6.71088">
        <ele>79.448776</ele>
        <time>2021-08-05T10:01:46.000Z</time>
      </trkpt>
      <trkpt lat="51.28932" lon="6.71072">
        <ele>79.472783</ele>
        <time>2021-08-05T10:01:54.000Z</time>
      </trkpt>
      <trkpt lat="51.28924" lon="6.71067">
        <ele>79.479375</ele>
        <time>2021-08-05T10:01:56.000Z</time>
      </trkpt>
      <trkpt lat="51.2892" lon="6.71064">
        <ele>79.482864</ele>
        <time>2021-08-05T10:01:57.000Z</time>
      </trkpt>
      <trkpt lat="51.2891" lon="6.71058">
        <ele>79.49151</ele>
        <time>2021-08-05T10:02:00.000Z</time>
      </trkpt>
      <trkpt lat="51.28889" lon="6.71045">
        <ele>79.508759</ele>
        <time>2021-08-05T10:02:06.000Z</time>
      </trkpt>
      <trkpt lat="51.2887" lon="6.71019">
        <ele>79.52796</ele>
        <time>2021-08-05T10:02:12.000Z</time>
      </trkpt>
      <trkpt lat="51.28866" lon="6.71007">
        <ele>79.534488</ele>
        <time>2021-08-05T10:02:14.000Z</time>
      </trkpt>
      <trkpt lat="51.28859" lon="6.70982">
        <ele>79.547815</ele>
        <time>2021-08-05T10:02:18.000Z</time>
      </trkpt>
      <trkpt lat="51.28857" lon="6.70975">
        <ele>79.551311</ele>
        <time>2021-08-05T10:02:19.000Z</time>
      </trkpt>
      <trkpt lat="51.28839" lon="6.70916">
        <ele>79.582087</ele>
        <time>2021-08-05T10:02:28.000Z</time>
      </trkpt>
      <trkpt lat="51.28823" lon="6.70863">
        <ele>79.597317</ele>
        <time>2021-08-05T10:02:36.000Z</time>
      </trkpt>
      <trkpt lat="51.28808" lon="6.70825">
        <ele>79.60909</ele>
        <time>2021-08-05T10:02:42.000Z</time>
      </trkpt>
      <trkpt lat="51.28805" lon="6.70819">
        <ele>79.611191</ele>
        <time>2021-08-05T10:02:43.000Z</time>
      </trkpt>
      <trkpt lat="51.28791" lon="6.70796">
        <ele>79.619541</ele>
        <time>2021-08-05T10:02:47.000Z</time>
      </trkpt>
      <trkpt lat="51.28777" lon="6.70775">
        <ele>79.627484</ele>
        <time>2021-08-05T10:02:51.000Z</time>
      </trkpt>
      <trkpt lat="51.28773" lon="6.7077">
        <ele>79.629468</ele>
        <time>2021-08-05T10:02:52.000Z</time>
      </trkpt>
      <trkpt lat="51.28751" lon="6.70749">
        <ele>79.640396</ele>
        <time>2021-08-05T10:02:57.000Z</time>
      </trkpt>
      <trkpt lat="51.28708" lon="6.70716">
        <ele>79.646523</ele>
        <time>2021-08-05T10:03:06.000Z</time>
      </trkpt>
      <trkpt lat="51.28674" lon="6.70696">
        <ele>79.611306</ele>
        <time>2021-08-05T10:03:14.000Z</time>
      </trkpt>
      <trkpt lat="51.28662" lon="6.70688">
        <ele>79.598423</ele>
        <time>2021-08-05T10:03:17.000Z</time>
      </trkpt>
      <trkpt lat="51.28645" lon="6.70677">
        <ele>79.580084</ele>
        <time>2021-08-05T10:03:21.000Z</time>
      </trkpt>
      <trkpt lat="51.28623" lon="6.70663">
        <ele>79.557798</ele>
        <time>2021-08-05T10:03:26.000Z</time>
      </trkpt>
      <trkpt lat="51.28602" lon="6.7065">
        <ele>79.53567</ele>
        <time>2021-08-05T10:03:31.000Z</time>
      </trkpt>
      <trkpt lat="51.28585" lon="6.70639">
        <ele>79.517782</ele>
        <time>2021-08-05T10:03:35.000Z</time>
      </trkpt>
      <trkpt lat="51.28564" lon="6.70625">
        <ele>79.495315</ele>
        <time>2021-08-05T10:03:40.000Z</time>
      </trkpt>
      <trkpt lat="51.28531" lon="6.70605">
        <ele>79.506622</ele>
        <time>2021-08-05T10:03:47.000Z</time>
      </trkpt>
      <trkpt lat="51.28495" lon="6.70582">
        <ele>79.55667</ele>
        <time>2021-08-05T10:03:56.000Z</time>
      </trkpt>
      <trkpt lat="51.28491" lon="6.70579">
        <ele>79.562497</ele>
        <time>2021-08-05T10:03:57.000Z</time>
      </trkpt>
      <trkpt lat="51.28457" lon="6.70556">
        <ele>79.609514</ele>
        <time>2021-08-05T10:04:05.000Z</time>
      </trkpt>
      <trkpt lat="51.28413" lon="6.70527">
        <ele>79.670379</ele>
        <time>2021-08-05T10:04:15.000Z</time>
      </trkpt>
      <trkpt lat="51.28404" lon="6.70522">
        <ele>79.682683</ele>
        <time>2021-08-05T10:04:17.000Z</time>
      </trkpt>
      <trkpt lat="51.28378" lon="6.70506">
        <ele>79.711212</ele>
        <time>2021-08-05T10:04:23.000Z</time>
      </trkpt>
      <trkpt lat="51.28356" lon="6.70491">
        <ele>79.712491</ele>
        <time>2021-08-05T10:04:28.000Z</time>
      </trkpt>
      <trkpt lat="51.28335" lon="6.70478">
        <ele>79.713716</ele>
        <time>2021-08-05T10:04:33.000Z</time>
      </trkpt>
      <trkpt lat="51.28318" lon="6.70466">
        <ele>79.714725</ele>
        <time>2021-08-05T10:04:37.000Z</time>
      </trkpt>
      <trkpt lat="51.28296" lon="6.70452">
        <ele>79.716002</ele>
        <time>2021-08-05T10:04:42.000Z</time>
      </trkpt>
      <trkpt lat="51.28275" lon="6.70437">
        <ele>79.71728</ele>
        <time>2021-08-05T10:04:47.000Z</time>
      </trkpt>
      <trkpt lat="51.28266" lon="6.7043">
        <ele>79.7178</ele>
        <time>2021-08-05T10:04:49.000Z</time>
      </trkpt>
      <trkpt lat="51.28246" lon="6.70414">
        <ele>79.719029</ele>
        <time>2021-08-05T10:04:54.000Z</time>
      </trkpt>
      <trkpt lat="51.28233" lon="6.70405">
        <ele>79.719816</ele>
        <time>2021-08-05T10:04:57.000Z</time>
      </trkpt>
      <trkpt lat="51.28194" lon="6.70374">
        <ele>79.708201</ele>
        <time>2021-08-05T10:05:06.000Z</time>
      </trkpt>
      <trkpt lat="51.28147" lon="6.70329">
        <ele>79.683269</ele>
        <time>2021-08-05T10:05:17.000Z</time>
      </trkpt>
      <trkpt lat="51.2813" lon="6.70311">
        <ele>79.674187</ele>
        <time>2021-08-05T10:05:21.000Z</time>
      </trkpt>
      <trkpt lat="51.28119" lon="6.70297">
        <ele>79.667967</ele>
        <time>2021-08-05T10:05:24.000Z</time>
      </trkpt>
      <trkpt lat="51.28103" lon="6.70277">
        <ele>79.658686</ele>
        <time>2021-08-05T10:05:28.000Z</time>
      </trkpt>
      <trkpt lat="51.28084" lon="6.70253">
        <ele>79.647483</ele>
        <time>2021-08-05T10:05:33.000Z</time>
      </trkpt>
      <trkpt lat="51.28065" lon="6.7023">
        <ele>79.643381</ele>
        <time>2021-08-05T10:05:38.000Z</time>
      </trkpt>
      <trkpt lat="51.28061" lon="6.70225">
        <ele>79.647096</ele>
        <time>2021-08-05T10:05:39.000Z</time>
      </trkpt>
      <trkpt lat="51.2802" lon="6.70178">
        <ele>79.686966</ele>
        <time>2021-08-05T10:05:49.000Z</time>
      </trkpt>
      <trkpt lat="51.28005" lon="6.7016">
        <ele>79.701876</ele>
        <time>2021-08-05T10:05:53.000Z</time>
      </trkpt>
      <trkpt lat="51.27993" lon="6.70146">
        <ele>79.713404</ele>
        <time>2021-08-05T10:05:56.000Z</time>
      </trkpt>
      <trkpt lat="51.27982" lon="6.70132">
        <ele>79.724451</ele>
        <time>2021-08-05T10:05:59.000Z</time>
      </trkpt>
      <trkpt lat="51.27946" lon="6.70086">
        <ele>79.760984</ele>
        <time>2021-08-05T10:06:09.000Z</time>
      </trkpt>
      <trkpt lat="51.2791" lon="6.70053">
        <ele>79.752469</ele>
        <time>2021-08-05T10:06:18.000Z</time>
      </trkpt>
      <trkpt lat="51.27897" lon="6.70041">
        <ele>79.725553</ele>
        <time>2021-08-05T10:06:21.000Z</time>
      </trkpt>
      <trkpt lat="51.2786" lon="6.70007">
        <ele>79.650728</ele>
        <time>2021-08-05T10:06:30.000Z</time>
      </trkpt>
      <trkpt lat="51.27814" lon="6.69965">
        <ele>79.557127</ele>
        <time>2021-08-05T10:06:41.000Z</time>
      </trkpt>
      <trkpt lat="51.27765" lon="6.69924">
        <ele>79.464638</ele>
        <time>2021-08-05T10:06:53.000Z</time>
      </trkpt>
      <trkpt lat="51.27716" lon="6.69878">
        <ele>79.496267</ele>
        <time>2021-08-05T10:07:05.000Z</time>
      </trkpt>
      <trkpt lat="51.27703" lon="6.69867">
        <ele>79.504322</ele>
        <time>2021-08-05T10:07:08.000Z</time>
      </trkpt>
      <trkpt lat="51.27671" lon="6.69841">
        <ele>79.524459</ele>
        <time>2021-08-05T10:07:15.000Z</time>
      </trkpt>
      <trkpt lat="51.27662" lon="6.69834">
        <ele>79.529833</ele>
        <time>2021-08-05T10:07:17.000Z</time>
      </trkpt>
      <trkpt lat="51.27653" lon="6.69828">
        <ele>79.535249</ele>
        <time>2021-08-05T10:07:19.000Z</time>
      </trkpt>
      <trkpt lat="51.27644" lon="6.69821">
        <ele>79.540573</ele>
        <time>2021-08-05T10:07:21.000Z</time>
      </trkpt>
      <trkpt lat="51.27623" lon="6.69805">
        <ele>79.553726</ele>
        <time>2021-08-05T10:07:26.000Z</time>
      </trkpt>
      <trkpt lat="51.27615" lon="6.69799">
        <ele>79.558751</ele>
        <time>2021-08-05T10:07:28.000Z</time>
      </trkpt>
      <trkpt lat="51.27606" lon="6.69792">
        <ele>79.564766</ele>
        <time>2021-08-05T10:07:30.000Z</time>
      </trkpt>
      <trkpt lat="51.27597" lon="6.69785">
        <ele>79.576409</ele>
        <time>2021-08-05T10:07:32.000Z</time>
      </trkpt>
      <trkpt lat="51.27579" lon="6.69773">
        <ele>79.599428</ele>
        <time>2021-08-05T10:07:36.000Z</time>
      </trkpt>
      <trkpt lat="51.27569" lon="6.69767">
        <ele>79.610828</ele>
        <time>2021-08-05T10:07:38.000Z</time>
      </trkpt>
      <trkpt lat="51.27561" lon="6.69761">
        <ele>79.6218</ele>
        <time>2021-08-05T10:07:40.000Z</time>
      </trkpt>
      <trkpt lat="51.27556" lon="6.69759">
        <ele>79.627127</ele>
        <time>2021-08-05T10:07:41.000Z</time>
      </trkpt>
      <trkpt lat="51.27552" lon="6.69756">
        <ele>79.632748</ele>
        <time>2021-08-05T10:07:42.000Z</time>
      </trkpt>
      <trkpt lat="51.27547" lon="6.69753">
        <ele>79.638047</ele>
        <time>2021-08-05T10:07:43.000Z</time>
      </trkpt>
      <trkpt lat="51.27539" lon="6.69747">
        <ele>79.6487</ele>
        <time>2021-08-05T10:07:45.000Z</time>
      </trkpt>
      <trkpt lat="51.2753" lon="6.69742">
        <ele>79.659438</ele>
        <time>2021-08-05T10:07:47.000Z</time>
      </trkpt>
      <trkpt lat="51.27503" lon="6.69726">
        <ele>79.692362</ele>
        <time>2021-08-05T10:07:53.000Z</time>
      </trkpt>
      <trkpt lat="51.27451" lon="6.69695">
        <ele>79.756515</ele>
        <time>2021-08-05T10:08:05.000Z</time>
      </trkpt>
      <trkpt lat="51.27447" lon="6.69693">
        <ele>79.761549</ele>
        <time>2021-08-05T10:08:06.000Z</time>
      </trkpt>
      <trkpt lat="51.27401" lon="6.69669">
        <ele>79.763325</ele>
        <time>2021-08-05T10:08:16.000Z</time>
      </trkpt>
      <trkpt lat="51.27383" lon="6.69659">
        <ele>79.76028</ele>
        <time>2021-08-05T10:08:20.000Z</time>
      </trkpt>
      <trkpt lat="51.27346" lon="6.69641">
        <ele>79.754261</ele>
        <time>2021-08-05T10:08:28.000Z</time>
      </trkpt>
      <trkpt lat="51.27314" lon="6.69634">
        <ele>79.749282</ele>
        <time>2021-08-05T10:08:35.000Z</time>
      </trkpt>
      <trkpt lat="51.27287" lon="6.69644">
        <ele>79.744999</ele>
        <time>2021-08-05T10:08:41.000Z</time>
      </trkpt>
      <trkpt lat="51.27242" lon="6.69662">
        <ele>79.774746</ele>
        <time>2021-08-05T10:08:51.000Z</time>
      </trkpt>
      <trkpt lat="51.27195" lon="6.69679">
        <ele>79.836254</ele>
        <time>2021-08-05T10:09:01.000Z</time>
      </trkpt>
      <trkpt lat="51.27191" lon="6.69681">
        <ele>79.84236</ele>
        <time>2021-08-05T10:09:02.000Z</time>
      </trkpt>
      <trkpt lat="51.27149" lon="6.69696">
        <ele>79.897222</ele>
        <time>2021-08-05T10:09:11.000Z</time>
      </trkpt>
      <trkpt lat="51.27096" lon="6.69721">
        <ele>79.968741</ele>
        <time>2021-08-05T10:09:23.000Z</time>
      </trkpt>
      <trkpt lat="51.27092" lon="6.69724">
        <ele>79.973543</ele>
        <time>2021-08-05T10:09:24.000Z</time>
      </trkpt>
      <trkpt lat="51.27086" lon="6.69735">
        <ele>79.952817</ele>
        <time>2021-08-05T10:09:26.000Z</time>
      </trkpt>
      <trkpt lat="51.27084" lon="6.69742">
        <ele>79.942467</ele>
        <time>2021-08-05T10:09:27.000Z</time>
      </trkpt>
      <trkpt lat="51.27083" lon="6.69749">
        <ele>79.932058</ele>
        <time>2021-08-05T10:09:28.000Z</time>
      </trkpt>
      <trkpt lat="51.27078" lon="6.69786">
        <ele>79.879306</ele>
        <time>2021-08-05T10:09:33.000Z</time>
      </trkpt>
      <trkpt lat="51.27072" lon="6.6983">
        <ele>79.815025</ele>
        <time>2021-08-05T10:09:39.000Z</time>
      </trkpt>
      <trkpt lat="51.27067" lon="6.6984">
        <ele>79.797735</ele>
        <time>2021-08-05T10:09:41.000Z</time>
      </trkpt>
      <trkpt lat="51.2706" lon="6.69843">
        <ele>79.781412</ele>
        <time>2021-08-05T10:09:43.000Z</time>
      </trkpt>
      <trkpt lat="51.27052" lon="6.69847">
        <ele>79.76196</ele>
        <time>2021-08-05T10:09:45.000Z</time>
      </trkpt>
      <trkpt lat="51.27032" lon="6.69853">
        <ele>79.715842</ele>
        <time>2021-08-05T10:09:49.000Z</time>
      </trkpt>
      <trkpt lat="51.27026" lon="6.69854">
        <ele>79.703422</ele>
        <time>2021-08-05T10:09:50.000Z</time>
      </trkpt>
      <trkpt lat="51.27012" lon="6.69857">
        <ele>79.670401</ele>
        <time>2021-08-05T10:09:53.000Z</time>
      </trkpt>
      <trkpt lat="51.26998" lon="6.6986">
        <ele>79.638688</ele>
        <time>2021-08-05T10:09:56.000Z</time>
      </trkpt>
      <trkpt lat="51.26955" lon="6.69865">
        <ele>79.580098</ele>
        <time>2021-08-05T10:10:05.000Z</time>
      </trkpt>
      <trkpt lat="51.26907" lon="6.6987">
        <ele>79.622316</ele>
        <time>2021-08-05T10:10:15.000Z</time>
      </trkpt>
      <trkpt lat="51.26861" lon="6.69876">
        <ele>79.662821</ele>
        <time>2021-08-05T10:10:24.000Z</time>
      </trkpt>
      <trkpt lat="51.26856" lon="6.69877">
        <ele>79.666846</ele>
        <time>2021-08-05T10:10:25.000Z</time>
      </trkpt>
      <trkpt lat="51.26846" lon="6.69878">
        <ele>79.675352</ele>
        <time>2021-08-05T10:10:27.000Z</time>
      </trkpt>
      <trkpt lat="51.26828" lon="6.69882">
        <ele>79.691881</ele>
        <time>2021-08-05T10:10:31.000Z</time>
      </trkpt>
      <trkpt lat="51.26823" lon="6.69883">
        <ele>79.696172</ele>
        <time>2021-08-05T10:10:32.000Z</time>
      </trkpt>
      <trkpt lat="51.26777" lon="6.69889">
        <ele>79.726239</ele>
        <time>2021-08-05T10:10:42.000Z</time>
      </trkpt>
      <trkpt lat="51.26759" lon="6.69893">
        <ele>79.725621</ele>
        <time>2021-08-05T10:10:46.000Z</time>
      </trkpt>
      <trkpt lat="51.26739" lon="6.69896">
        <ele>79.724901</ele>
        <time>2021-08-05T10:10:51.000Z</time>
      </trkpt>
      <trkpt lat="51.2671" lon="6.69903">
        <ele>79.723858</ele>
        <time>2021-08-05T10:10:59.000Z</time>
      </trkpt>
      <trkpt lat="51.26678" lon="6.69914">
        <ele>79.722702</ele>
        <time>2021-08-05T10:11:07.000Z</time>
      </trkpt>
      <trkpt lat="51.2667" lon="6.69917">
        <ele>79.722397</ele>
        <time>2021-08-05T10:11:09.000Z</time>
      </trkpt>
      <trkpt lat="51.26653" lon="6.69924">
        <ele>79.721768</ele>
        <time>2021-08-05T10:11:13.000Z</time>
      </trkpt>
      <trkpt lat="51.26619" lon="6.69942">
        <ele>79.720511</ele>
        <time>2021-08-05T10:11:21.000Z</time>
      </trkpt>
      <trkpt lat="51.2659" lon="6.69966">
        <ele>79.645223</ele>
        <time>2021-08-05T10:11:28.000Z</time>
      </trkpt>
      <trkpt lat="51.26586" lon="6.69969">
        <ele>79.631477</ele>
        <time>2021-08-05T10:11:29.000Z</time>
      </trkpt>
      <trkpt lat="51.26582" lon="6.69972">
        <ele>79.618064</ele>
        <time>2021-08-05T10:11:30.000Z</time>
      </trkpt>
      <trkpt lat="51.26578" lon="6.69976">
        <ele>79.604318</ele>
        <time>2021-08-05T10:11:31.000Z</time>
      </trkpt>
      <trkpt lat="51.26562" lon="6.69992">
        <ele>79.549052</ele>
        <time>2021-08-05T10:11:35.000Z</time>
      </trkpt>
      <trkpt lat="51.26558" lon="6.69996">
        <ele>79.535697</ele>
        <time>2021-08-05T10:11:36.000Z</time>
      </trkpt>
      <trkpt lat="51.26543" lon="6.70012">
        <ele>79.481974</ele>
        <time>2021-08-05T10:11:40.000Z</time>
      </trkpt>
      <trkpt lat="51.26528" lon="6.70028">
        <ele>79.427912</ele>
        <time>2021-08-05T10:11:44.000Z</time>
      </trkpt>
      <trkpt lat="51.26525" lon="6.70033">
        <ele>79.414839</ele>
        <time>2021-08-05T10:11:45.000Z</time>
      </trkpt>
      <trkpt lat="51.26514" lon="6.70045">
        <ele>79.375753</ele>
        <time>2021-08-05T10:11:48.000Z</time>
      </trkpt>
      <trkpt lat="51.26489" lon="6.70074">
        <ele>79.284675</ele>
        <time>2021-08-05T10:11:55.000Z</time>
      </trkpt>
      <trkpt lat="51.26472" lon="6.70095">
        <ele>79.220836</ele>
        <time>2021-08-05T10:12:00.000Z</time>
      </trkpt>
      <trkpt lat="51.26451" lon="6.70119">
        <ele>79.192073</ele>
        <time>2021-08-05T10:12:06.000Z</time>
      </trkpt>
      <trkpt lat="51.26447" lon="6.70123">
        <ele>79.193194</ele>
        <time>2021-08-05T10:12:07.000Z</time>
      </trkpt>
      <trkpt lat="51.26421" lon="6.70153">
        <ele>79.201218</ele>
        <time>2021-08-05T10:12:14.000Z</time>
      </trkpt>
      <trkpt lat="51.26414" lon="6.70161">
        <ele>79.203442</ele>
        <time>2021-08-05T10:12:16.000Z</time>
      </trkpt>
      <trkpt lat="51.26368" lon="6.70215">
        <ele>79.217657</ele>
        <time>2021-08-05T10:12:29.000Z</time>
      </trkpt>
      <trkpt lat="51.2636" lon="6.70223">
        <ele>79.219889</ele>
        <time>2021-08-05T10:12:31.000Z</time>
      </trkpt>
      <trkpt lat="51.26339" lon="6.70249">
        <ele>79.226479</ele>
        <time>2021-08-05T10:12:38.000Z</time>
      </trkpt>
      <trkpt lat="51.26312" lon="6.7028">
        <ele>79.225743</ele>
        <time>2021-08-05T10:12:46.000Z</time>
      </trkpt>
      <trkpt lat="51.26276" lon="6.70323">
        <ele>79.177823</ele>
        <time>2021-08-05T10:12:56.000Z</time>
      </trkpt>
      <trkpt lat="51.26232" lon="6.70372">
        <ele>79.120863</ele>
        <time>2021-08-05T10:13:08.000Z</time>
      </trkpt>
      <trkpt lat="51.26195" lon="6.70415">
        <ele>79.071577</ele>
        <time>2021-08-05T10:13:19.000Z</time>
      </trkpt>
      <trkpt lat="51.26191" lon="6.70419">
        <ele>79.066824</ele>
        <time>2021-08-05T10:13:20.000Z</time>
      </trkpt>
      <trkpt lat="51.26162" lon="6.70454">
        <ele>79.030197</ele>
        <time>2021-08-05T10:13:28.000Z</time>
      </trkpt>
      <trkpt lat="51.26137" lon="6.70482">
        <ele>79.003326</ele>
        <time>2021-08-05T10:13:35.000Z</time>
      </trkpt>
      <trkpt lat="51.26119" lon="6.70503">
        <ele>78.984628</ele>
        <time>2021-08-05T10:13:40.000Z</time>
      </trkpt>
      <trkpt lat="51.26112" lon="6.70511">
        <ele>78.976959</ele>
        <time>2021-08-05T10:13:42.000Z</time>
      </trkpt>
      <trkpt lat="51.26077" lon="6.70553">
        <ele>78.939306</ele>
        <time>2021-08-05T10:13:52.000Z</time>
      </trkpt>
      <trkpt lat="51.26042" lon="6.70596">
        <ele>78.901451</ele>
        <time>2021-08-05T10:14:02.000Z</time>
      </trkpt>
      <trkpt lat="51.26008" lon="6.70636">
        <ele>78.942413</ele>
        <time>2021-08-05T10:14:11.000Z</time>
      </trkpt>
      <trkpt lat="51.26004" lon="6.7064">
        <ele>78.953355</ele>
        <time>2021-08-05T10:14:12.000Z</time>
      </trkpt>
      <trkpt lat="51.25976" lon="6.70674">
        <ele>79.039726</ele>
        <time>2021-08-05T10:14:20.000Z</time>
      </trkpt>
      <trkpt lat="51.25961" lon="6.70689">
        <ele>79.081959</ele>
        <time>2021-08-05T10:14:24.000Z</time>
      </trkpt>
      <trkpt lat="51.25931" lon="6.70726">
        <ele>79.173915</ele>
        <time>2021-08-05T10:14:33.000Z</time>
      </trkpt>
      <trkpt lat="51.25924" lon="6.70735">
        <ele>79.194675</ele>
        <time>2021-08-05T10:14:35.000Z</time>
      </trkpt>
      <trkpt lat="51.2591" lon="6.70752">
        <ele>79.237115</ele>
        <time>2021-08-05T10:14:39.000Z</time>
      </trkpt>
      <trkpt lat="51.2588" lon="6.70791">
        <ele>79.302302</ele>
        <time>2021-08-05T10:14:47.000Z</time>
      </trkpt>
      <trkpt lat="51.2584" lon="6.70846">
        <ele>79.101347</ele>
        <time>2021-08-05T10:14:59.000Z</time>
      </trkpt>
      <trkpt lat="51.25834" lon="6.70856">
        <ele>79.069252</ele>
        <time>2021-08-05T10:15:01.000Z</time>
      </trkpt>
      <trkpt lat="51.25826" lon="6.70864">
        <ele>79.033634</ele>
        <time>2021-08-05T10:15:04.000Z</time>
      </trkpt>
      <trkpt lat="51.25817" lon="6.70879">
        <ele>78.984701</ele>
        <time>2021-08-05T10:15:09.000Z</time>
      </trkpt>
      <trkpt lat="51.258" lon="6.70907">
        <ele>78.893621</ele>
        <time>2021-08-05T10:15:19.000Z</time>
      </trkpt>
      <trkpt lat="51.25799" lon="6.70909">
        <ele>78.884365</ele>
        <time>2021-08-05T10:15:20.000Z</time>
      </trkpt>
      <trkpt lat="51.25797" lon="6.70912">
        <ele>78.874504</ele>
        <time>2021-08-05T10:15:21.000Z</time>
      </trkpt>
      <trkpt lat="51.25781" lon="6.70939">
        <ele>78.788265</ele>
        <time>2021-08-05T10:15:30.000Z</time>
      </trkpt>
      <trkpt lat="51.25778" lon="6.70943">
        <ele>78.774624</ele>
        <time>2021-08-05T10:15:33.000Z</time>
      </trkpt>
      <trkpt lat="51.25778" lon="6.70943">
        <ele>78.773462</ele>
        <time>2021-08-05T10:15:35.000Z</time>
      </trkpt>
      <trkpt lat="51.2578" lon="6.70941">
        <ele>78.76573</ele>
        <time>2021-08-05T10:15:42.000Z</time>
      </trkpt>
      <trkpt lat="51.2578" lon="6.70941">
        <ele>78.76573</ele>
        <time>2021-08-05T10:15:48.000Z</time>
      </trkpt>
      <trkpt lat="51.2578" lon="6.70941">
        <ele>78.76573</ele>
        <time>2021-08-05T10:15:53.000Z</time>
      </trkpt>
      <trkpt lat="51.2578" lon="6.70942">
        <ele>78.763832</ele>
        <time>2021-08-05T10:16:11.000Z</time>
      </trkpt>
      <trkpt lat="51.2578" lon="6.70942">
        <ele>78.763453</ele>
        <time>2021-08-05T10:16:14.000Z</time>
      </trkpt>
      <trkpt lat="51.2578" lon="6.70942">
        <ele>78.763453</ele>
        <time>2021-08-05T10:16:21.000Z</time>
      </trkpt>
      <trkpt lat="51.2578" lon="6.70942">
        <ele>78.761664</ele>
        <time>2021-08-05T10:16:31.000Z</time>
      </trkpt>
      <trkpt lat="51.2578" lon="6.70942">
        <ele>78.761664</ele>
        <time>2021-08-05T10:16:42.000Z</time>
      </trkpt>
      <trkpt lat="51.2578" lon="6.70942">
        <ele>78.761664</ele>
        <time>2021-08-05T10:16:49.000Z</time>
      </trkpt>
      <trkpt lat="51.2578" lon="6.70942">
        <ele>78.761664</ele>
        <time>2021-08-05T10:16:56.000Z</time>
      </trkpt>
      <trkpt lat="51.2578" lon="6.70942">
        <ele>78.761664</ele>
        <time>2021-08-05T10:17:11.000Z</time>
      </trkpt>
      <trkpt lat="51.2578" lon="6.70942">
        <ele>78.761664</ele>
        <time>2021-08-05T10:17:14.000Z</time>
      </trkpt>
      <trkpt lat="51.2578" lon="6.70942">
        <ele>78.761664</ele>
        <time>2021-08-05T10:17:17.000Z</time>
      </trkpt>
      <trkpt lat="51.2578" lon="6.70942">
        <ele>78.761664</ele>
        <time>2021-08-05T10:17:38.000Z</time>
      </trkpt>
      <trkpt lat="51.2578" lon="6.70942">
        <ele>78.761664</ele>
        <time>2021-08-05T10:17:41.000Z</time>
      </trkpt>
      <trkpt lat="51.2578" lon="6.70942">
        <ele>78.760624</ele>
        <time>2021-08-05T10:17:47.000Z</time>
      </trkpt>
      <trkpt lat="51.2578" lon="6.70942">
        <ele>78.760176</ele>
        <time>2021-08-05T10:17:49.000Z</time>
      </trkpt>
      <trkpt lat="51.2578" lon="6.70942">
        <ele>78.759939</ele>
        <time>2021-08-05T10:18:03.000Z</time>
      </trkpt>
      <trkpt lat="51.2578" lon="6.70942">
        <ele>78.759939</ele>
        <time>2021-08-05T10:18:07.000Z</time>
      </trkpt>
      <trkpt lat="51.2578" lon="6.70942">
        <ele>78.759939</ele>
        <time>2021-08-05T10:18:13.000Z</time>
      </trkpt>
      <trkpt lat="51.2578" lon="6.70942">
        <ele>78.759939</ele>
        <time>2021-08-05T10:18:21.000Z</time>
      </trkpt>
      <trkpt lat="51.2578" lon="6.70942">
        <ele>78.759939</ele>
        <time>2021-08-05T10:18:31.000Z</time>
      </trkpt>
      <trkpt lat="51.2578" lon="6.70942">
        <ele>78.759939</ele>
        <time>2021-08-05T10:18:38.000Z</time>
      </trkpt>
      <trkpt lat="51.2578" lon="6.70942">
        <ele>78.759939</ele>
        <time>2021-08-05T10:18:40.000Z</time>
      </trkpt>
      <trkpt lat="51.2578" lon="6.70942">
        <ele>78.759939</ele>
        <time>2021-08-05T10:18:55.000Z</time>
      </trkpt>
      <trkpt lat="51.2578" lon="6.70942">
        <ele>78.759939</ele>
        <time>2021-08-05T10:19:01.000Z</time>
      </trkpt>
      <trkpt lat="51.2578" lon="6.70942">
        <ele>78.759939</ele>
        <time>2021-08-05T10:19:06.000Z</time>
      </trkpt>
      <trkpt lat="51.2578" lon="6.70942">
        <ele>78.759939</ele>
        <time>2021-08-05T10:19:11.000Z</time>
      </trkpt>
      <trkpt lat="51.2578" lon="6.70942">
        <ele>78.759939</ele>
        <time>2021-08-05T10:19:14.000Z</time>
      </trkpt>
      <trkpt lat="51.2578" lon="6.70942">
        <ele>78.759939</ele>
        <time>2021-08-05T10:19:23.000Z</time>
      </trkpt>
      <trkpt lat="51.2578" lon="6.70942">
        <ele>78.759939</ele>
        <time>2021-08-05T10:19:36.000Z</time>
      </trkpt>
      <trkpt lat="51.2578" lon="6.70942">
        <ele>78.759939</ele>
        <time>2021-08-05T10:19:39.000Z</time>
      </trkpt>
      <trkpt lat="51.2578" lon="6.70942">
        <ele>78.759939</ele>
        <time>2021-08-05T10:19:42.000Z</time>
      </trkpt>
      <trkpt lat="51.2578" lon="6.70942">
        <ele>78.759939</ele>
        <time>2021-08-05T10:19:45.000Z</time>
      </trkpt>
      <trkpt lat="51.2578" lon="6.70942">
        <ele>78.759939</ele>
        <time>2021-08-05T10:19:51.000Z</time>
      </trkpt>
      <trkpt lat="51.2578" lon="6.70942">
        <ele>78.759939</ele>
        <time>2021-08-05T10:20:04.000Z</time>
      </trkpt>
      <trkpt lat="51.2578" lon="6.70942">
        <ele>78.759939</ele>
        <time>2021-08-05T10:20:16.000Z</time>
      </trkpt>
      <trkpt lat="51.2578" lon="6.70942">
        <ele>78.759939</ele>
        <time>2021-08-05T10:20:18.000Z</time>
      </trkpt>
      <trkpt lat="51.2578" lon="6.70942">
        <ele>78.759939</ele>
        <time>2021-08-05T10:20:25.000Z</time>
      </trkpt>
      <trkpt lat="51.2578" lon="6.70942">
        <ele>78.759939</ele>
        <time>2021-08-05T10:20:31.000Z</time>
      </trkpt>
      <trkpt lat="51.2578" lon="6.70942">
        <ele>78.759939</ele>
        <time>2021-08-05T10:20:43.000Z</time>
      </trkpt>
      <trkpt lat="51.2578" lon="6.70942">
        <ele>78.759939</ele>
        <time>2021-08-05T10:20:47.000Z</time>
      </trkpt>
      <trkpt lat="51.2578" lon="6.70942">
        <ele>78.759939</ele>
        <time>2021-08-05T10:20:54.000Z</time>
      </trkpt>
      <trkpt lat="51.2578" lon="6.70942">
        <ele>78.759939</ele>
        <time>2021-08-05T10:20:58.000Z</time>
      </trkpt>
      <trkpt lat="51.2578" lon="6.70942">
        <ele>78.759939</ele>
        <time>2021-08-05T10:21:13.000Z</time>
      </trkpt>
      <trkpt lat="51.2578" lon="6.70942">
        <ele>78.759939</ele>
        <time>2021-08-05T10:21:28.000Z</time>
      </trkpt>
      <trkpt lat="51.2578" lon="6.70942">
        <ele>78.759939</ele>
        <time>2021-08-05T10:21:53.000Z</time>
      </trkpt>
      <trkpt lat="51.2578" lon="6.70942">
        <ele>78.759939</ele>
        <time>2021-08-05T10:21:57.000Z</time>
      </trkpt>
      <trkpt lat="51.2578" lon="6.70942">
        <ele>78.759492</ele>
        <time>2021-08-05T10:22:07.000Z</time>
      </trkpt>
      <trkpt lat="51.2578" lon="6.70942">
        <ele>78.759492</ele>
        <time>2021-08-05T10:22:11.000Z</time>
      </trkpt>
      <trkpt lat="51.25781" lon="6.70942">
        <ele>78.757596</ele>
        <time>2021-08-05T10:22:15.000Z</time>
      </trkpt>
      <trkpt lat="51.25781" lon="6.70942">
        <ele>78.756459</ele>
        <time>2021-08-05T10:22:19.000Z</time>
      </trkpt>
      <trkpt lat="51.25781" lon="6.70942">
        <ele>78.755564</ele>
        <time>2021-08-05T10:22:31.000Z</time>
      </trkpt>
      <trkpt lat="51.25781" lon="6.70942">
        <ele>78.755564</ele>
        <time>2021-08-05T10:22:37.000Z</time>
      </trkpt>
      <trkpt lat="51.25781" lon="6.70942">
        <ele>78.755564</ele>
        <time>2021-08-05T10:22:49.000Z</time>
      </trkpt>
      <trkpt lat="51.25781" lon="6.70942">
        <ele>78.755564</ele>
        <time>2021-08-05T10:22:52.000Z</time>
      </trkpt>
      <trkpt lat="51.25781" lon="6.70942">
        <ele>78.755564</ele>
        <time>2021-08-05T10:22:55.000Z</time>
      </trkpt>
      <trkpt lat="51.25781" lon="6.70942">
        <ele>78.753775</ele>
        <time>2021-08-05T10:22:57.000Z</time>
      </trkpt>
      <trkpt lat="51.25781" lon="6.70942">
        <ele>78.753396</ele>
        <time>2021-08-05T10:23:17.000Z</time>
      </trkpt>
      <trkpt lat="51.25781" lon="6.70942">
        <ele>78.752501</ele>
        <time>2021-08-05T10:23:19.000Z</time>
      </trkpt>
      <trkpt lat="51.25781" lon="6.70941">
        <ele>78.750099</ele>
        <time>2021-08-05T10:23:23.000Z</time>
      </trkpt>
      <trkpt lat="51.25781" lon="6.70941">
        <ele>78.750099</ele>
        <time>2021-08-05T10:23:25.000Z</time>
      </trkpt>
      <trkpt lat="51.25781" lon="6.70941">
        <ele>78.748961</ele>
        <time>2021-08-05T10:23:30.000Z</time>
      </trkpt>
      <trkpt lat="51.25782" lon="6.70939">
        <ele>78.743596</ele>
        <time>2021-08-05T10:23:39.000Z</time>
      </trkpt>
      <trkpt lat="51.25782" lon="6.70939">
        <ele>78.743596</ele>
        <time>2021-08-05T10:23:43.000Z</time>
      </trkpt>
      <trkpt lat="51.25782" lon="6.70939">
        <ele>78.743596</ele>
        <time>2021-08-05T10:23:47.000Z</time>
      </trkpt>
      <trkpt lat="51.25782" lon="6.70939">
        <ele>78.743596</ele>
        <time>2021-08-05T10:24:01.000Z</time>
      </trkpt>
      <trkpt lat="51.25781" lon="6.70941">
        <ele>78.737751</ele>
        <time>2021-08-05T10:24:15.000Z</time>
      </trkpt>
      <trkpt lat="51.25778" lon="6.70946">
        <ele>78.721051</ele>
        <time>2021-08-05T10:24:17.000Z</time>
      </trkpt>
      <trkpt lat="51.25774" lon="6.70953">
        <ele>78.699856</ele>
        <time>2021-08-05T10:24:19.000Z</time>
      </trkpt>
      <trkpt lat="51.25766" lon="6.70969">
        <ele>78.649514</ele>
        <time>2021-08-05T10:24:23.000Z</time>
      </trkpt>
      <trkpt lat="51.25741" lon="6.71015">
        <ele>78.614541</ele>
        <time>2021-08-05T10:24:33.000Z</time>
      </trkpt>
      <trkpt lat="51.25729" lon="6.7104">
        <ele>78.600988</ele>
        <time>2021-08-05T10:24:38.000Z</time>
      </trkpt>
      <trkpt lat="51.2572" lon="6.71057">
        <ele>78.591843</ele>
        <time>2021-08-05T10:24:41.000Z</time>
      </trkpt>
      <trkpt lat="51.25718" lon="6.71063">
        <ele>78.588865</ele>
        <time>2021-08-05T10:24:42.000Z</time>
      </trkpt>
      <trkpt lat="51.25696" lon="6.71116">
        <ele>78.562124</ele>
        <time>2021-08-05T10:24:51.000Z</time>
      </trkpt>
      <trkpt lat="51.25678" lon="6.71158">
        <ele>78.540538</ele>
        <time>2021-08-05T10:24:58.000Z</time>
      </trkpt>
      <trkpt lat="51.25671" lon="6.71177">
        <ele>78.53116</ele>
        <time>2021-08-05T10:25:01.000Z</time>
      </trkpt>
      <trkpt lat="51.25669" lon="6.71184">
        <ele>78.528046</ele>
        <time>2021-08-05T10:25:02.000Z</time>
      </trkpt>
      <trkpt lat="51.25659" lon="6.71208">
        <ele>78.512244</ele>
        <time>2021-08-05T10:25:06.000Z</time>
      </trkpt>
      <trkpt lat="51.25636" lon="6.71266">
        <ele>78.332201</ele>
        <time>2021-08-05T10:25:15.000Z</time>
      </trkpt>
      <trkpt lat="51.25608" lon="6.71335">
        <ele>78.119768</ele>
        <time>2021-08-05T10:25:25.000Z</time>
      </trkpt>
      <trkpt lat="51.25593" lon="6.71377">
        <ele>77.994884</ele>
        <time>2021-08-05T10:25:30.000Z</time>
      </trkpt>
      <trkpt lat="51.25578" lon="6.71415">
        <ele>77.878215</ele>
        <time>2021-08-05T10:25:35.000Z</time>
      </trkpt>
      <trkpt lat="51.25563" lon="6.71453">
        <ele>77.773118</ele>
        <time>2021-08-05T10:25:40.000Z</time>
      </trkpt>
      <trkpt lat="51.25545" lon="6.71496">
        <ele>77.818778</ele>
        <time>2021-08-05T10:25:46.000Z</time>
      </trkpt>
      <trkpt lat="51.25514" lon="6.71575">
        <ele>77.899849</ele>
        <time>2021-08-05T10:25:57.000Z</time>
      </trkpt>
      <trkpt lat="51.25502" lon="6.71611">
        <ele>77.935637</ele>
        <time>2021-08-05T10:26:02.000Z</time>
      </trkpt>
      <trkpt lat="51.25495" lon="6.71633">
        <ele>77.957678</ele>
        <time>2021-08-05T10:26:05.000Z</time>
      </trkpt>
      <trkpt lat="51.25471" lon="6.71716">
        <ele>78.062839</ele>
        <time>2021-08-05T10:26:16.000Z</time>
      </trkpt>
      <trkpt lat="51.25469" lon="6.71723">
        <ele>78.080634</ele>
        <time>2021-08-05T10:26:17.000Z</time>
      </trkpt>
      <trkpt lat="51.25458" lon="6.71759">
        <ele>78.170412</ele>
        <time>2021-08-05T10:26:22.000Z</time>
      </trkpt>
      <trkpt lat="51.25449" lon="6.71794">
        <ele>78.254433</ele>
        <time>2021-08-05T10:26:27.000Z</time>
      </trkpt>
      <trkpt lat="51.25442" lon="6.7182">
        <ele>78.319821</ele>
        <time>2021-08-05T10:26:31.000Z</time>
      </trkpt>
      <trkpt lat="51.2544" lon="6.71826">
        <ele>78.335261</ele>
        <time>2021-08-05T10:26:32.000Z</time>
      </trkpt>
      <trkpt lat="51.25428" lon="6.71866">
        <ele>78.435319</ele>
        <time>2021-08-05T10:26:38.000Z</time>
      </trkpt>
      <trkpt lat="51.2542" lon="6.71897">
        <ele>78.510781</ele>
        <time>2021-08-05T10:26:42.000Z</time>
      </trkpt>
      <trkpt lat="51.25415" lon="6.71911">
        <ele>78.547698</ele>
        <time>2021-08-05T10:26:44.000Z</time>
      </trkpt>
      <trkpt lat="51.25393" lon="6.71991">
        <ele>78.797048</ele>
        <time>2021-08-05T10:26:55.000Z</time>
      </trkpt>
      <trkpt lat="51.25383" lon="6.72024">
        <ele>78.934775</ele>
        <time>2021-08-05T10:27:00.000Z</time>
      </trkpt>
      <trkpt lat="51.2538" lon="6.72035">
        <ele>78.982216</ele>
        <time>2021-08-05T10:27:02.000Z</time>
      </trkpt>
      <trkpt lat="51.25365" lon="6.72093">
        <ele>79.224019</ele>
        <time>2021-08-05T10:27:12.000Z</time>
      </trkpt>
      <trkpt lat="51.25358" lon="6.72118">
        <ele>79.32828</ele>
        <time>2021-08-05T10:27:16.000Z</time>
      </trkpt>
      <trkpt lat="51.25344" lon="6.72168">
        <ele>79.540101</ele>
        <time>2021-08-05T10:27:24.000Z</time>
      </trkpt>
      <trkpt lat="51.25335" lon="6.72199">
        <ele>79.667704</ele>
        <time>2021-08-05T10:27:29.000Z</time>
      </trkpt>
      <trkpt lat="51.25333" lon="6.72205">
        <ele>79.694349</ele>
        <time>2021-08-05T10:27:30.000Z</time>
      </trkpt>
      <trkpt lat="51.2533" lon="6.72217">
        <ele>79.745434</ele>
        <time>2021-08-05T10:27:32.000Z</time>
      </trkpt>
      <trkpt lat="51.25328" lon="6.72224">
        <ele>79.771975</ele>
        <time>2021-08-05T10:27:33.000Z</time>
      </trkpt>
      <trkpt lat="51.25312" lon="6.72283">
        <ele>79.717531</ele>
        <time>2021-08-05T10:27:42.000Z</time>
      </trkpt>
      <trkpt lat="51.25291" lon="6.72355">
        <ele>79.649172</ele>
        <time>2021-08-05T10:27:53.000Z</time>
      </trkpt>
      <trkpt lat="51.25275" lon="6.72402">
        <ele>79.602663</ele>
        <time>2021-08-05T10:28:00.000Z</time>
      </trkpt>
      <trkpt lat="51.2526" lon="6.72457">
        <ele>79.551122</ele>
        <time>2021-08-05T10:28:08.000Z</time>
      </trkpt>
      <trkpt lat="51.25254" lon="6.7248">
        <ele>79.530337</ele>
        <time>2021-08-05T10:28:11.000Z</time>
      </trkpt>
      <trkpt lat="51.25248" lon="6.72504">
        <ele>79.512869</ele>
        <time>2021-08-05T10:28:14.000Z</time>
      </trkpt>
      <trkpt lat="51.25242" lon="6.72528">
        <ele>79.497069</ele>
        <time>2021-08-05T10:28:17.000Z</time>
      </trkpt>
      <trkpt lat="51.2523" lon="6.72577">
        <ele>79.465151</ele>
        <time>2021-08-05T10:28:24.000Z</time>
      </trkpt>
      <trkpt lat="51.25216" lon="6.72624">
        <ele>79.433373</ele>
        <time>2021-08-05T10:28:31.000Z</time>
      </trkpt>
      <trkpt lat="51.25201" lon="6.72675">
        <ele>79.399002</ele>
        <time>2021-08-05T10:28:38.000Z</time>
      </trkpt>
      <trkpt lat="51.25195" lon="6.72697">
        <ele>79.384185</ele>
        <time>2021-08-05T10:28:41.000Z</time>
      </trkpt>
      <trkpt lat="51.25185" lon="6.72734">
        <ele>79.360064</ele>
        <time>2021-08-05T10:28:46.000Z</time>
      </trkpt>
      <trkpt lat="51.25178" lon="6.72761">
        <ele>79.310633</ele>
        <time>2021-08-05T10:28:50.000Z</time>
      </trkpt>
      <trkpt lat="51.25174" lon="6.72775">
        <ele>79.269659</ele>
        <time>2021-08-05T10:28:52.000Z</time>
      </trkpt>
      <trkpt lat="51.2517" lon="6.72788">
        <ele>79.229124</ele>
        <time>2021-08-05T10:28:54.000Z</time>
      </trkpt>
      <trkpt lat="51.25158" lon="6.72826">
        <ele>79.112314</ele>
        <time>2021-08-05T10:29:00.000Z</time>
      </trkpt>
      <trkpt lat="51.25155" lon="6.72835">
        <ele>79.084131</ele>
        <time>2021-08-05T10:29:02.000Z</time>
      </trkpt>
      <trkpt lat="51.25152" lon="6.72841">
        <ele>79.064002</ele>
        <time>2021-08-05T10:29:06.000Z</time>
      </trkpt>
      <trkpt lat="51.25156" lon="6.72846">
        <ele>79.041087</ele>
        <time>2021-08-05T10:29:10.000Z</time>
      </trkpt>
      <trkpt lat="51.25158" lon="6.72846">
        <ele>79.031827</ele>
        <time>2021-08-05T10:29:11.000Z</time>
      </trkpt>
      <trkpt lat="51.25161" lon="6.72845">
        <ele>79.02128</ele>
        <time>2021-08-05T10:29:12.000Z</time>
      </trkpt>
      <trkpt lat="51.25166" lon="6.72837">
        <ele>78.990387</ele>
        <time>2021-08-05T10:29:15.000Z</time>
      </trkpt>
      <trkpt lat="51.25177" lon="6.72814">
        <ele>78.909866</ele>
        <time>2021-08-05T10:29:21.000Z</time>
      </trkpt>
      <trkpt lat="51.25181" lon="6.72806">
        <ele>78.880359</ele>
        <time>2021-08-05T10:29:23.000Z</time>
      </trkpt>
      <trkpt lat="51.25187" lon="6.72795">
        <ele>78.841005</ele>
        <time>2021-08-05T10:29:26.000Z</time>
      </trkpt>
      <trkpt lat="51.25191" lon="6.72792">
        <ele>78.821004</ele>
        <time>2021-08-05T10:29:28.000Z</time>
      </trkpt>
      <trkpt lat="51.25193" lon="6.72791">
        <ele>78.811113</ele>
        <time>2021-08-05T10:29:29.000Z</time>
      </trkpt>
      <trkpt lat="51.252" lon="6.72793">
        <ele>78.782357</ele>
        <time>2021-08-05T10:29:32.000Z</time>
      </trkpt>
      <trkpt lat="51.25202" lon="6.72795">
        <ele>78.770482</ele>
        <time>2021-08-05T10:29:33.000Z</time>
      </trkpt>
      <trkpt lat="51.25208" lon="6.728">
        <ele>78.741551</ele>
        <time>2021-08-05T10:29:38.000Z</time>
      </trkpt>
      <trkpt lat="51.2521" lon="6.72802">
        <ele>78.731728</ele>
        <time>2021-08-05T10:29:44.000Z</time>
      </trkpt>
      <trkpt lat="51.2521" lon="6.72803">
        <ele>78.728969</ele>
        <time>2021-08-05T10:29:51.000Z</time>
      </trkpt>
      <trkpt lat="51.2521" lon="6.72803">
        <ele>78.727255</ele>
        <time>2021-08-05T10:29:54.000Z</time>
      </trkpt>
      <trkpt lat="51.25209" lon="6.72803">
        <ele>78.722845</ele>
        <time>2021-08-05T10:29:57.000Z</time>
      </trkpt>
      <trkpt lat="51.25206" lon="6.728">
        <ele>78.708139</ele>
        <time>2021-08-05T10:30:00.000Z</time>
      </trkpt>
      <trkpt lat="51.25206" lon="6.72798">
        <ele>78.702511</ele>
        <time>2021-08-05T10:30:04.000Z</time>
      </trkpt>
      <trkpt lat="51.25206" lon="6.72799">
        <ele>78.700579</ele>
        <time>2021-08-05T10:30:10.000Z</time>
      </trkpt>
      <trkpt lat="51.25206" lon="6.72799">
        <ele>78.700579</ele>
        <time>2021-08-05T10:30:12.000Z</time>
      </trkpt>
      <trkpt lat="51.25206" lon="6.72799">
        <ele>78.699697</ele>
        <time>2021-08-05T10:30:15.000Z</time>
      </trkpt>
      <trkpt lat="51.25204" lon="6.72797">
        <ele>78.690352</ele>
        <time>2021-08-05T10:30:17.000Z</time>
      </trkpt>
      <trkpt lat="51.25199" lon="6.72795">
        <ele>78.668118</ele>
        <time>2021-08-05T10:30:19.000Z</time>
      </trkpt>
      <trkpt lat="51.25191" lon="6.72792">
        <ele>78.633169</ele>
        <time>2021-08-05T10:30:22.000Z</time>
      </trkpt>
      <trkpt lat="51.25187" lon="6.72795">
        <ele>78.6138</ele>
        <time>2021-08-05T10:30:24.000Z</time>
      </trkpt>
      <trkpt lat="51.25181" lon="6.72804">
        <ele>78.577744</ele>
        <time>2021-08-05T10:30:27.000Z</time>
      </trkpt>
      <trkpt lat="51.25175" lon="6.72816">
        <ele>78.598133</ele>
        <time>2021-08-05T10:30:31.000Z</time>
      </trkpt>
      <trkpt lat="51.25172" lon="6.72821">
        <ele>78.635617</ele>
        <time>2021-08-05T10:30:33.000Z</time>
      </trkpt>
      <trkpt lat="51.25169" lon="6.72827">
        <ele>78.674463</ele>
        <time>2021-08-05T10:30:35.000Z</time>
      </trkpt>
      <trkpt lat="51.25161" lon="6.72836">
        <ele>78.757511</ele>
        <time>2021-08-05T10:30:40.000Z</time>
      </trkpt>
      <trkpt lat="51.25155" lon="6.72843">
        <ele>78.812471</ele>
        <time>2021-08-05T10:30:43.000Z</time>
      </trkpt>
      <trkpt lat="51.25152" lon="6.72849">
        <ele>78.852511</ele>
        <time>2021-08-05T10:30:45.000Z</time>
      </trkpt>
      <trkpt lat="51.25151" lon="6.72859">
        <ele>78.909234</ele>
        <time>2021-08-05T10:30:47.000Z</time>
      </trkpt>
      <trkpt lat="51.2515" lon="6.72865">
        <ele>78.93787</ele>
        <time>2021-08-05T10:30:48.000Z</time>
      </trkpt>
      <trkpt lat="51.25143" lon="6.72885">
        <ele>79.059844</ele>
        <time>2021-08-05T10:30:52.000Z</time>
      </trkpt>
      <trkpt lat="51.25139" lon="6.72896">
        <ele>79.124238</ele>
        <time>2021-08-05T10:30:54.000Z</time>
      </trkpt>
      <trkpt lat="51.25131" lon="6.72928">
        <ele>79.303592</ele>
        <time>2021-08-05T10:31:00.000Z</time>
      </trkpt>
      <trkpt lat="51.25122" lon="6.7296">
        <ele>79.480425</ele>
        <time>2021-08-05T10:31:07.000Z</time>
      </trkpt>
      <trkpt lat="51.25121" lon="6.72968">
        <ele>79.524894</ele>
        <time>2021-08-05T10:31:11.000Z</time>
      </trkpt>
      <trkpt lat="51.25119" lon="6.72973">
        <ele>79.55195</ele>
        <time>2021-08-05T10:31:14.000Z</time>
      </trkpt>
      <trkpt lat="51.25116" lon="6.72982">
        <ele>79.60987</ele>
        <time>2021-08-05T10:31:17.000Z</time>
      </trkpt>
      <trkpt lat="51.25113" lon="6.72991">
        <ele>79.660478</ele>
        <time>2021-08-05T10:31:19.000Z</time>
      </trkpt>
      <trkpt lat="51.25108" lon="6.73011">
        <ele>79.770762</ele>
        <time>2021-08-05T10:31:23.000Z</time>
      </trkpt>
      <trkpt lat="51.25107" lon="6.73017">
        <ele>79.800631</ele>
        <time>2021-08-05T10:31:24.000Z</time>
      </trkpt>
      <trkpt lat="51.25095" lon="6.73058">
        <ele>80.036431</ele>
        <time>2021-08-05T10:31:31.000Z</time>
      </trkpt>
      <trkpt lat="51.25084" lon="6.73096">
        <ele>79.836749</ele>
        <time>2021-08-05T10:31:38.000Z</time>
      </trkpt>
      <trkpt lat="51.2507" lon="6.73144">
        <ele>79.564059</ele>
        <time>2021-08-05T10:31:46.000Z</time>
      </trkpt>
      <trkpt lat="51.25061" lon="6.7317">
        <ele>79.410117</ele>
        <time>2021-08-05T10:31:51.000Z</time>
      </trkpt>
      <trkpt lat="51.25056" lon="6.73176">
        <ele>79.36002</ele>
        <time>2021-08-05T10:31:53.000Z</time>
      </trkpt>
      <trkpt lat="51.25038" lon="6.73198">
        <ele>79.172581</ele>
        <time>2021-08-05T10:32:00.000Z</time>
      </trkpt>
      <trkpt lat="51.2503" lon="6.73209">
        <ele>79.088509</ele>
        <time>2021-08-05T10:32:03.000Z</time>
      </trkpt>
      <trkpt lat="51.25019" lon="6.73222">
        <ele>78.970874</ele>
        <time>2021-08-05T10:32:07.000Z</time>
      </trkpt>
      <trkpt lat="51.25001" lon="6.73242">
        <ele>78.792954</ele>
        <time>2021-08-05T10:32:12.000Z</time>
      </trkpt>
      <trkpt lat="51.24992" lon="6.73248">
        <ele>78.714204</ele>
        <time>2021-08-05T10:32:14.000Z</time>
      </trkpt>
      <trkpt lat="51.24983" lon="6.73251">
        <ele>78.640996</ele>
        <time>2021-08-05T10:32:16.000Z</time>
      </trkpt>
      <trkpt lat="51.2498" lon="6.73253">
        <ele>78.608199</ele>
        <time>2021-08-05T10:32:17.000Z</time>
      </trkpt>
      <trkpt lat="51.24977" lon="6.73257">
        <ele>78.577689</ele>
        <time>2021-08-05T10:32:18.000Z</time>
      </trkpt>
      <trkpt lat="51.24975" lon="6.73262">
        <ele>78.565454</ele>
        <time>2021-08-05T10:32:19.000Z</time>
      </trkpt>
      <trkpt lat="51.24967" lon="6.73298">
        <ele>78.55357</ele>
        <time>2021-08-05T10:32:25.000Z</time>
      </trkpt>
      <trkpt lat="51.24962" lon="6.7333">
        <ele>78.543536</ele>
        <time>2021-08-05T10:32:30.000Z</time>
      </trkpt>
      <trkpt lat="51.24959" lon="6.73348">
        <ele>78.537822</ele>
        <time>2021-08-05T10:32:33.000Z</time>
      </trkpt>
      <trkpt lat="51.24952" lon="6.73384">
        <ele>78.526177</ele>
        <time>2021-08-05T10:32:39.000Z</time>
      </trkpt>
      <trkpt lat="51.2495" lon="6.73395">
        <ele>78.522339</ele>
        <time>2021-08-05T10:32:41.000Z</time>
      </trkpt>
      <trkpt lat="51.24939" lon="6.73456">
        <ele>78.502882</ele>
        <time>2021-08-05T10:32:51.000Z</time>
      </trkpt>
      <trkpt lat="51.24936" lon="6.73468">
        <ele>78.498788</ele>
        <time>2021-08-05T10:32:53.000Z</time>
      </trkpt>
      <trkpt lat="51.24929" lon="6.73512">
        <ele>78.484966</ele>
        <time>2021-08-05T10:33:00.000Z</time>
      </trkpt>
      <trkpt lat="51.24928" lon="6.73524">
        <ele>78.481161</ele>
        <time>2021-08-05T10:33:02.000Z</time>
      </trkpt>
      <trkpt lat="51.24925" lon="6.73541">
        <ele>78.512986</ele>
        <time>2021-08-05T10:33:05.000Z</time>
      </trkpt>
      <trkpt lat="51.24923" lon="6.73554">
        <ele>78.571794</ele>
        <time>2021-08-05T10:33:07.000Z</time>
      </trkpt>
      <trkpt lat="51.24917" lon="6.7359">
        <ele>78.750836</ele>
        <time>2021-08-05T10:33:13.000Z</time>
      </trkpt>
      <trkpt lat="51.24915" lon="6.73607">
        <ele>78.833825</ele>
        <time>2021-08-05T10:33:16.000Z</time>
      </trkpt>
      <trkpt lat="51.24914" lon="6.73613">
        <ele>78.862917</ele>
        <time>2021-08-05T10:33:17.000Z</time>
      </trkpt>
      <trkpt lat="51.24909" lon="6.73646">
        <ele>79.021995</ele>
        <time>2021-08-05T10:33:23.000Z</time>
      </trkpt>
      <trkpt lat="51.24906" lon="6.73661">
        <ele>79.096614</ele>
        <time>2021-08-05T10:33:26.000Z</time>
      </trkpt>
      <trkpt lat="51.24902" lon="6.73692">
        <ele>79.247813</ele>
        <time>2021-08-05T10:33:32.000Z</time>
      </trkpt>
      <trkpt lat="51.24902" lon="6.73697">
        <ele>79.273206</ele>
        <time>2021-08-05T10:33:33.000Z</time>
      </trkpt>
      <trkpt lat="51.24897" lon="6.7374">
        <ele>79.479018</ele>
        <time>2021-08-05T10:33:42.000Z</time>
      </trkpt>
      <trkpt lat="51.24898" lon="6.73766">
        <ele>79.601764</ele>
        <time>2021-08-05T10:33:49.000Z</time>
      </trkpt>
      <trkpt lat="51.24898" lon="6.73778">
        <ele>79.657377</ele>
        <time>2021-08-05T10:33:53.000Z</time>
      </trkpt>
      <trkpt lat="51.24898" lon="6.73783">
        <ele>79.682557</ele>
        <time>2021-08-05T10:33:55.000Z</time>
      </trkpt>
      <trkpt lat="51.24898" lon="6.73786">
        <ele>79.696365</ele>
        <time>2021-08-05T10:33:56.000Z</time>
      </trkpt>
      <trkpt lat="51.24898" lon="6.73789">
        <ele>79.709258</ele>
        <time>2021-08-05T10:33:57.000Z</time>
      </trkpt>
      <trkpt lat="51.24893" lon="6.73801">
        <ele>79.779252</ele>
        <time>2021-08-05T10:34:01.000Z</time>
      </trkpt>
      <trkpt lat="51.24887" lon="6.73817">
        <ele>79.835107</ele>
        <time>2021-08-05T10:34:05.000Z</time>
      </trkpt>
      <trkpt lat="51.24883" lon="6.73825">
        <ele>79.825765</ele>
        <time>2021-08-05T10:34:07.000Z</time>
      </trkpt>
      <trkpt lat="51.2488" lon="6.73838">
        <ele>79.811837</ele>
        <time>2021-08-05T10:34:10.000Z</time>
      </trkpt>
      <trkpt lat="51.24877" lon="6.73848">
        <ele>79.801981</ele>
        <time>2021-08-05T10:34:12.000Z</time>
      </trkpt>
      <trkpt lat="51.24874" lon="6.73857">
        <ele>79.791907</ele>
        <time>2021-08-05T10:34:14.000Z</time>
      </trkpt>
      <trkpt lat="51.24869" lon="6.73872">
        <ele>79.776051</ele>
        <time>2021-08-05T10:34:17.000Z</time>
      </trkpt>
      <trkpt lat="51.24858" lon="6.7391">
        <ele>79.736562</ele>
        <time>2021-08-05T10:34:25.000Z</time>
      </trkpt>
      <trkpt lat="51.24854" lon="6.73926">
        <ele>79.719954</ele>
        <time>2021-08-05T10:34:28.000Z</time>
      </trkpt>
      <trkpt lat="51.24848" lon="6.73947">
        <ele>79.698543</ele>
        <time>2021-08-05T10:34:32.000Z</time>
      </trkpt>
      <trkpt lat="51.24839" lon="6.73981">
        <ele>79.663438</ele>
        <time>2021-08-05T10:34:39.000Z</time>
      </trkpt>
      <trkpt lat="51.24825" lon="6.74031">
        <ele>79.611813</ele>
        <time>2021-08-05T10:34:49.000Z</time>
      </trkpt>
      <trkpt lat="51.24818" lon="6.74055">
        <ele>79.586337</ele>
        <time>2021-08-05T10:34:54.000Z</time>
      </trkpt>
      <trkpt lat="51.24812" lon="6.74075">
        <ele>79.527045</ele>
        <time>2021-08-05T10:34:58.000Z</time>
      </trkpt>
      <trkpt lat="51.24809" lon="6.74085">
        <ele>79.394691</ele>
        <time>2021-08-05T10:35:00.000Z</time>
      </trkpt>
      <trkpt lat="51.24806" lon="6.74099">
        <ele>79.22105</ele>
        <time>2021-08-05T10:35:03.000Z</time>
      </trkpt>
      <trkpt lat="51.24803" lon="6.74108">
        <ele>79.094119</ele>
        <time>2021-08-05T10:35:06.000Z</time>
      </trkpt>
      <trkpt lat="51.24802" lon="6.74111">
        <ele>79.058489</ele>
        <time>2021-08-05T10:35:11.000Z</time>
      </trkpt>
      <trkpt lat="51.24802" lon="6.74111">
        <ele>79.058489</ele>
        <time>2021-08-05T10:35:14.000Z</time>
      </trkpt>
      <trkpt lat="51.24802" lon="6.74111">
        <ele>79.058489</ele>
        <time>2021-08-05T10:35:19.000Z</time>
      </trkpt>
      <trkpt lat="51.24802" lon="6.74111">
        <ele>79.058489</ele>
        <time>2021-08-05T10:35:22.000Z</time>
      </trkpt>
      <trkpt lat="51.24802" lon="6.74111">
        <ele>79.058489</ele>
        <time>2021-08-05T10:35:29.000Z</time>
      </trkpt>
      <trkpt lat="51.24802" lon="6.74111">
        <ele>79.058489</ele>
        <time>2021-08-05T10:35:33.000Z</time>
      </trkpt>
      <trkpt lat="51.24802" lon="6.74111">
        <ele>79.058489</ele>
        <time>2021-08-05T10:35:38.000Z</time>
      </trkpt>
      <trkpt lat="51.24802" lon="6.74111">
        <ele>79.058489</ele>
        <time>2021-08-05T10:35:43.000Z</time>
      </trkpt>
      <trkpt lat="51.24802" lon="6.74111">
        <ele>79.056571</ele>
        <time>2021-08-05T10:35:57.000Z</time>
      </trkpt>
      <trkpt lat="51.24802" lon="6.74111">
        <ele>79.056571</ele>
        <time>2021-08-05T10:36:02.000Z</time>
      </trkpt>
      <trkpt lat="51.24802" lon="6.74111">
        <ele>79.056571</ele>
        <time>2021-08-05T10:36:03.000Z</time>
      </trkpt>
      <trkpt lat="51.24802" lon="6.74111">
        <ele>79.056571</ele>
        <time>2021-08-05T10:36:06.000Z</time>
      </trkpt>
      <trkpt lat="51.24802" lon="6.74111">
        <ele>79.056571</ele>
        <time>2021-08-05T10:36:08.000Z</time>
      </trkpt>
      <trkpt lat="51.24802" lon="6.74111">
        <ele>79.045842</ele>
        <time>2021-08-05T10:36:12.000Z</time>
      </trkpt>
      <trkpt lat="51.24803" lon="6.74114">
        <ele>79.008042</ele>
        <time>2021-08-05T10:36:19.000Z</time>
      </trkpt>
      <trkpt lat="51.24805" lon="6.74119">
        <ele>78.930667</ele>
        <time>2021-08-05T10:36:21.000Z</time>
      </trkpt>
      <trkpt lat="51.24807" lon="6.74138">
        <ele>78.698745</ele>
        <time>2021-08-05T10:36:26.000Z</time>
      </trkpt>
      <trkpt lat="51.24803" lon="6.74163">
        <ele>78.390238</ele>
        <time>2021-08-05T10:36:30.000Z</time>
      </trkpt>
      <trkpt lat="51.24802" lon="6.7417">
        <ele>78.307055</ele>
        <time>2021-08-05T10:36:31.000Z</time>
      </trkpt>
      <trkpt lat="51.24799" lon="6.74191">
        <ele>78.048201</ele>
        <time>2021-08-05T10:36:34.000Z</time>
      </trkpt>
      <trkpt lat="51.24796" lon="6.74213">
        <ele>77.785929</ele>
        <time>2021-08-05T10:36:37.000Z</time>
      </trkpt>
      <trkpt lat="51.24797" lon="6.74219">
        <ele>77.702866</ele>
        <time>2021-08-05T10:36:38.000Z</time>
      </trkpt>
      <trkpt lat="51.24798" lon="6.74226">
        <ele>77.61898</ele>
        <time>2021-08-05T10:36:39.000Z</time>
      </trkpt>
      <trkpt lat="51.24802" lon="6.74238">
        <ele>77.45571</ele>
        <time>2021-08-05T10:36:41.000Z</time>
      </trkpt>
      <trkpt lat="51.24804" lon="6.74243">
        <ele>77.376454</ele>
        <time>2021-08-05T10:36:42.000Z</time>
      </trkpt>
      <trkpt lat="51.24808" lon="6.74247">
        <ele>77.293998</ele>
        <time>2021-08-05T10:36:43.000Z</time>
      </trkpt>
      <trkpt lat="51.24825" lon="6.74265">
        <ele>76.899509</ele>
        <time>2021-08-05T10:36:48.000Z</time>
      </trkpt>
      <trkpt lat="51.24846" lon="6.74285">
        <ele>76.427763</ele>
        <time>2021-08-05T10:36:54.000Z</time>
      </trkpt>
      <trkpt lat="51.24857" lon="6.74295">
        <ele>76.187669</ele>
        <time>2021-08-05T10:36:57.000Z</time>
      </trkpt>
      <trkpt lat="51.24867" lon="6.74306">
        <ele>76.144285</ele>
        <time>2021-08-05T10:37:00.000Z</time>
      </trkpt>
      <trkpt lat="51.24884" lon="6.74324">
        <ele>76.20485</ele>
        <time>2021-08-05T10:37:05.000Z</time>
      </trkpt>
      <trkpt lat="51.24902" lon="6.74341">
        <ele>76.266428</ele>
        <time>2021-08-05T10:37:10.000Z</time>
      </trkpt>
      <trkpt lat="51.24915" lon="6.74357">
        <ele>76.315459</ele>
        <time>2021-08-05T10:37:14.000Z</time>
      </trkpt>
      <trkpt lat="51.24934" lon="6.74379">
        <ele>76.386826</ele>
        <time>2021-08-05T10:37:20.000Z</time>
      </trkpt>
      <trkpt lat="51.24938" lon="6.74386">
        <ele>76.405534</ele>
        <time>2021-08-05T10:37:22.000Z</time>
      </trkpt>
      <trkpt lat="51.24939" lon="6.74396">
        <ele>76.423731</ele>
        <time>2021-08-05T10:37:24.000Z</time>
      </trkpt>
      <trkpt lat="51.24939" lon="6.74407">
        <ele>76.444949</ele>
        <time>2021-08-05T10:37:26.000Z</time>
      </trkpt>
      <trkpt lat="51.24938" lon="6.74417">
        <ele>76.463514</ele>
        <time>2021-08-05T10:37:28.000Z</time>
      </trkpt>
      <trkpt lat="51.24936" lon="6.74427">
        <ele>76.48271</ele>
        <time>2021-08-05T10:37:30.000Z</time>
      </trkpt>
      <trkpt lat="51.24933" lon="6.74437">
        <ele>76.504078</ele>
        <time>2021-08-05T10:37:32.000Z</time>
      </trkpt>
      <trkpt lat="51.24918" lon="6.74487">
        <ele>76.608228</ele>
        <time>2021-08-05T10:37:41.000Z</time>
      </trkpt>
      <trkpt lat="51.24911" lon="6.74504">
        <ele>76.646591</ele>
        <time>2021-08-05T10:37:44.000Z</time>
      </trkpt>
      <trkpt lat="51.24899" lon="6.74538">
        <ele>76.749196</ele>
        <time>2021-08-05T10:37:50.000Z</time>
      </trkpt>
      <trkpt lat="51.24897" lon="6.74543">
        <ele>76.767772</ele>
        <time>2021-08-05T10:37:51.000Z</time>
      </trkpt>
      <trkpt lat="51.24892" lon="6.7456">
        <ele>76.821249</ele>
        <time>2021-08-05T10:37:54.000Z</time>
      </trkpt>
      <trkpt lat="51.24888" lon="6.74572">
        <ele>76.858892</ele>
        <time>2021-08-05T10:37:56.000Z</time>
      </trkpt>
      <trkpt lat="51.24884" lon="6.74585">
        <ele>76.898658</ele>
        <time>2021-08-05T10:37:58.000Z</time>
      </trkpt>
      <trkpt lat="51.24875" lon="6.74604">
        <ele>76.966549</ele>
        <time>2021-08-05T10:38:01.000Z</time>
      </trkpt>
      <trkpt lat="51.24869" lon="6.74617">
        <ele>77.010019</ele>
        <time>2021-08-05T10:38:03.000Z</time>
      </trkpt>
      <trkpt lat="51.24853" lon="6.74662">
        <ele>77.155303</ele>
        <time>2021-08-05T10:38:10.000Z</time>
      </trkpt>
      <trkpt lat="51.24845" lon="6.74687">
        <ele>77.236006</ele>
        <time>2021-08-05T10:38:14.000Z</time>
      </trkpt>
      <trkpt lat="51.2484" lon="6.747">
        <ele>77.277617</ele>
        <time>2021-08-05T10:38:16.000Z</time>
      </trkpt>
      <trkpt lat="51.24823" lon="6.74745">
        <ele>77.423971</ele>
        <time>2021-08-05T10:38:23.000Z</time>
      </trkpt>
      <trkpt lat="51.24814" lon="6.74769">
        <ele>77.480761</ele>
        <time>2021-08-05T10:38:27.000Z</time>
      </trkpt>
      <trkpt lat="51.24812" lon="6.74775">
        <ele>77.489531</ele>
        <time>2021-08-05T10:38:28.000Z</time>
      </trkpt>
      <trkpt lat="51.24803" lon="6.748">
        <ele>77.527</ele>
        <time>2021-08-05T10:38:32.000Z</time>
      </trkpt>
      <trkpt lat="51.24796" lon="6.74818">
        <ele>77.553955</ele>
        <time>2021-08-05T10:38:35.000Z</time>
      </trkpt>
      <trkpt lat="51.24791" lon="6.74831">
        <ele>77.573773</ele>
        <time>2021-08-05T10:38:37.000Z</time>
      </trkpt>
      <trkpt lat="51.24784" lon="6.74849">
        <ele>77.600413</ele>
        <time>2021-08-05T10:38:40.000Z</time>
      </trkpt>
      <trkpt lat="51.24774" lon="6.74874">
        <ele>77.638747</ele>
        <time>2021-08-05T10:38:44.000Z</time>
      </trkpt>
      <trkpt lat="51.24764" lon="6.74897">
        <ele>77.674144</ele>
        <time>2021-08-05T10:38:48.000Z</time>
      </trkpt>
      <trkpt lat="51.24762" lon="6.74903">
        <ele>77.683357</ele>
        <time>2021-08-05T10:38:49.000Z</time>
      </trkpt>
      <trkpt lat="51.2476" lon="6.7491">
        <ele>77.692378</ele>
        <time>2021-08-05T10:38:50.000Z</time>
      </trkpt>
      <trkpt lat="51.24758" lon="6.74916">
        <ele>77.701194</ele>
        <time>2021-08-05T10:38:51.000Z</time>
      </trkpt>
      <trkpt lat="51.24756" lon="6.74922">
        <ele>77.709861</ele>
        <time>2021-08-05T10:38:52.000Z</time>
      </trkpt>
      <trkpt lat="51.24742" lon="6.74961">
        <ele>77.7677</ele>
        <time>2021-08-05T10:38:58.000Z</time>
      </trkpt>
      <trkpt lat="51.24734" lon="6.74982">
        <ele>77.798781</ele>
        <time>2021-08-05T10:39:01.000Z</time>
      </trkpt>
      <trkpt lat="51.24726" lon="6.75">
        <ele>77.827391</ele>
        <time>2021-08-05T10:39:04.000Z</time>
      </trkpt>
      <trkpt lat="51.24721" lon="6.75013">
        <ele>77.849403</ele>
        <time>2021-08-05T10:39:06.000Z</time>
      </trkpt>
      <trkpt lat="51.24711" lon="6.75038">
        <ele>77.894261</ele>
        <time>2021-08-05T10:39:10.000Z</time>
      </trkpt>
      <trkpt lat="51.24685" lon="6.751">
        <ele>78.005246</ele>
        <time>2021-08-05T10:39:20.000Z</time>
      </trkpt>
      <trkpt lat="51.24678" lon="6.75116">
        <ele>78.034611</ele>
        <time>2021-08-05T10:39:23.000Z</time>
      </trkpt>
      <trkpt lat="51.24674" lon="6.75126">
        <ele>78.053039</ele>
        <time>2021-08-05T10:39:25.000Z</time>
      </trkpt>
      <trkpt lat="51.24671" lon="6.75137">
        <ele>78.071028</ele>
        <time>2021-08-05T10:39:27.000Z</time>
      </trkpt>
      <trkpt lat="51.24668" lon="6.75142">
        <ele>78.080772</ele>
        <time>2021-08-05T10:39:28.000Z</time>
      </trkpt>
      <trkpt lat="51.2466" lon="6.75158">
        <ele>78.11153</ele>
        <time>2021-08-05T10:39:31.000Z</time>
      </trkpt>
      <trkpt lat="51.24655" lon="6.7517">
        <ele>78.133424</ele>
        <time>2021-08-05T10:39:33.000Z</time>
      </trkpt>
      <trkpt lat="51.24649" lon="6.75182">
        <ele>78.156085</ele>
        <time>2021-08-05T10:39:35.000Z</time>
      </trkpt>
      <trkpt lat="51.24633" lon="6.75214">
        <ele>78.216818</ele>
        <time>2021-08-05T10:39:40.000Z</time>
      </trkpt>
      <trkpt lat="51.24626" lon="6.75234">
        <ele>78.251636</ele>
        <time>2021-08-05T10:39:43.000Z</time>
      </trkpt>
      <trkpt lat="51.24621" lon="6.75246">
        <ele>78.255771</ele>
        <time>2021-08-05T10:39:45.000Z</time>
      </trkpt>
      <trkpt lat="51.24617" lon="6.75258">
        <ele>78.247267</ele>
        <time>2021-08-05T10:39:47.000Z</time>
      </trkpt>
      <trkpt lat="51.24595" lon="6.75303">
        <ele>78.212768</ele>
        <time>2021-08-05T10:39:55.000Z</time>
      </trkpt>
      <trkpt lat="51.24587" lon="6.75319">
        <ele>78.199879</ele>
        <time>2021-08-05T10:39:58.000Z</time>
      </trkpt>
      <trkpt lat="51.24581" lon="6.75331">
        <ele>78.190953</ele>
        <time>2021-08-05T10:40:00.000Z</time>
      </trkpt>
      <trkpt lat="51.24564" lon="6.75367">
        <ele>78.162798</ele>
        <time>2021-08-05T10:40:06.000Z</time>
      </trkpt>
      <trkpt lat="51.24536" lon="6.75421">
        <ele>78.120401</ele>
        <time>2021-08-05T10:40:15.000Z</time>
      </trkpt>
      <trkpt lat="51.24533" lon="6.75426">
        <ele>78.115845</ele>
        <time>2021-08-05T10:40:16.000Z</time>
      </trkpt>
      <trkpt lat="51.24517" lon="6.75456">
        <ele>78.092249</ele>
        <time>2021-08-05T10:40:21.000Z</time>
      </trkpt>
      <trkpt lat="51.24506" lon="6.75477">
        <ele>78.057748</ele>
        <time>2021-08-05T10:40:25.000Z</time>
      </trkpt>
      <trkpt lat="51.24502" lon="6.75482">
        <ele>78.046436</ele>
        <time>2021-08-05T10:40:26.000Z</time>
      </trkpt>
      <trkpt lat="51.24478" lon="6.75527">
        <ele>77.951658</ele>
        <time>2021-08-05T10:40:34.000Z</time>
      </trkpt>
      <trkpt lat="51.24476" lon="6.75533">
        <ele>77.940099</ele>
        <time>2021-08-05T10:40:35.000Z</time>
      </trkpt>
      <trkpt lat="51.24472" lon="6.75538">
        <ele>77.928322</ele>
        <time>2021-08-05T10:40:36.000Z</time>
      </trkpt>
      <trkpt lat="51.24466" lon="6.75549">
        <ele>77.903891</ele>
        <time>2021-08-05T10:40:38.000Z</time>
      </trkpt>
      <trkpt lat="51.24462" lon="6.75558">
        <ele>77.885436</ele>
        <time>2021-08-05T10:40:40.000Z</time>
      </trkpt>
      <trkpt lat="51.24458" lon="6.75564">
        <ele>77.872599</ele>
        <time>2021-08-05T10:40:41.000Z</time>
      </trkpt>
      <trkpt lat="51.24449" lon="6.7558">
        <ele>77.837329</ele>
        <time>2021-08-05T10:40:44.000Z</time>
      </trkpt>
      <trkpt lat="51.24424" lon="6.75619">
        <ele>77.748042</ele>
        <time>2021-08-05T10:40:52.000Z</time>
      </trkpt>
      <trkpt lat="51.244" lon="6.75657">
        <ele>77.66236</ele>
        <time>2021-08-05T10:41:00.000Z</time>
      </trkpt>
      <trkpt lat="51.24382" lon="6.75684">
        <ele>77.634744</ele>
        <time>2021-08-05T10:41:06.000Z</time>
      </trkpt>
      <trkpt lat="51.24345" lon="6.75738">
        <ele>77.692372</ele>
        <time>2021-08-05T10:41:18.000Z</time>
      </trkpt>
      <trkpt lat="51.2433" lon="6.7576">
        <ele>77.715978</ele>
        <time>2021-08-05T10:41:23.000Z</time>
      </trkpt>
      <trkpt lat="51.24323" lon="6.75767">
        <ele>77.725916</ele>
        <time>2021-08-05T10:41:25.000Z</time>
      </trkpt>
      <trkpt lat="51.24319" lon="6.75772">
        <ele>77.730962</ele>
        <time>2021-08-05T10:41:26.000Z</time>
      </trkpt>
      <trkpt lat="51.24316" lon="6.75776">
        <ele>77.735793</ele>
        <time>2021-08-05T10:41:27.000Z</time>
      </trkpt>
      <trkpt lat="51.24314" lon="6.7578">
        <ele>77.739822</ele>
        <time>2021-08-05T10:41:28.000Z</time>
      </trkpt>
      <trkpt lat="51.24298" lon="6.75801">
        <ele>77.763796</ele>
        <time>2021-08-05T10:41:33.000Z</time>
      </trkpt>
      <trkpt lat="51.24287" lon="6.75814">
        <ele>77.779348</ele>
        <time>2021-08-05T10:41:36.000Z</time>
      </trkpt>
      <trkpt lat="51.2427" lon="6.75835">
        <ele>77.803918</ele>
        <time>2021-08-05T10:41:41.000Z</time>
      </trkpt>
      <trkpt lat="51.24263" lon="6.75843">
        <ele>77.813938</ele>
        <time>2021-08-05T10:41:43.000Z</time>
      </trkpt>
      <trkpt lat="51.24235" lon="6.75872">
        <ele>77.870571</ele>
        <time>2021-08-05T10:41:51.000Z</time>
      </trkpt>
      <trkpt lat="51.24223" lon="6.75888">
        <ele>77.903262</ele>
        <time>2021-08-05T10:41:55.000Z</time>
      </trkpt>
      <trkpt lat="51.24217" lon="6.75897">
        <ele>77.920275</ele>
        <time>2021-08-05T10:41:57.000Z</time>
      </trkpt>
      <trkpt lat="51.24192" lon="6.75924">
        <ele>77.982766</ele>
        <time>2021-08-05T10:42:04.000Z</time>
      </trkpt>
      <trkpt lat="51.24184" lon="6.75933">
        <ele>78.002589</ele>
        <time>2021-08-05T10:42:06.000Z</time>
      </trkpt>
      <trkpt lat="51.2418" lon="6.75936">
        <ele>78.011491</ele>
        <time>2021-08-05T10:42:07.000Z</time>
      </trkpt>
      <trkpt lat="51.24156" lon="6.75961">
        <ele>78.072016</ele>
        <time>2021-08-05T10:42:14.000Z</time>
      </trkpt>
      <trkpt lat="51.24145" lon="6.7597">
        <ele>78.097976</ele>
        <time>2021-08-05T10:42:17.000Z</time>
      </trkpt>
      <trkpt lat="51.24141" lon="6.75972">
        <ele>78.106497</ele>
        <time>2021-08-05T10:42:18.000Z</time>
      </trkpt>
      <trkpt lat="51.24132" lon="6.75975">
        <ele>78.124419</ele>
        <time>2021-08-05T10:42:20.000Z</time>
      </trkpt>
      <trkpt lat="51.24129" lon="6.75977">
        <ele>78.132448</ele>
        <time>2021-08-05T10:42:21.000Z</time>
      </trkpt>
      <trkpt lat="51.24122" lon="6.75981">
        <ele>78.147138</ele>
        <time>2021-08-05T10:42:23.000Z</time>
      </trkpt>
      <trkpt lat="51.24109" lon="6.75994">
        <ele>78.179614</ele>
        <time>2021-08-05T10:42:27.000Z</time>
      </trkpt>
      <trkpt lat="51.24099" lon="6.76003">
        <ele>78.202742</ele>
        <time>2021-08-05T10:42:30.000Z</time>
      </trkpt>
      <trkpt lat="51.24088" lon="6.76013">
        <ele>78.20531</ele>
        <time>2021-08-05T10:42:33.000Z</time>
      </trkpt>
      <trkpt lat="51.24077" lon="6.76022">
        <ele>78.204713</ele>
        <time>2021-08-05T10:42:36.000Z</time>
      </trkpt>
      <trkpt lat="51.24065" lon="6.76031">
        <ele>78.204066</ele>
        <time>2021-08-05T10:42:39.000Z</time>
      </trkpt>
      <trkpt lat="51.24057" lon="6.76036">
        <ele>78.203647</ele>
        <time>2021-08-05T10:42:41.000Z</time>
      </trkpt>
      <trkpt lat="51.24035" lon="6.76052">
        <ele>78.202474</ele>
        <time>2021-08-05T10:42:46.000Z</time>
      </trkpt>
      <trkpt lat="51.24023" lon="6.76064">
        <ele>78.201769</ele>
        <time>2021-08-05T10:42:49.000Z</time>
      </trkpt>
      <trkpt lat="51.23989" lon="6.76083">
        <ele>78.200011</ele>
        <time>2021-08-05T10:42:57.000Z</time>
      </trkpt>
      <trkpt lat="51.23973" lon="6.76093">
        <ele>78.199208</ele>
        <time>2021-08-05T10:43:01.000Z</time>
      </trkpt>
      <trkpt lat="51.23968" lon="6.76095">
        <ele>78.198939</ele>
        <time>2021-08-05T10:43:02.000Z</time>
      </trkpt>
      <trkpt lat="51.2396" lon="6.76101">
        <ele>78.19851</ele>
        <time>2021-08-05T10:43:04.000Z</time>
      </trkpt>
      <trkpt lat="51.23932" lon="6.76113">
        <ele>78.197124</ele>
        <time>2021-08-05T10:43:10.000Z</time>
      </trkpt>
      <trkpt lat="51.23925" lon="6.76121">
        <ele>78.197051</ele>
        <time>2021-08-05T10:43:12.000Z</time>
      </trkpt>
      <trkpt lat="51.23916" lon="6.76126">
        <ele>78.196963</ele>
        <time>2021-08-05T10:43:14.000Z</time>
      </trkpt>
      <trkpt lat="51.23902" lon="6.76131">
        <ele>78.196839</ele>
        <time>2021-08-05T10:43:17.000Z</time>
      </trkpt>
      <trkpt lat="51.23862" lon="6.76144">
        <ele>78.196479</ele>
        <time>2021-08-05T10:43:26.000Z</time>
      </trkpt>
      <trkpt lat="51.23838" lon="6.76155">
        <ele>78.196256</ele>
        <time>2021-08-05T10:43:32.000Z</time>
      </trkpt>
      <trkpt lat="51.23831" lon="6.76159">
        <ele>78.196187</ele>
        <time>2021-08-05T10:43:34.000Z</time>
      </trkpt>
      <trkpt lat="51.23827" lon="6.76162">
        <ele>78.196151</ele>
        <time>2021-08-05T10:43:35.000Z</time>
      </trkpt>
      <trkpt lat="51.23807" lon="6.76172">
        <ele>78.195967</ele>
        <time>2021-08-05T10:43:40.000Z</time>
      </trkpt>
      <trkpt lat="51.23794" lon="6.76177">
        <ele>78.195847</ele>
        <time>2021-08-05T10:43:43.000Z</time>
      </trkpt>
      <trkpt lat="51.23783" lon="6.76182">
        <ele>78.195738</ele>
        <time>2021-08-05T10:43:46.000Z</time>
      </trkpt>
      <trkpt lat="51.23771" lon="6.76186">
        <ele>78.195636</ele>
        <time>2021-08-05T10:43:49.000Z</time>
      </trkpt>
      <trkpt lat="51.23756" lon="6.76189">
        <ele>78.201027</ele>
        <time>2021-08-05T10:43:53.000Z</time>
      </trkpt>
      <trkpt lat="51.23744" lon="6.76193">
        <ele>78.217578</ele>
        <time>2021-08-05T10:43:56.000Z</time>
      </trkpt>
      <trkpt lat="51.23739" lon="6.76195">
        <ele>78.223599</ele>
        <time>2021-08-05T10:43:57.000Z</time>
      </trkpt>
      <trkpt lat="51.23711" lon="6.76208">
        <ele>78.262554</ele>
        <time>2021-08-05T10:44:04.000Z</time>
      </trkpt>
      <trkpt lat="51.23682" lon="6.76218">
        <ele>78.302289</ele>
        <time>2021-08-05T10:44:11.000Z</time>
      </trkpt>
      <trkpt lat="51.23669" lon="6.76221">
        <ele>78.320557</ele>
        <time>2021-08-05T10:44:14.000Z</time>
      </trkpt>
      <trkpt lat="51.23643" lon="6.7623">
        <ele>78.357014</ele>
        <time>2021-08-05T10:44:20.000Z</time>
      </trkpt>
      <trkpt lat="51.23629" lon="6.76234">
        <ele>78.375281</ele>
        <time>2021-08-05T10:44:23.000Z</time>
      </trkpt>
      <trkpt lat="51.23622" lon="6.76236">
        <ele>78.38532</ele>
        <time>2021-08-05T10:44:25.000Z</time>
      </trkpt>
      <trkpt lat="51.2361" lon="6.76238">
        <ele>78.401478</ele>
        <time>2021-08-05T10:44:28.000Z</time>
      </trkpt>
      <trkpt lat="51.23601" lon="6.7624">
        <ele>78.413528</ele>
        <time>2021-08-05T10:44:30.000Z</time>
      </trkpt>
      <trkpt lat="51.23597" lon="6.76241">
        <ele>78.419465</ele>
        <time>2021-08-05T10:44:31.000Z</time>
      </trkpt>
      <trkpt lat="51.23581" lon="6.76245">
        <ele>78.440906</ele>
        <time>2021-08-05T10:44:35.000Z</time>
      </trkpt>
      <trkpt lat="51.23562" lon="6.76249">
        <ele>78.475775</ele>
        <time>2021-08-05T10:44:41.000Z</time>
      </trkpt>
      <trkpt lat="51.23537" lon="6.76255">
        <ele>78.519939</ele>
        <time>2021-08-05T10:44:48.000Z</time>
      </trkpt>
      <trkpt lat="51.2351" lon="6.76266">
        <ele>78.568826</ele>
        <time>2021-08-05T10:44:56.000Z</time>
      </trkpt>
      <trkpt lat="51.23507" lon="6.76268">
        <ele>78.574246</ele>
        <time>2021-08-05T10:44:57.000Z</time>
      </trkpt>
      <trkpt lat="51.23484" lon="6.76271">
        <ele>78.614576</ele>
        <time>2021-08-05T10:45:03.000Z</time>
      </trkpt>
      <trkpt lat="51.23456" lon="6.76269">
        <ele>78.663215</ele>
        <time>2021-08-05T10:45:10.000Z</time>
      </trkpt>
      <trkpt lat="51.23428" lon="6.7627">
        <ele>78.712347</ele>
        <time>2021-08-05T10:45:17.000Z</time>
      </trkpt>
      <trkpt lat="51.23424" lon="6.7627">
        <ele>78.719717</ele>
        <time>2021-08-05T10:45:18.000Z</time>
      </trkpt>
      <trkpt lat="51.23416" lon="6.76269">
        <ele>78.733935</ele>
        <time>2021-08-05T10:45:20.000Z</time>
      </trkpt>
      <trkpt lat="51.23394" lon="6.7627">
        <ele>78.961921</ele>
        <time>2021-08-05T10:45:26.000Z</time>
      </trkpt>
      <trkpt lat="51.23388" lon="6.76269">
        <ele>79.063793</ele>
        <time>2021-08-05T10:45:28.000Z</time>
      </trkpt>
      <trkpt lat="51.23381" lon="6.76271">
        <ele>79.197961</ele>
        <time>2021-08-05T10:45:31.000Z</time>
      </trkpt>
      <trkpt lat="51.23376" lon="6.76271">
        <ele>79.287083</ele>
        <time>2021-08-05T10:45:33.000Z</time>
      </trkpt>
      <trkpt lat="51.23373" lon="6.76271">
        <ele>79.332607</ele>
        <time>2021-08-05T10:45:35.000Z</time>
      </trkpt>
      <trkpt lat="51.23373" lon="6.76271">
        <ele>79.336899</ele>
        <time>2021-08-05T10:45:36.000Z</time>
      </trkpt>
      <trkpt lat="51.23373" lon="6.76271">
        <ele>79.342593</ele>
        <time>2021-08-05T10:45:42.000Z</time>
      </trkpt>
      <trkpt lat="51.23373" lon="6.76271">
        <ele>79.342593</ele>
        <time>2021-08-05T10:45:51.000Z</time>
      </trkpt>
      <trkpt lat="51.23373" lon="6.76271">
        <ele>79.342593</ele>
        <time>2021-08-05T10:45:53.000Z</time>
      </trkpt>
      <trkpt lat="51.23373" lon="6.76271">
        <ele>79.344738</ele>
        <time>2021-08-05T10:46:10.000Z</time>
      </trkpt>
      <trkpt lat="51.23367" lon="6.76273">
        <ele>79.452653</ele>
        <time>2021-08-05T10:46:13.000Z</time>
      </trkpt>
      <trkpt lat="51.23359" lon="6.76275">
        <ele>79.600826</ele>
        <time>2021-08-05T10:46:16.000Z</time>
      </trkpt>
      <trkpt lat="51.23352" lon="6.76276">
        <ele>79.741902</ele>
        <time>2021-08-05T10:46:19.000Z</time>
      </trkpt>
      <trkpt lat="51.23349" lon="6.76277">
        <ele>79.79495</ele>
        <time>2021-08-05T10:46:20.000Z</time>
      </trkpt>
      <trkpt lat="51.23344" lon="6.76278">
        <ele>79.883691</ele>
        <time>2021-08-05T10:46:22.000Z</time>
      </trkpt>
      <trkpt lat="51.23334" lon="6.76281">
        <ele>80.060505</ele>
        <time>2021-08-05T10:46:26.000Z</time>
      </trkpt>
      <trkpt lat="51.2333" lon="6.76282">
        <ele>80.144234</ele>
        <time>2021-08-05T10:46:28.000Z</time>
      </trkpt>
      <trkpt lat="51.23312" lon="6.7628">
        <ele>80.459329</ele>
        <time>2021-08-05T10:46:36.000Z</time>
      </trkpt>
      <trkpt lat="51.2331" lon="6.76279">
        <ele>80.507145</ele>
        <time>2021-08-05T10:46:37.000Z</time>
      </trkpt>
      <trkpt lat="51.23288" lon="6.76271">
        <ele>80.909401</ele>
        <time>2021-08-05T10:46:46.000Z</time>
      </trkpt>
      <trkpt lat="51.2328" lon="6.76283">
        <ele>81.114371</ele>
        <time>2021-08-05T10:46:50.000Z</time>
      </trkpt>
      <trkpt lat="51.23278" lon="6.76288">
        <ele>81.172425</ele>
        <time>2021-08-05T10:46:51.000Z</time>
      </trkpt>
      <trkpt lat="51.23265" lon="6.76312">
        <ele>81.547235</ele>
        <time>2021-08-05T10:46:57.000Z</time>
      </trkpt>
      <trkpt lat="51.23262" lon="6.76315">
        <ele>81.614137</ele>
        <time>2021-08-05T10:46:58.000Z</time>
      </trkpt>
      <trkpt lat="51.23238" lon="6.76331">
        <ele>81.97201</ele>
        <time>2021-08-05T10:47:04.000Z</time>
      </trkpt>
      <trkpt lat="51.23225" lon="6.76334">
        <ele>81.697262</ele>
        <time>2021-08-05T10:47:07.000Z</time>
      </trkpt>
      <trkpt lat="51.23215" lon="6.76336">
        <ele>81.511882</ele>
        <time>2021-08-05T10:47:09.000Z</time>
      </trkpt>
      <trkpt lat="51.23206" lon="6.76338">
        <ele>81.330718</ele>
        <time>2021-08-05T10:47:11.000Z</time>
      </trkpt>
      <trkpt lat="51.23202" lon="6.76338">
        <ele>81.241532</ele>
        <time>2021-08-05T10:47:12.000Z</time>
      </trkpt>
      <trkpt lat="51.23197" lon="6.76338">
        <ele>81.152345</ele>
        <time>2021-08-05T10:47:13.000Z</time>
      </trkpt>
      <trkpt lat="51.23193" lon="6.76339">
        <ele>81.063082</ele>
        <time>2021-08-05T10:47:14.000Z</time>
      </trkpt>
      <trkpt lat="51.23178" lon="6.76339">
        <ele>80.76616</ele>
        <time>2021-08-05T10:47:17.000Z</time>
      </trkpt>
      <trkpt lat="51.23164" lon="6.76341">
        <ele>80.504376</ele>
        <time>2021-08-05T10:47:20.000Z</time>
      </trkpt>
      <trkpt lat="51.23155" lon="6.76338">
        <ele>80.321861</ele>
        <time>2021-08-05T10:47:22.000Z</time>
      </trkpt>
      <trkpt lat="51.23149" lon="6.76339">
        <ele>80.191251</ele>
        <time>2021-08-05T10:47:24.000Z</time>
      </trkpt>
      <trkpt lat="51.23139" lon="6.76341">
        <ele>79.995056</ele>
        <time>2021-08-05T10:47:28.000Z</time>
      </trkpt>
      <trkpt lat="51.23124" lon="6.76342">
        <ele>79.702091</ele>
        <time>2021-08-05T10:47:34.000Z</time>
      </trkpt>
      <trkpt lat="51.23124" lon="6.76344">
        <ele>79.668916</ele>
        <time>2021-08-05T10:47:35.000Z</time>
      </trkpt>
      <trkpt lat="51.23122" lon="6.76348">
        <ele>79.608862</ele>
        <time>2021-08-05T10:47:37.000Z</time>
      </trkpt>
      <trkpt lat="51.23116" lon="6.76353">
        <ele>79.478723</ele>
        <time>2021-08-05T10:47:40.000Z</time>
      </trkpt>
      <trkpt lat="51.23099" lon="6.76363">
        <ele>79.10236</ele>
        <time>2021-08-05T10:47:45.000Z</time>
      </trkpt>
      <trkpt lat="51.23089" lon="6.76372">
        <ele>78.892033</ele>
        <time>2021-08-05T10:47:47.000Z</time>
      </trkpt>
      <trkpt lat="51.2308" lon="6.76382">
        <ele>78.667232</ele>
        <time>2021-08-05T10:47:49.000Z</time>
      </trkpt>
      <trkpt lat="51.2307" lon="6.7639">
        <ele>78.45888</ele>
        <time>2021-08-05T10:47:51.000Z</time>
      </trkpt>
      <trkpt lat="51.23061" lon="6.76392">
        <ele>78.376079</ele>
        <time>2021-08-05T10:47:53.000Z</time>
      </trkpt>
      <trkpt lat="51.23056" lon="6.76391">
        <ele>78.333275</ele>
        <time>2021-08-05T10:47:54.000Z</time>
      </trkpt>
      <trkpt lat="51.23051" lon="6.76389">
        <ele>78.290753</ele>
        <time>2021-08-05T10:47:55.000Z</time>
      </trkpt>
      <trkpt lat="51.23042" lon="6.76382">
        <ele>78.200593</ele>
        <time>2021-08-05T10:47:57.000Z</time>
      </trkpt>
      <trkpt lat="51.23027" lon="6.76372">
        <ele>78.062319</ele>
        <time>2021-08-05T10:48:00.000Z</time>
      </trkpt>
      <trkpt lat="51.22985" lon="6.76344">
        <ele>77.670702</ele>
        <time>2021-08-05T10:48:09.000Z</time>
      </trkpt>
      <trkpt lat="51.22981" lon="6.76342">
        <ele>77.634331</ele>
        <time>2021-08-05T10:48:10.000Z</time>
      </trkpt>
      <trkpt lat="51.22964" lon="6.76337">
        <ele>77.487606</ele>
        <time>2021-08-05T10:48:15.000Z</time>
      </trkpt>
      <trkpt lat="51.22933" lon="6.76324">
        <ele>77.207771</ele>
        <time>2021-08-05T10:48:23.000Z</time>
      </trkpt>
      <trkpt lat="51.22921" lon="6.76319">
        <ele>77.102003</ele>
        <time>2021-08-05T10:48:26.000Z</time>
      </trkpt>
      <trkpt lat="51.22904" lon="6.76311">
        <ele>76.950105</ele>
        <time>2021-08-05T10:48:30.000Z</time>
      </trkpt>
      <trkpt lat="51.22891" lon="6.76305">
        <ele>76.950886</ele>
        <time>2021-08-05T10:48:33.000Z</time>
      </trkpt>
      <trkpt lat="51.22867" lon="6.76289">
        <ele>77.046223</ele>
        <time>2021-08-05T10:48:39.000Z</time>
      </trkpt>
      <trkpt lat="51.22853" lon="6.76278">
        <ele>77.103747</ele>
        <time>2021-08-05T10:48:43.000Z</time>
      </trkpt>
      <trkpt lat="51.22836" lon="6.76261">
        <ele>77.177456</ele>
        <time>2021-08-05T10:48:48.000Z</time>
      </trkpt>
      <trkpt lat="51.22829" lon="6.76256">
        <ele>77.205466</ele>
        <time>2021-08-05T10:48:50.000Z</time>
      </trkpt>
      <trkpt lat="51.22822" lon="6.7625">
        <ele>77.236078</ele>
        <time>2021-08-05T10:48:52.000Z</time>
      </trkpt>
      <trkpt lat="51.22818" lon="6.76247">
        <ele>77.250704</ele>
        <time>2021-08-05T10:48:53.000Z</time>
      </trkpt>
      <trkpt lat="51.22807" lon="6.76238">
        <ele>77.297102</ele>
        <time>2021-08-05T10:48:56.000Z</time>
      </trkpt>
      <trkpt lat="51.228" lon="6.76231">
        <ele>77.327991</ele>
        <time>2021-08-05T10:48:58.000Z</time>
      </trkpt>
      <trkpt lat="51.22766" lon="6.762">
        <ele>77.473972</ele>
        <time>2021-08-05T10:49:08.000Z</time>
      </trkpt>
      <trkpt lat="51.22765" lon="6.76199">
        <ele>77.479921</ele>
        <time>2021-08-05T10:49:12.000Z</time>
      </trkpt>
      <trkpt lat="51.22765" lon="6.76199">
        <ele>77.479921</ele>
        <time>2021-08-05T10:49:29.000Z</time>
      </trkpt>
      <trkpt lat="51.22765" lon="6.76199">
        <ele>77.479921</ele>
        <time>2021-08-05T10:49:31.000Z</time>
      </trkpt>
      <trkpt lat="51.22765" lon="6.76199">
        <ele>77.479921</ele>
        <time>2021-08-05T10:49:48.000Z</time>
      </trkpt>
      <trkpt lat="51.22765" lon="6.76199">
        <ele>77.480359</ele>
        <time>2021-08-05T10:49:53.000Z</time>
      </trkpt>
      <trkpt lat="51.22765" lon="6.76198">
        <ele>77.481376</ele>
        <time>2021-08-05T10:49:55.000Z</time>
      </trkpt>
      <trkpt lat="51.22765" lon="6.76198">
        <ele>77.481376</ele>
        <time>2021-08-05T10:50:00.000Z</time>
      </trkpt>
      <trkpt lat="51.22765" lon="6.76198">
        <ele>77.481376</ele>
        <time>2021-08-05T10:50:10.000Z</time>
      </trkpt>
      <trkpt lat="51.22764" lon="6.76198">
        <ele>77.486818</ele>
        <time>2021-08-05T10:50:12.000Z</time>
      </trkpt>
      <trkpt lat="51.22762" lon="6.76196">
        <ele>77.493809</ele>
        <time>2021-08-05T10:50:13.000Z</time>
      </trkpt>
      <trkpt lat="51.2276" lon="6.76194">
        <ele>77.50265</ele>
        <time>2021-08-05T10:50:14.000Z</time>
      </trkpt>
      <trkpt lat="51.22742" lon="6.76178">
        <ele>77.580303</ele>
        <time>2021-08-05T10:50:20.000Z</time>
      </trkpt>
      <trkpt lat="51.22726" lon="6.76162">
        <ele>77.962868</ele>
        <time>2021-08-05T10:50:25.000Z</time>
      </trkpt>
      <trkpt lat="51.22712" lon="6.76147">
        <ele>78.306323</ele>
        <time>2021-08-05T10:50:29.000Z</time>
      </trkpt>
      <trkpt lat="51.22702" lon="6.76137">
        <ele>78.543622</ele>
        <time>2021-08-05T10:50:32.000Z</time>
      </trkpt>
      <trkpt lat="51.22678" lon="6.76109">
        <ele>79.157458</ele>
        <time>2021-08-05T10:50:39.000Z</time>
      </trkpt>
      <trkpt lat="51.22672" lon="6.76102">
        <ele>79.330257</ele>
        <time>2021-08-05T10:50:41.000Z</time>
      </trkpt>
      <trkpt lat="51.22665" lon="6.76093">
        <ele>79.512511</ele>
        <time>2021-08-05T10:50:43.000Z</time>
      </trkpt>
      <trkpt lat="51.22655" lon="6.7608">
        <ele>79.771731</ele>
        <time>2021-08-05T10:50:46.000Z</time>
      </trkpt>
      <trkpt lat="51.22649" lon="6.76071">
        <ele>79.938809</ele>
        <time>2021-08-05T10:50:48.000Z</time>
      </trkpt>
      <trkpt lat="51.22637" lon="6.76051">
        <ele>80.309233</ele>
        <time>2021-08-05T10:50:52.000Z</time>
      </trkpt>
      <trkpt lat="51.22634" lon="6.76045">
        <ele>80.401707</ele>
        <time>2021-08-05T10:50:53.000Z</time>
      </trkpt>
      <trkpt lat="51.22632" lon="6.76038">
        <ele>80.493397</ele>
        <time>2021-08-05T10:50:54.000Z</time>
      </trkpt>
      <trkpt lat="51.2263" lon="6.76026">
        <ele>80.663769</ele>
        <time>2021-08-05T10:50:56.000Z</time>
      </trkpt>
      <trkpt lat="51.22629" lon="6.76016">
        <ele>80.79127</ele>
        <time>2021-08-05T10:50:58.000Z</time>
      </trkpt>
      <trkpt lat="51.22628" lon="6.7601">
        <ele>80.868864</ele>
        <time>2021-08-05T10:51:00.000Z</time>
      </trkpt>
      <trkpt lat="51.22628" lon="6.76005">
        <ele>80.940058</ele>
        <time>2021-08-05T10:51:02.000Z</time>
      </trkpt>
      <trkpt lat="51.22627" lon="6.75989">
        <ele>81.152475</ele>
        <time>2021-08-05T10:51:06.000Z</time>
      </trkpt>
      <trkpt lat="51.22627" lon="6.75981">
        <ele>81.25375</ele>
        <time>2021-08-05T10:51:08.000Z</time>
      </trkpt>
      <trkpt lat="51.22626" lon="6.7597">
        <ele>81.488268</ele>
        <time>2021-08-05T10:51:12.000Z</time>
      </trkpt>
      <trkpt lat="51.22626" lon="6.75963">
        <ele>81.678115</ele>
        <time>2021-08-05T10:51:15.000Z</time>
      </trkpt>
      <trkpt lat="51.22626" lon="6.75962">
        <ele>81.714065</ele>
        <time>2021-08-05T10:51:20.000Z</time>
      </trkpt>
      <trkpt lat="51.22626" lon="6.75962">
        <ele>81.714065</ele>
        <time>2021-08-05T10:51:27.000Z</time>
      </trkpt>
      <trkpt lat="51.22626" lon="6.75962">
        <ele>81.714065</ele>
        <time>2021-08-05T10:51:29.000Z</time>
      </trkpt>
      <trkpt lat="51.22626" lon="6.75962">
        <ele>81.714065</ele>
        <time>2021-08-05T10:51:31.000Z</time>
      </trkpt>
      <trkpt lat="51.22626" lon="6.75962">
        <ele>81.714065</ele>
        <time>2021-08-05T10:51:33.000Z</time>
      </trkpt>
      <trkpt lat="51.22626" lon="6.75962">
        <ele>81.719555</ele>
        <time>2021-08-05T10:51:35.000Z</time>
      </trkpt>
      <trkpt lat="51.22623" lon="6.7596">
        <ele>81.855924</ele>
        <time>2021-08-05T10:51:37.000Z</time>
      </trkpt>
      <trkpt lat="51.2261" lon="6.75963">
        <ele>82.43421</ele>
        <time>2021-08-05T10:51:42.000Z</time>
      </trkpt>
      <trkpt lat="51.22596" lon="6.75968">
        <ele>83.059069</ele>
        <time>2021-08-05T10:51:47.000Z</time>
      </trkpt>
      <trkpt lat="51.22583" lon="6.7597">
        <ele>83.631489</ele>
        <time>2021-08-05T10:51:51.000Z</time>
      </trkpt>
      <trkpt lat="51.2257" lon="6.75971">
        <ele>84.198809</ele>
        <time>2021-08-05T10:51:55.000Z</time>
      </trkpt>
      <trkpt lat="51.22555" lon="6.75972">
        <ele>84.847855</ele>
        <time>2021-08-05T10:52:00.000Z</time>
      </trkpt>
      <trkpt lat="51.22549" lon="6.75973">
        <ele>85.11106</ele>
        <time>2021-08-05T10:52:02.000Z</time>
      </trkpt>
      <trkpt lat="51.22533" lon="6.75975">
        <ele>85.818844</ele>
        <time>2021-08-05T10:52:07.000Z</time>
      </trkpt>
      <trkpt lat="51.2252" lon="6.75976">
        <ele>86.39927</ele>
        <time>2021-08-05T10:52:11.000Z</time>
      </trkpt>
      <trkpt lat="51.22517" lon="6.75977">
        <ele>86.540488</ele>
        <time>2021-08-05T10:52:12.000Z</time>
      </trkpt>
      <trkpt lat="51.22507" lon="6.75979">
        <ele>86.956125</ele>
        <time>2021-08-05T10:52:15.000Z</time>
      </trkpt>
      <trkpt lat="51.22495" lon="6.75983">
        <ele>87.525776</ele>
        <time>2021-08-05T10:52:19.000Z</time>
      </trkpt>
      <trkpt lat="51.22485" lon="6.75987">
        <ele>87.95856</ele>
        <time>2021-08-05T10:52:22.000Z</time>
      </trkpt>
      <trkpt lat="51.22482" lon="6.75988">
        <ele>88.094111</ele>
        <time>2021-08-05T10:52:23.000Z</time>
      </trkpt>
      <trkpt lat="51.22457" lon="6.76">
        <ele>89.20783</ele>
        <time>2021-08-05T10:52:31.000Z</time>
      </trkpt>
      <trkpt lat="51.22447" lon="6.76005">
        <ele>89.308673</ele>
        <time>2021-08-05T10:52:34.000Z</time>
      </trkpt>
      <trkpt lat="51.22424" lon="6.76022">
        <ele>89.565591</ele>
        <time>2021-08-05T10:52:41.000Z</time>
      </trkpt>
      <trkpt lat="51.2242" lon="6.76025">
        <ele>89.604716</ele>
        <time>2021-08-05T10:52:42.000Z</time>
      </trkpt>
      <trkpt lat="51.22392" lon="6.76052">
        <ele>89.939115</ele>
        <time>2021-08-05T10:52:51.000Z</time>
      </trkpt>
      <trkpt lat="51.22385" lon="6.76058">
        <ele>90.014519</ele>
        <time>2021-08-05T10:52:53.000Z</time>
      </trkpt>
      <trkpt lat="51.22359" lon="6.76089">
        <ele>90.339636</ele>
        <time>2021-08-05T10:53:01.000Z</time>
      </trkpt>
      <trkpt lat="51.22332" lon="6.76123">
        <ele>90.691173</ele>
        <time>2021-08-05T10:53:09.000Z</time>
      </trkpt>
      <trkpt lat="51.22324" lon="6.76133">
        <ele>90.786796</ele>
        <time>2021-08-05T10:53:11.000Z</time>
      </trkpt>
      <trkpt lat="51.22309" lon="6.76151">
        <ele>90.971408</ele>
        <time>2021-08-05T10:53:15.000Z</time>
      </trkpt>
      <trkpt lat="51.22291" lon="6.76172">
        <ele>91.051235</ele>
        <time>2021-08-05T10:53:20.000Z</time>
      </trkpt>
      <trkpt lat="51.22251" lon="6.76222">
        <ele>91.183424</ele>
        <time>2021-08-05T10:53:31.000Z</time>
      </trkpt>
      <trkpt lat="51.22247" lon="6.76226">
        <ele>91.195781</ele>
        <time>2021-08-05T10:53:32.000Z</time>
      </trkpt>
      <trkpt lat="51.22236" lon="6.76239">
        <ele>91.231141</ele>
        <time>2021-08-05T10:53:35.000Z</time>
      </trkpt>
      <trkpt lat="51.22225" lon="6.76251">
        <ele>91.265938</ele>
        <time>2021-08-05T10:53:38.000Z</time>
      </trkpt>
      <trkpt lat="51.22207" lon="6.76273">
        <ele>91.325453</ele>
        <time>2021-08-05T10:53:43.000Z</time>
      </trkpt>
      <trkpt lat="51.22186" lon="6.76299">
        <ele>91.394977</ele>
        <time>2021-08-05T10:53:49.000Z</time>
      </trkpt>
      <trkpt lat="51.22175" lon="6.76311">
        <ele>91.429627</ele>
        <time>2021-08-05T10:53:52.000Z</time>
      </trkpt>
      <trkpt lat="51.22159" lon="6.76329">
        <ele>91.445657</ele>
        <time>2021-08-05T10:53:56.000Z</time>
      </trkpt>
      <trkpt lat="51.22145" lon="6.76345">
        <ele>91.370523</ele>
        <time>2021-08-05T10:54:00.000Z</time>
      </trkpt>
      <trkpt lat="51.2213" lon="6.76362">
        <ele>91.291727</ele>
        <time>2021-08-05T10:54:04.000Z</time>
      </trkpt>
      <trkpt lat="51.22127" lon="6.76367">
        <ele>91.271857</ele>
        <time>2021-08-05T10:54:05.000Z</time>
      </trkpt>
      <trkpt lat="51.22108" lon="6.7639">
        <ele>91.169275</ele>
        <time>2021-08-05T10:54:10.000Z</time>
      </trkpt>
      <trkpt lat="51.22066" lon="6.7644">
        <ele>90.938193</ele>
        <time>2021-08-05T10:54:21.000Z</time>
      </trkpt>
      <trkpt lat="51.22055" lon="6.76454">
        <ele>90.875899</ele>
        <time>2021-08-05T10:54:24.000Z</time>
      </trkpt>
      <trkpt lat="51.22029" lon="6.76485">
        <ele>90.733661</ele>
        <time>2021-08-05T10:54:31.000Z</time>
      </trkpt>
      <trkpt lat="51.21987" lon="6.76535">
        <ele>90.062903</ele>
        <time>2021-08-05T10:54:42.000Z</time>
      </trkpt>
      <trkpt lat="51.21984" lon="6.76539">
        <ele>89.995104</ele>
        <time>2021-08-05T10:54:43.000Z</time>
      </trkpt>
      <trkpt lat="51.21947" lon="6.76583">
        <ele>89.285647</ele>
        <time>2021-08-05T10:54:53.000Z</time>
      </trkpt>
      <trkpt lat="51.21936" lon="6.76597">
        <ele>89.07302</ele>
        <time>2021-08-05T10:54:56.000Z</time>
      </trkpt>
      <trkpt lat="51.21922" lon="6.76616">
        <ele>88.788658</ele>
        <time>2021-08-05T10:55:00.000Z</time>
      </trkpt>
      <trkpt lat="51.21913" lon="6.76631">
        <ele>88.58391</ele>
        <time>2021-08-05T10:55:03.000Z</time>
      </trkpt>
      <trkpt lat="51.21887" lon="6.76675">
        <ele>87.992227</ele>
        <time>2021-08-05T10:55:12.000Z</time>
      </trkpt>
      <trkpt lat="51.21873" lon="6.76704">
        <ele>87.277766</ele>
        <time>2021-08-05T10:55:18.000Z</time>
      </trkpt>
      <trkpt lat="51.21872" lon="6.76709">
        <ele>87.161818</ele>
        <time>2021-08-05T10:55:19.000Z</time>
      </trkpt>
      <trkpt lat="51.21872" lon="6.76714">
        <ele>87.04779</ele>
        <time>2021-08-05T10:55:20.000Z</time>
      </trkpt>
      <trkpt lat="51.21875" lon="6.76734">
        <ele>86.552051</ele>
        <time>2021-08-05T10:55:24.000Z</time>
      </trkpt>
      <trkpt lat="51.21878" lon="6.76742">
        <ele>86.329542</ele>
        <time>2021-08-05T10:55:26.000Z</time>
      </trkpt>
      <trkpt lat="51.21884" lon="6.76747">
        <ele>86.096832</ele>
        <time>2021-08-05T10:55:28.000Z</time>
      </trkpt>
      <trkpt lat="51.2189" lon="6.76746">
        <ele>85.869188</ele>
        <time>2021-08-05T10:55:30.000Z</time>
      </trkpt>
      <trkpt lat="51.21892" lon="6.76743">
        <ele>85.755713</ele>
        <time>2021-08-05T10:55:31.000Z</time>
      </trkpt>
      <trkpt lat="51.21899" lon="6.76729">
        <ele>85.333298</ele>
        <time>2021-08-05T10:55:34.000Z</time>
      </trkpt>
      <trkpt lat="51.219" lon="6.76723">
        <ele>85.188844</ele>
        <time>2021-08-05T10:55:35.000Z</time>
      </trkpt>
      <trkpt lat="51.21898" lon="6.76705">
        <ele>84.773404</ele>
        <time>2021-08-05T10:55:38.000Z</time>
      </trkpt>
      <trkpt lat="51.21895" lon="6.76696">
        <ele>84.514872</ele>
        <time>2021-08-05T10:55:40.000Z</time>
      </trkpt>
      <trkpt lat="51.21893" lon="6.76692">
        <ele>84.395415</ele>
        <time>2021-08-05T10:55:41.000Z</time>
      </trkpt>
      <trkpt lat="51.21882" lon="6.76687">
        <ele>83.956233</ele>
        <time>2021-08-05T10:55:44.000Z</time>
      </trkpt>
      <trkpt lat="51.21878" lon="6.76688">
        <ele>83.812713</ele>
        <time>2021-08-05T10:55:46.000Z</time>
      </trkpt>
      <trkpt lat="51.21877" lon="6.76688">
        <ele>83.781196</ele>
        <time>2021-08-05T10:55:47.000Z</time>
      </trkpt>
      <trkpt lat="51.21877" lon="6.76687">
        <ele>83.767225</ele>
        <time>2021-08-05T10:55:48.000Z</time>
      </trkpt>
      <trkpt lat="51.21879" lon="6.76683">
        <ele>83.643307</ele>
        <time>2021-08-05T10:55:50.000Z</time>
      </trkpt>
      <trkpt lat="51.21882" lon="6.76678">
        <ele>83.482582</ele>
        <time>2021-08-05T10:55:52.000Z</time>
      </trkpt>
      <trkpt lat="51.21888" lon="6.76673">
        <ele>83.213603</ele>
        <time>2021-08-05T10:55:54.000Z</time>
      </trkpt>
      <trkpt lat="51.21899" lon="6.7666">
        <ele>82.72719</ele>
        <time>2021-08-05T10:55:58.000Z</time>
      </trkpt>
      <trkpt lat="51.21903" lon="6.76658">
        <ele>82.565694</ele>
        <time>2021-08-05T10:55:59.000Z</time>
      </trkpt>
      <trkpt lat="51.21913" lon="6.76649">
        <ele>82.130921</ele>
        <time>2021-08-05T10:56:03.000Z</time>
      </trkpt>
      <trkpt lat="51.21919" lon="6.76643">
        <ele>81.860314</ele>
        <time>2021-08-05T10:56:06.000Z</time>
      </trkpt>
      <trkpt lat="51.21924" lon="6.76643">
        <ele>81.676093</ele>
        <time>2021-08-05T10:56:08.000Z</time>
      </trkpt>
      <trkpt lat="51.21925" lon="6.76647">
        <ele>81.578221</ele>
        <time>2021-08-05T10:56:09.000Z</time>
      </trkpt>
      <trkpt lat="51.21933" lon="6.76649">
        <ele>81.267345</ele>
        <time>2021-08-05T10:56:13.000Z</time>
      </trkpt>
      <trkpt lat="51.21959" lon="6.76666">
        <ele>80.68809</ele>
        <time>2021-08-05T10:56:24.000Z</time>
      </trkpt>
      <trkpt lat="51.21967" lon="6.76664">
        <ele>80.543279</ele>
        <time>2021-08-05T10:56:28.000Z</time>
      </trkpt>
      <trkpt lat="51.21974" lon="6.76655">
        <ele>80.377873</ele>
        <time>2021-08-05T10:56:34.000Z</time>
      </trkpt>
      <trkpt lat="51.21983" lon="6.76658">
        <ele>80.214036</ele>
        <time>2021-08-05T10:56:39.000Z</time>
      </trkpt>
      <trkpt lat="51.21989" lon="6.76663">
        <ele>80.087944</ele>
        <time>2021-08-05T10:56:42.000Z</time>
      </trkpt>
      <trkpt lat="51.21994" lon="6.76666">
        <ele>79.990556</ele>
        <time>2021-08-05T10:56:45.000Z</time>
      </trkpt>
      <trkpt lat="51.21999" lon="6.76669">
        <ele>79.897892</ele>
        <time>2021-08-05T10:56:48.000Z</time>
      </trkpt>
      <trkpt lat="51.22003" lon="6.7667">
        <ele>79.807138</ele>
        <time>2021-08-05T10:56:51.000Z</time>
      </trkpt>
      <trkpt lat="51.22005" lon="6.76668">
        <ele>79.776619</ele>
        <time>2021-08-05T10:56:52.000Z</time>
      </trkpt>
      <trkpt lat="51.22006" lon="6.76659">
        <ele>79.662228</ele>
        <time>2021-08-05T10:56:56.000Z</time>
      </trkpt>
      <trkpt lat="51.22008" lon="6.76653">
        <ele>79.592672</ele>
        <time>2021-08-05T10:56:58.000Z</time>
      </trkpt>
      <trkpt lat="51.22009" lon="6.76652">
        <ele>79.561957</ele>
        <time>2021-08-05T10:56:59.000Z</time>
      </trkpt>
      <trkpt lat="51.22013" lon="6.76653">
        <ele>79.48138</ele>
        <time>2021-08-05T10:57:01.000Z</time>
      </trkpt>
      <trkpt lat="51.22021" lon="6.76656">
        <ele>79.339769</ele>
        <time>2021-08-05T10:57:04.000Z</time>
      </trkpt>
      <trkpt lat="51.22027" lon="6.76656">
        <ele>79.233434</ele>
        <time>2021-08-05T10:57:06.000Z</time>
      </trkpt>
      <trkpt lat="51.22031" lon="6.76657">
        <ele>79.157505</ele>
        <time>2021-08-05T10:57:08.000Z</time>
      </trkpt>
      <trkpt lat="51.22037" lon="6.76659">
        <ele>79.036531</ele>
        <time>2021-08-05T10:57:12.000Z</time>
      </trkpt>
      <trkpt lat="51.22039" lon="6.7666">
        <ele>79.005665</ele>
        <time>2021-08-05T10:57:14.000Z</time>
      </trkpt>
      <trkpt lat="51.22039" lon="6.76661">
        <ele>78.997872</ele>
        <time>2021-08-05T10:57:17.000Z</time>
      </trkpt>
      <trkpt lat="51.22039" lon="6.76661">
        <ele>78.997872</ele>
        <time>2021-08-05T10:57:28.000Z</time>
      </trkpt>
      <trkpt lat="51.22039" lon="6.76661">
        <ele>78.997872</ele>
        <time>2021-08-05T10:57:35.000Z</time>
      </trkpt>
      <trkpt lat="51.22039" lon="6.76661">
        <ele>78.997872</ele>
        <time>2021-08-05T10:57:41.000Z</time>
      </trkpt>
      <trkpt lat="51.22039" lon="6.76661">
        <ele>78.997872</ele>
        <time>2021-08-05T10:57:46.000Z</time>
      </trkpt>
      <trkpt lat="51.22039" lon="6.76661">
        <ele>78.997872</ele>
        <time>2021-08-05T10:57:52.000Z</time>
      </trkpt>
      <trkpt lat="51.22039" lon="6.76661">
        <ele>78.997872</ele>
        <time>2021-08-05T10:57:56.000Z</time>
      </trkpt>
      <trkpt lat="51.22039" lon="6.76661">
        <ele>78.997872</ele>
        <time>2021-08-05T10:58:06.000Z</time>
      </trkpt>
      <trkpt lat="51.22039" lon="6.76661">
        <ele>78.997872</ele>
        <time>2021-08-05T10:58:08.000Z</time>
      </trkpt>
      <trkpt lat="51.22039" lon="6.76661">
        <ele>78.997872</ele>
        <time>2021-08-05T10:58:15.000Z</time>
      </trkpt>
      <trkpt lat="51.22039" lon="6.76661">
        <ele>78.997872</ele>
        <time>2021-08-05T10:58:19.000Z</time>
      </trkpt>
      <trkpt lat="51.22041" lon="6.7666">
        <ele>78.957894</ele>
        <time>2021-08-05T10:58:21.000Z</time>
      </trkpt>
      <trkpt lat="51.22047" lon="6.76656">
        <ele>78.844382</ele>
        <time>2021-08-05T10:58:23.000Z</time>
      </trkpt>
      <trkpt lat="51.22055" lon="6.76654">
        <ele>78.684353</ele>
        <time>2021-08-05T10:58:25.000Z</time>
      </trkpt>
      <trkpt lat="51.22065" lon="6.76652">
        <ele>78.513343</ele>
        <time>2021-08-05T10:58:27.000Z</time>
      </trkpt>
      <trkpt lat="51.22069" lon="6.76653">
        <ele>78.429061</ele>
        <time>2021-08-05T10:58:28.000Z</time>
      </trkpt>
      <trkpt lat="51.22078" lon="6.76655">
        <ele>78.270833</ele>
        <time>2021-08-05T10:58:30.000Z</time>
      </trkpt>
      <trkpt lat="51.22081" lon="6.76657">
        <ele>78.212162</ele>
        <time>2021-08-05T10:58:31.000Z</time>
      </trkpt>
      <trkpt lat="51.22085" lon="6.7666">
        <ele>78.124117</ele>
        <time>2021-08-05T10:58:32.000Z</time>
      </trkpt>
      <trkpt lat="51.22088" lon="6.76663">
        <ele>78.055908</ele>
        <time>2021-08-05T10:58:33.000Z</time>
      </trkpt>
      <trkpt lat="51.22091" lon="6.76667">
        <ele>77.985052</ele>
        <time>2021-08-05T10:58:34.000Z</time>
      </trkpt>
      <trkpt lat="51.22104" lon="6.76688">
        <ele>77.828527</ele>
        <time>2021-08-05T10:58:39.000Z</time>
      </trkpt>
      <trkpt lat="51.22124" lon="6.76705">
        <ele>77.791143</ele>
        <time>2021-08-05T10:58:44.000Z</time>
      </trkpt>
      <trkpt lat="51.22137" lon="6.7672">
        <ele>77.763264</ele>
        <time>2021-08-05T10:58:48.000Z</time>
      </trkpt>
      <trkpt lat="51.22149" lon="6.76732">
        <ele>77.739797</ele>
        <time>2021-08-05T10:58:51.000Z</time>
      </trkpt>
      <trkpt lat="51.2218" lon="6.76758">
        <ele>77.680929</ele>
        <time>2021-08-05T10:58:59.000Z</time>
      </trkpt>
      <trkpt lat="51.22229" lon="6.76799">
        <ele>77.58902</ele>
        <time>2021-08-05T10:59:11.000Z</time>
      </trkpt>
      <trkpt lat="51.2225" lon="6.76814">
        <ele>77.548993</ele>
        <time>2021-08-05T10:59:16.000Z</time>
      </trkpt>
      <trkpt lat="51.22268" lon="6.76827">
        <ele>77.58371</ele>
        <time>2021-08-05T10:59:20.000Z</time>
      </trkpt>
      <trkpt lat="51.22294" lon="6.76848">
        <ele>77.650557</ele>
        <time>2021-08-05T10:59:26.000Z</time>
      </trkpt>
      <trkpt lat="51.22317" lon="6.76863">
        <ele>77.707348</ele>
        <time>2021-08-05T10:59:31.000Z</time>
      </trkpt>
      <trkpt lat="51.22336" lon="6.76875">
        <ele>77.755571</ele>
        <time>2021-08-05T10:59:35.000Z</time>
      </trkpt>
      <trkpt lat="51.2235" lon="6.76883">
        <ele>77.789496</ele>
        <time>2021-08-05T10:59:38.000Z</time>
      </trkpt>
      <trkpt lat="51.22365" lon="6.76892">
        <ele>77.82569</ele>
        <time>2021-08-05T10:59:41.000Z</time>
      </trkpt>
      <trkpt lat="51.22373" lon="6.76897">
        <ele>77.846498</ele>
        <time>2021-08-05T10:59:43.000Z</time>
      </trkpt>
      <trkpt lat="51.22381" lon="6.76903">
        <ele>77.866285</ele>
        <time>2021-08-05T10:59:45.000Z</time>
      </trkpt>
      <trkpt lat="51.22393" lon="6.7691">
        <ele>77.896334</ele>
        <time>2021-08-05T10:59:48.000Z</time>
      </trkpt>
      <trkpt lat="51.22418" lon="6.76926">
        <ele>77.957281</ele>
        <time>2021-08-05T10:59:54.000Z</time>
      </trkpt>
      <trkpt lat="51.22427" lon="6.76929">
        <ele>78.003865</ele>
        <time>2021-08-05T10:59:56.000Z</time>
      </trkpt>
      <trkpt lat="51.22431" lon="6.7693">
        <ele>78.028059</ele>
        <time>2021-08-05T10:59:57.000Z</time>
      </trkpt>
      <trkpt lat="51.22435" lon="6.76932">
        <ele>78.052162</ele>
        <time>2021-08-05T10:59:58.000Z</time>
      </trkpt>
      <trkpt lat="51.22458" lon="6.76948">
        <ele>78.192092</ele>
        <time>2021-08-05T11:00:04.000Z</time>
      </trkpt>
      <trkpt lat="51.22471" lon="6.76955">
        <ele>78.264321</ele>
        <time>2021-08-05T11:00:08.000Z</time>
      </trkpt>
      <trkpt lat="51.22476" lon="6.76957">
        <ele>78.293805</ele>
        <time>2021-08-05T11:00:10.000Z</time>
      </trkpt>
      <trkpt lat="51.22499" lon="6.76969">
        <ele>78.426979</ele>
        <time>2021-08-05T11:00:17.000Z</time>
      </trkpt>
      <trkpt lat="51.22506" lon="6.76973">
        <ele>78.469833</ele>
        <time>2021-08-05T11:00:20.000Z</time>
      </trkpt>
      <trkpt lat="51.22517" lon="6.7698">
        <ele>78.536764</ele>
        <time>2021-08-05T11:00:25.000Z</time>
      </trkpt>
      <trkpt lat="51.22533" lon="6.76986">
        <ele>78.629798</ele>
        <time>2021-08-05T11:00:32.000Z</time>
      </trkpt>
      <trkpt lat="51.22536" lon="6.76987">
        <ele>78.642048</ele>
        <time>2021-08-05T11:00:33.000Z</time>
      </trkpt>
      <trkpt lat="51.22548" lon="6.76993">
        <ele>78.712405</ele>
        <time>2021-08-05T11:00:38.000Z</time>
      </trkpt>
      <trkpt lat="51.22557" lon="6.76998">
        <ele>78.767845</ele>
        <time>2021-08-05T11:00:43.000Z</time>
      </trkpt>
      <trkpt lat="51.22558" lon="6.76998">
        <ele>78.769647</ele>
        <time>2021-08-05T11:00:48.000Z</time>
      </trkpt>
      <trkpt lat="51.22558" lon="6.76998">
        <ele>78.769647</ele>
        <time>2021-08-05T11:00:57.000Z</time>
      </trkpt>
      <trkpt lat="51.22559" lon="6.76999">
        <ele>78.780538</ele>
        <time>2021-08-05T11:01:08.000Z</time>
      </trkpt>
      <trkpt lat="51.22564" lon="6.77001">
        <ele>78.805713</ele>
        <time>2021-08-05T11:01:10.000Z</time>
      </trkpt>
      <trkpt lat="51.22573" lon="6.77007">
        <ele>78.862209</ele>
        <time>2021-08-05T11:01:15.000Z</time>
      </trkpt>
      <trkpt lat="51.22578" lon="6.7701">
        <ele>78.893257</ele>
        <time>2021-08-05T11:01:19.000Z</time>
      </trkpt>
      <trkpt lat="51.22585" lon="6.77014">
        <ele>78.930752</ele>
        <time>2021-08-05T11:01:25.000Z</time>
      </trkpt>
      <trkpt lat="51.22589" lon="6.77014">
        <ele>78.952946</ele>
        <time>2021-08-05T11:01:29.000Z</time>
      </trkpt>
      <trkpt lat="51.2259" lon="6.77015">
        <ele>78.956703</ele>
        <time>2021-08-05T11:01:32.000Z</time>
      </trkpt>
      <trkpt lat="51.22596" lon="6.77017">
        <ele>78.978521</ele>
        <time>2021-08-05T11:01:39.000Z</time>
      </trkpt>
      <trkpt lat="51.22598" lon="6.77016">
        <ele>78.987305</ele>
        <time>2021-08-05T11:01:41.000Z</time>
      </trkpt>
      <trkpt lat="51.22599" lon="6.77015">
        <ele>78.991945</ele>
        <time>2021-08-05T11:01:43.000Z</time>
      </trkpt>
      <trkpt lat="51.22599" lon="6.77015">
        <ele>78.991945</ele>
        <time>2021-08-05T11:01:45.000Z</time>
      </trkpt>
      <trkpt lat="51.22536" lon="6.76985">
        <ele>79.218871</ele>
        <time>2021-08-05T11:47:05.000Z</time>
      </trkpt>
      <trkpt lat="51.22533" lon="6.76984">
        <ele>79.229647</ele>
        <time>2021-08-05T11:47:06.000Z</time>
      </trkpt>
      <trkpt lat="51.22514" lon="6.76974">
        <ele>79.297109</ele>
        <time>2021-08-05T11:47:13.000Z</time>
      </trkpt>
      <trkpt lat="51.22503" lon="6.76967">
        <ele>79.340166</ele>
        <time>2021-08-05T11:47:20.000Z</time>
      </trkpt>
      <trkpt lat="51.225" lon="6.76964">
        <ele>79.350863</ele>
        <time>2021-08-05T11:47:22.000Z</time>
      </trkpt>
      <trkpt lat="51.2249" lon="6.76959">
        <ele>79.387441</ele>
        <time>2021-08-05T11:47:29.000Z</time>
      </trkpt>
      <trkpt lat="51.22482" lon="6.76955">
        <ele>79.41513</ele>
        <time>2021-08-05T11:47:38.000Z</time>
      </trkpt>
      <trkpt lat="51.22479" lon="6.76954">
        <ele>79.424861</ele>
        <time>2021-08-05T11:47:41.000Z</time>
      </trkpt>
      <trkpt lat="51.22477" lon="6.76952">
        <ele>79.432661</ele>
        <time>2021-08-05T11:47:44.000Z</time>
      </trkpt>
      <trkpt lat="51.22478" lon="6.7695">
        <ele>79.437685</ele>
        <time>2021-08-05T11:47:49.000Z</time>
      </trkpt>
      <trkpt lat="51.22477" lon="6.7695">
        <ele>79.439073</ele>
        <time>2021-08-05T11:47:51.000Z</time>
      </trkpt>
      <trkpt lat="51.22477" lon="6.76952">
        <ele>79.444022</ele>
        <time>2021-08-05T11:47:53.000Z</time>
      </trkpt>
      <trkpt lat="51.22478" lon="6.76955">
        <ele>79.450825</ele>
        <time>2021-08-05T11:47:55.000Z</time>
      </trkpt>
      <trkpt lat="51.22479" lon="6.7696">
        <ele>79.460873</ele>
        <time>2021-08-05T11:47:58.000Z</time>
      </trkpt>
      <trkpt lat="51.22472" lon="6.76954">
        <ele>79.487212</ele>
        <time>2021-08-05T12:00:08.000Z</time>
      </trkpt>
      <trkpt lat="51.22476" lon="6.76953">
        <ele>79.501249</ele>
        <time>2021-08-05T12:00:09.000Z</time>
      </trkpt>
      <trkpt lat="51.22479" lon="6.76954">
        <ele>79.513461</ele>
        <time>2021-08-05T12:00:10.000Z</time>
      </trkpt>
      <trkpt lat="51.22481" lon="6.76952">
        <ele>79.520426</ele>
        <time>2021-08-05T12:00:11.000Z</time>
      </trkpt>
      <trkpt lat="51.22481" lon="6.76952">
        <ele>79.521155</ele>
        <time>2021-08-05T12:00:12.000Z</time>
      </trkpt>
      <trkpt lat="51.22481" lon="6.76951">
        <ele>79.523087</ele>
        <time>2021-08-05T12:00:28.000Z</time>
      </trkpt>
      <trkpt lat="51.22477" lon="6.76949">
        <ele>79.536736</ele>
        <time>2021-08-05T12:00:36.000Z</time>
      </trkpt>
      <trkpt lat="51.22475" lon="6.76949">
        <ele>79.54342</ele>
        <time>2021-08-05T12:00:38.000Z</time>
      </trkpt>
      <trkpt lat="51.22467" lon="6.76945">
        <ele>79.572719</ele>
        <time>2021-08-05T12:00:42.000Z</time>
      </trkpt>
      <trkpt lat="51.22449" lon="6.76935">
        <ele>79.625609</ele>
        <time>2021-08-05T12:00:48.000Z</time>
      </trkpt>
      <trkpt lat="51.22444" lon="6.76933">
        <ele>79.639071</ele>
        <time>2021-08-05T12:00:50.000Z</time>
      </trkpt>
      <trkpt lat="51.22437" lon="6.7693">
        <ele>79.660345</ele>
        <time>2021-08-05T12:00:53.000Z</time>
      </trkpt>
      <trkpt lat="51.22417" lon="6.76914">
        <ele>79.72114</ele>
        <time>2021-08-05T12:01:01.000Z</time>
      </trkpt>
      <trkpt lat="51.22415" lon="6.76913">
        <ele>79.728971</ele>
        <time>2021-08-05T12:01:02.000Z</time>
      </trkpt>
      <trkpt lat="51.22395" lon="6.76903">
        <ele>79.785419</ele>
        <time>2021-08-05T12:01:09.000Z</time>
      </trkpt>
      <trkpt lat="51.22387" lon="6.76899">
        <ele>79.809524</ele>
        <time>2021-08-05T12:01:12.000Z</time>
      </trkpt>
      <trkpt lat="51.22384" lon="6.76898">
        <ele>79.818422</ele>
        <time>2021-08-05T12:01:13.000Z</time>
      </trkpt>
      <trkpt lat="51.22365" lon="6.76886">
        <ele>79.874261</ele>
        <time>2021-08-05T12:01:19.000Z</time>
      </trkpt>
      <trkpt lat="51.22334" lon="6.76869">
        <ele>79.966229</ele>
        <time>2021-08-05T12:01:28.000Z</time>
      </trkpt>
      <trkpt lat="51.22312" lon="6.76854">
        <ele>80.031102</ele>
        <time>2021-08-05T12:01:34.000Z</time>
      </trkpt>
      <trkpt lat="51.22297" lon="6.76846">
        <ele>80.078049</ele>
        <time>2021-08-05T12:01:38.000Z</time>
      </trkpt>
      <trkpt lat="51.2229" lon="6.76843">
        <ele>80.113022</ele>
        <time>2021-08-05T12:01:40.000Z</time>
      </trkpt>
      <trkpt lat="51.22265" lon="6.76825">
        <ele>80.238595</ele>
        <time>2021-08-05T12:01:47.000Z</time>
      </trkpt>
      <trkpt lat="51.22236" lon="6.76802">
        <ele>80.388038</ele>
        <time>2021-08-05T12:01:55.000Z</time>
      </trkpt>
      <trkpt lat="51.22217" lon="6.76789">
        <ele>80.482493</ele>
        <time>2021-08-05T12:02:00.000Z</time>
      </trkpt>
      <trkpt lat="51.22202" lon="6.76779">
        <ele>80.556595</ele>
        <time>2021-08-05T12:02:04.000Z</time>
      </trkpt>
      <trkpt lat="51.22198" lon="6.76776">
        <ele>80.576641</ele>
        <time>2021-08-05T12:02:05.000Z</time>
      </trkpt>
      <trkpt lat="51.22173" lon="6.76758">
        <ele>80.703001</ele>
        <time>2021-08-05T12:02:12.000Z</time>
      </trkpt>
      <trkpt lat="51.22169" lon="6.76756">
        <ele>80.721554</ele>
        <time>2021-08-05T12:02:13.000Z</time>
      </trkpt>
      <trkpt lat="51.22144" lon="6.76732">
        <ele>80.856133</ele>
        <time>2021-08-05T12:02:20.000Z</time>
      </trkpt>
      <trkpt lat="51.22115" lon="6.76698">
        <ele>81.400494</ele>
        <time>2021-08-05T12:02:29.000Z</time>
      </trkpt>
      <trkpt lat="51.22093" lon="6.76673">
        <ele>81.904705</ele>
        <time>2021-08-05T12:02:36.000Z</time>
      </trkpt>
      <trkpt lat="51.22083" lon="6.76662">
        <ele>82.132593</ele>
        <time>2021-08-05T12:02:39.000Z</time>
      </trkpt>
      <trkpt lat="51.22068" lon="6.76651">
        <ele>82.446194</ele>
        <time>2021-08-05T12:02:43.000Z</time>
      </trkpt>
      <trkpt lat="51.22059" lon="6.7665">
        <ele>82.601918</ele>
        <time>2021-08-05T12:02:45.000Z</time>
      </trkpt>
      <trkpt lat="51.2205" lon="6.76652">
        <ele>82.780549</ele>
        <time>2021-08-05T12:02:48.000Z</time>
      </trkpt>
      <trkpt lat="51.22045" lon="6.76653">
        <ele>82.870792</ele>
        <time>2021-08-05T12:02:50.000Z</time>
      </trkpt>
      <trkpt lat="51.22035" lon="6.76652">
        <ele>83.061379</ele>
        <time>2021-08-05T12:02:54.000Z</time>
      </trkpt>
      <trkpt lat="51.22025" lon="6.76652">
        <ele>83.238766</ele>
        <time>2021-08-05T12:02:58.000Z</time>
      </trkpt>
      <trkpt lat="51.22015" lon="6.7665">
        <ele>83.43608</ele>
        <time>2021-08-05T12:03:03.000Z</time>
      </trkpt>
      <trkpt lat="51.2201" lon="6.76649">
        <ele>83.526626</ele>
        <time>2021-08-05T12:03:05.000Z</time>
      </trkpt>
      <trkpt lat="51.21994" lon="6.76647">
        <ele>83.81665</ele>
        <time>2021-08-05T12:03:11.000Z</time>
      </trkpt>
      <trkpt lat="51.21973" lon="6.76644">
        <ele>84.216127</ele>
        <time>2021-08-05T12:03:19.000Z</time>
      </trkpt>
      <trkpt lat="51.2197" lon="6.76643">
        <ele>84.260299</ele>
        <time>2021-08-05T12:03:20.000Z</time>
      </trkpt>
      <trkpt lat="51.2195" lon="6.76626">
        <ele>84.395398</ele>
        <time>2021-08-05T12:03:27.000Z</time>
      </trkpt>
      <trkpt lat="51.21947" lon="6.76624">
        <ele>84.413955</ele>
        <time>2021-08-05T12:03:28.000Z</time>
      </trkpt>
      <trkpt lat="51.21937" lon="6.76615">
        <ele>84.482693</ele>
        <time>2021-08-05T12:03:32.000Z</time>
      </trkpt>
      <trkpt lat="51.21932" lon="6.76612">
        <ele>84.50981</ele>
        <time>2021-08-05T12:03:35.000Z</time>
      </trkpt>
      <trkpt lat="51.21925" lon="6.76609">
        <ele>84.551947</ele>
        <time>2021-08-05T12:03:39.000Z</time>
      </trkpt>
      <trkpt lat="51.21884" lon="6.76571">
        <ele>84.833042</ele>
        <time>2021-08-05T12:03:48.000Z</time>
      </trkpt>
      <trkpt lat="51.21876" lon="6.76573">
        <ele>84.878998</ele>
        <time>2021-08-05T12:03:51.000Z</time>
      </trkpt>
      <trkpt lat="51.21859" lon="6.76542">
        <ele>85.031731</ele>
        <time>2021-08-05T12:03:58.000Z</time>
      </trkpt>
      <trkpt lat="51.21846" lon="6.76513">
        <ele>85.161784</ele>
        <time>2021-08-05T12:04:04.000Z</time>
      </trkpt>
      <trkpt lat="51.21843" lon="6.76509">
        <ele>85.183243</ele>
        <time>2021-08-05T12:04:05.000Z</time>
      </trkpt>
      <trkpt lat="51.21837" lon="6.76507">
        <ele>85.221646</ele>
        <time>2021-08-05T12:04:07.000Z</time>
      </trkpt>
      <trkpt lat="51.21834" lon="6.76509">
        <ele>85.239558</ele>
        <time>2021-08-05T12:04:08.000Z</time>
      </trkpt>
      <trkpt lat="51.21824" lon="6.76513">
        <ele>85.295919</ele>
        <time>2021-08-05T12:04:12.000Z</time>
      </trkpt>
      <trkpt lat="51.21822" lon="6.7651">
        <ele>85.3105</ele>
        <time>2021-08-05T12:04:13.000Z</time>
      </trkpt>
      <trkpt lat="51.21803" lon="6.76489">
        <ele>85.381061</ele>
        <time>2021-08-05T12:04:19.000Z</time>
      </trkpt>
      <trkpt lat="51.21782" lon="6.76461">
        <ele>85.462942</ele>
        <time>2021-08-05T12:04:25.000Z</time>
      </trkpt>
      <trkpt lat="51.21778" lon="6.76456">
        <ele>85.476717</ele>
        <time>2021-08-05T12:04:26.000Z</time>
      </trkpt>
      <trkpt lat="51.21757" lon="6.76432">
        <ele>85.554037</ele>
        <time>2021-08-05T12:04:32.000Z</time>
      </trkpt>
      <trkpt lat="51.21754" lon="6.76428">
        <ele>85.567737</ele>
        <time>2021-08-05T12:04:33.000Z</time>
      </trkpt>
      <trkpt lat="51.21749" lon="6.76425">
        <ele>85.582369</ele>
        <time>2021-08-05T12:04:34.000Z</time>
      </trkpt>
      <trkpt lat="51.21745" lon="6.7642">
        <ele>85.596256</ele>
        <time>2021-08-05T12:04:35.000Z</time>
      </trkpt>
      <trkpt lat="51.21742" lon="6.76416">
        <ele>85.609567</ele>
        <time>2021-08-05T12:04:36.000Z</time>
      </trkpt>
      <trkpt lat="51.21728" lon="6.76398">
        <ele>85.663806</ele>
        <time>2021-08-05T12:04:40.000Z</time>
      </trkpt>
      <trkpt lat="51.21724" lon="6.76393">
        <ele>85.678982</ele>
        <time>2021-08-05T12:04:41.000Z</time>
      </trkpt>
      <trkpt lat="51.21701" lon="6.76369">
        <ele>85.760786</ele>
        <time>2021-08-05T12:04:47.000Z</time>
      </trkpt>
      <trkpt lat="51.21698" lon="6.76364">
        <ele>85.775141</ele>
        <time>2021-08-05T12:04:48.000Z</time>
      </trkpt>
      <trkpt lat="51.2169" lon="6.76358">
        <ele>85.79979</ele>
        <time>2021-08-05T12:04:50.000Z</time>
      </trkpt>
      <trkpt lat="51.21679" lon="6.76348">
        <ele>85.83898</ele>
        <time>2021-08-05T12:04:54.000Z</time>
      </trkpt>
      <trkpt lat="51.21657" lon="6.76321">
        <ele>85.932972</ele>
        <time>2021-08-05T12:05:02.000Z</time>
      </trkpt>
      <trkpt lat="51.21633" lon="6.76295">
        <ele>86.03222</ele>
        <time>2021-08-05T12:05:09.000Z</time>
      </trkpt>
      <trkpt lat="51.21624" lon="6.76283">
        <ele>86.072102</ele>
        <time>2021-08-05T12:05:12.000Z</time>
      </trkpt>
      <trkpt lat="51.21621" lon="6.76278">
        <ele>86.085866</ele>
        <time>2021-08-05T12:05:13.000Z</time>
      </trkpt>
      <trkpt lat="51.21598" lon="6.7626">
        <ele>86.174606</ele>
        <time>2021-08-05T12:05:19.000Z</time>
      </trkpt>
      <trkpt lat="51.21583" lon="6.76241">
        <ele>86.241361</ele>
        <time>2021-08-05T12:05:25.000Z</time>
      </trkpt>
      <trkpt lat="51.21579" lon="6.76236">
        <ele>86.25783</ele>
        <time>2021-08-05T12:05:28.000Z</time>
      </trkpt>
      <trkpt lat="51.21576" lon="6.76233">
        <ele>86.27072</ele>
        <time>2021-08-05T12:05:30.000Z</time>
      </trkpt>
      <trkpt lat="51.21567" lon="6.76234">
        <ele>86.301544</ele>
        <time>2021-08-05T12:05:35.000Z</time>
      </trkpt>
      <trkpt lat="51.21562" lon="6.76236">
        <ele>86.319514</ele>
        <time>2021-08-05T12:05:38.000Z</time>
      </trkpt>
      <trkpt lat="51.21561" lon="6.7624">
        <ele>86.329436</ele>
        <time>2021-08-05T12:05:40.000Z</time>
      </trkpt>
      <trkpt lat="51.2156" lon="6.76245">
        <ele>86.339765</ele>
        <time>2021-08-05T12:05:42.000Z</time>
      </trkpt>
      <trkpt lat="51.21561" lon="6.76246">
        <ele>86.343918</ele>
        <time>2021-08-05T12:05:45.000Z</time>
      </trkpt>
      <trkpt lat="51.21559" lon="6.76242">
        <ele>86.354009</ele>
        <time>2021-08-05T12:05:53.000Z</time>
      </trkpt>
      <trkpt lat="51.21561" lon="6.76238">
        <ele>86.36405</ele>
        <time>2021-08-05T12:05:55.000Z</time>
      </trkpt>
      <trkpt lat="51.21561" lon="6.76231">
        <ele>86.37863</ele>
        <time>2021-08-05T12:05:57.000Z</time>
      </trkpt>
      <trkpt lat="51.2156" lon="6.76228">
        <ele>86.387351</ele>
        <time>2021-08-05T12:05:58.000Z</time>
      </trkpt>
      <trkpt lat="51.21551" lon="6.7622">
        <ele>86.422699</ele>
        <time>2021-08-05T12:06:01.000Z</time>
      </trkpt>
      <trkpt lat="51.21533" lon="6.762">
        <ele>86.48466</ele>
        <time>2021-08-05T12:06:07.000Z</time>
      </trkpt>
      <trkpt lat="51.21531" lon="6.76197">
        <ele>86.491256</ele>
        <time>2021-08-05T12:06:08.000Z</time>
      </trkpt>
      <trkpt lat="51.21524" lon="6.76188">
        <ele>86.510909</ele>
        <time>2021-08-05T12:06:12.000Z</time>
      </trkpt>
      <trkpt lat="51.21522" lon="6.76187">
        <ele>86.515066</ele>
        <time>2021-08-05T12:06:13.000Z</time>
      </trkpt>
      <trkpt lat="51.21521" lon="6.76186">
        <ele>86.518419</ele>
        <time>2021-08-05T12:06:14.000Z</time>
      </trkpt>
      <trkpt lat="51.21519" lon="6.76188">
        <ele>86.522843</ele>
        <time>2021-08-05T12:06:16.000Z</time>
      </trkpt>
      <trkpt lat="51.21523" lon="6.76193">
        <ele>86.533359</ele>
        <time>2021-08-05T12:06:19.000Z</time>
      </trkpt>
      <trkpt lat="51.21526" lon="6.76191">
        <ele>86.540854</ele>
        <time>2021-08-05T12:06:21.000Z</time>
      </trkpt>
      <trkpt lat="51.21525" lon="6.76184">
        <ele>86.551363</ele>
        <time>2021-08-05T12:06:24.000Z</time>
      </trkpt>
      <trkpt lat="51.21523" lon="6.76182">
        <ele>86.55594</ele>
        <time>2021-08-05T12:06:25.000Z</time>
      </trkpt>
      <trkpt lat="51.21519" lon="6.76178">
        <ele>86.566682</ele>
        <time>2021-08-05T12:06:27.000Z</time>
      </trkpt>
      <trkpt lat="51.21509" lon="6.76164">
        <ele>86.595847</ele>
        <time>2021-08-05T12:06:32.000Z</time>
      </trkpt>
      <trkpt lat="51.21507" lon="6.76162">
        <ele>86.602142</ele>
        <time>2021-08-05T12:06:33.000Z</time>
      </trkpt>
      <trkpt lat="51.21501" lon="6.76154">
        <ele>86.618778</ele>
        <time>2021-08-05T12:06:36.000Z</time>
      </trkpt>
      <trkpt lat="51.21499" lon="6.76152">
        <ele>86.623434</ele>
        <time>2021-08-05T12:06:37.000Z</time>
      </trkpt>
      <trkpt lat="51.21494" lon="6.76148">
        <ele>86.635845</ele>
        <time>2021-08-05T12:06:39.000Z</time>
      </trkpt>
      <trkpt lat="51.2149" lon="6.76145">
        <ele>86.645651</ele>
        <time>2021-08-05T12:06:41.000Z</time>
      </trkpt>
      <trkpt lat="51.21478" lon="6.76137">
        <ele>86.675262</ele>
        <time>2021-08-05T12:06:45.000Z</time>
      </trkpt>
      <trkpt lat="51.21474" lon="6.76135">
        <ele>86.685313</ele>
        <time>2021-08-05T12:06:46.000Z</time>
      </trkpt>
      <trkpt lat="51.21455" lon="6.76122">
        <ele>86.730525</ele>
        <time>2021-08-05T12:06:50.000Z</time>
      </trkpt>
      <trkpt lat="51.21449" lon="6.76119">
        <ele>86.742926</ele>
        <time>2021-08-05T12:06:51.000Z</time>
      </trkpt>
      <trkpt lat="51.21444" lon="6.76116">
        <ele>86.755215</ele>
        <time>2021-08-05T12:06:52.000Z</time>
      </trkpt>
      <trkpt lat="51.21416" lon="6.76104">
        <ele>86.820143</ele>
        <time>2021-08-05T12:06:57.000Z</time>
      </trkpt>
      <trkpt lat="51.2141" lon="6.76101">
        <ele>86.832621</ele>
        <time>2021-08-05T12:06:58.000Z</time>
      </trkpt>
      <trkpt lat="51.21374" lon="6.76088">
        <ele>86.98913</ele>
        <time>2021-08-05T12:07:05.000Z</time>
      </trkpt>
      <trkpt lat="51.21365" lon="6.76084">
        <ele>87.039545</ele>
        <time>2021-08-05T12:07:07.000Z</time>
      </trkpt>
      <trkpt lat="51.21356" lon="6.76078">
        <ele>87.08844</ele>
        <time>2021-08-05T12:07:09.000Z</time>
      </trkpt>
      <trkpt lat="51.21344" lon="6.76073">
        <ele>87.155767</ele>
        <time>2021-08-05T12:07:12.000Z</time>
      </trkpt>
      <trkpt lat="51.21337" lon="6.76072">
        <ele>87.188201</ele>
        <time>2021-08-05T12:07:13.000Z</time>
      </trkpt>
      <trkpt lat="51.21332" lon="6.7607">
        <ele>87.216516</ele>
        <time>2021-08-05T12:07:14.000Z</time>
      </trkpt>
      <trkpt lat="51.21315" lon="6.76059">
        <ele>87.310083</ele>
        <time>2021-08-05T12:07:18.000Z</time>
      </trkpt>
      <trkpt lat="51.21312" lon="6.76056">
        <ele>87.331962</ele>
        <time>2021-08-05T12:07:19.000Z</time>
      </trkpt>
      <trkpt lat="51.21297" lon="6.76043">
        <ele>87.416457</ele>
        <time>2021-08-05T12:07:23.000Z</time>
      </trkpt>
      <trkpt lat="51.21291" lon="6.76037">
        <ele>87.456885</ele>
        <time>2021-08-05T12:07:25.000Z</time>
      </trkpt>
      <trkpt lat="51.21264" lon="6.76012">
        <ele>87.61868</ele>
        <time>2021-08-05T12:07:33.000Z</time>
      </trkpt>
      <trkpt lat="51.21257" lon="6.76004">
        <ele>87.662407</ele>
        <time>2021-08-05T12:07:35.000Z</time>
      </trkpt>
      <trkpt lat="51.21244" lon="6.7599">
        <ele>87.74566</ele>
        <time>2021-08-05T12:07:39.000Z</time>
      </trkpt>
      <trkpt lat="51.21231" lon="6.75977">
        <ele>87.730182</ele>
        <time>2021-08-05T12:07:43.000Z</time>
      </trkpt>
      <trkpt lat="51.21228" lon="6.75975">
        <ele>87.696286</ele>
        <time>2021-08-05T12:07:44.000Z</time>
      </trkpt>
      <trkpt lat="51.21216" lon="6.75961">
        <ele>87.536329</ele>
        <time>2021-08-05T12:07:49.000Z</time>
      </trkpt>
      <trkpt lat="51.21216" lon="6.7596">
        <ele>87.529303</ele>
        <time>2021-08-05T12:07:50.000Z</time>
      </trkpt>
      <trkpt lat="51.21216" lon="6.7596">
        <ele>87.529303</ele>
        <time>2021-08-05T12:07:55.000Z</time>
      </trkpt>
      <trkpt lat="51.21216" lon="6.7596">
        <ele>87.529303</ele>
        <time>2021-08-05T12:08:01.000Z</time>
      </trkpt>
      <trkpt lat="51.21216" lon="6.7596">
        <ele>87.529303</ele>
        <time>2021-08-05T12:08:04.000Z</time>
      </trkpt>
      <trkpt lat="51.21216" lon="6.7596">
        <ele>87.529303</ele>
        <time>2021-08-05T12:08:07.000Z</time>
      </trkpt>
      <trkpt lat="51.21216" lon="6.7596">
        <ele>87.529303</ele>
        <time>2021-08-05T12:08:16.000Z</time>
      </trkpt>
      <trkpt lat="51.21216" lon="6.7596">
        <ele>87.528617</ele>
        <time>2021-08-05T12:08:23.000Z</time>
      </trkpt>
      <trkpt lat="51.21216" lon="6.7596">
        <ele>87.52533</ele>
        <time>2021-08-05T12:08:28.000Z</time>
      </trkpt>
      <trkpt lat="51.21216" lon="6.7596">
        <ele>87.52533</ele>
        <time>2021-08-05T12:08:30.000Z</time>
      </trkpt>
      <trkpt lat="51.21216" lon="6.7596">
        <ele>87.52533</ele>
        <time>2021-08-05T12:08:32.000Z</time>
      </trkpt>
      <trkpt lat="51.21216" lon="6.7596">
        <ele>87.52533</ele>
        <time>2021-08-05T12:08:36.000Z</time>
      </trkpt>
      <trkpt lat="51.21216" lon="6.7596">
        <ele>87.52533</ele>
        <time>2021-08-05T12:08:45.000Z</time>
      </trkpt>
      <trkpt lat="51.21214" lon="6.75959">
        <ele>87.503082</ele>
        <time>2021-08-05T12:08:48.000Z</time>
      </trkpt>
      <trkpt lat="51.21211" lon="6.75955">
        <ele>87.455106</ele>
        <time>2021-08-05T12:08:50.000Z</time>
      </trkpt>
      <trkpt lat="51.21195" lon="6.75946">
        <ele>87.276794</ele>
        <time>2021-08-05T12:08:55.000Z</time>
      </trkpt>
      <trkpt lat="51.21191" lon="6.75943">
        <ele>87.219531</ele>
        <time>2021-08-05T12:08:56.000Z</time>
      </trkpt>
      <trkpt lat="51.21175" lon="6.75936">
        <ele>87.043515</ele>
        <time>2021-08-05T12:09:00.000Z</time>
      </trkpt>
      <trkpt lat="51.21149" lon="6.75926">
        <ele>86.750506</ele>
        <time>2021-08-05T12:09:05.000Z</time>
      </trkpt>
      <trkpt lat="51.21139" lon="6.75922">
        <ele>86.639828</ele>
        <time>2021-08-05T12:09:07.000Z</time>
      </trkpt>
      <trkpt lat="51.21115" lon="6.75913">
        <ele>86.364194</ele>
        <time>2021-08-05T12:09:12.000Z</time>
      </trkpt>
      <trkpt lat="51.21083" lon="6.75898">
        <ele>85.997592</ele>
        <time>2021-08-05T12:09:18.000Z</time>
      </trkpt>
      <trkpt lat="51.21077" lon="6.75894">
        <ele>85.930127</ele>
        <time>2021-08-05T12:09:19.000Z</time>
      </trkpt>
      <trkpt lat="51.21072" lon="6.75891">
        <ele>85.876151</ele>
        <time>2021-08-05T12:09:20.000Z</time>
      </trkpt>
      <trkpt lat="51.21059" lon="6.75878">
        <ele>85.876615</ele>
        <time>2021-08-05T12:09:23.000Z</time>
      </trkpt>
      <trkpt lat="51.21028" lon="6.75866">
        <ele>86.038139</ele>
        <time>2021-08-05T12:09:29.000Z</time>
      </trkpt>
      <trkpt lat="51.2102" lon="6.75865">
        <ele>86.075226</ele>
        <time>2021-08-05T12:09:31.000Z</time>
      </trkpt>
      <trkpt lat="51.2101" lon="6.7587">
        <ele>86.129618</ele>
        <time>2021-08-05T12:09:34.000Z</time>
      </trkpt>
      <trkpt lat="51.21005" lon="6.75871">
        <ele>86.150093</ele>
        <time>2021-08-05T12:09:35.000Z</time>
      </trkpt>
      <trkpt lat="51.21002" lon="6.75871">
        <ele>86.169385</ele>
        <time>2021-08-05T12:09:36.000Z</time>
      </trkpt>
      <trkpt lat="51.20994" lon="6.75868">
        <ele>86.205415</ele>
        <time>2021-08-05T12:09:38.000Z</time>
      </trkpt>
      <trkpt lat="51.20991" lon="6.75865">
        <ele>86.226343</ele>
        <time>2021-08-05T12:09:39.000Z</time>
      </trkpt>
      <trkpt lat="51.20968" lon="6.75854">
        <ele>86.342595</ele>
        <time>2021-08-05T12:09:44.000Z</time>
      </trkpt>
      <trkpt lat="51.20959" lon="6.7585">
        <ele>86.389585</ele>
        <time>2021-08-05T12:09:46.000Z</time>
      </trkpt>
      <trkpt lat="51.20943" lon="6.75842">
        <ele>86.473859</ele>
        <time>2021-08-05T12:09:50.000Z</time>
      </trkpt>
      <trkpt lat="51.20935" lon="6.75837">
        <ele>86.515267</ele>
        <time>2021-08-05T12:09:52.000Z</time>
      </trkpt>
      <trkpt lat="51.20927" lon="6.75832">
        <ele>86.557106</ele>
        <time>2021-08-05T12:09:54.000Z</time>
      </trkpt>
      <trkpt lat="51.20914" lon="6.75824">
        <ele>86.623473</ele>
        <time>2021-08-05T12:09:57.000Z</time>
      </trkpt>
      <trkpt lat="51.2091" lon="6.75821">
        <ele>86.647792</ele>
        <time>2021-08-05T12:09:58.000Z</time>
      </trkpt>
      <trkpt lat="51.20901" lon="6.75818">
        <ele>86.691204</ele>
        <time>2021-08-05T12:10:00.000Z</time>
      </trkpt>
      <trkpt lat="51.20884" lon="6.75811">
        <ele>86.809139</ele>
        <time>2021-08-05T12:10:04.000Z</time>
      </trkpt>
      <trkpt lat="51.20877" lon="6.75804">
        <ele>86.874854</ele>
        <time>2021-08-05T12:10:06.000Z</time>
      </trkpt>
      <trkpt lat="51.20873" lon="6.75802">
        <ele>86.905112</ele>
        <time>2021-08-05T12:10:07.000Z</time>
      </trkpt>
      <trkpt lat="51.20869" lon="6.758">
        <ele>86.933421</ele>
        <time>2021-08-05T12:10:08.000Z</time>
      </trkpt>
      <trkpt lat="51.20839" lon="6.75788">
        <ele>87.162782</ele>
        <time>2021-08-05T12:10:15.000Z</time>
      </trkpt>
      <trkpt lat="51.20829" lon="6.75785">
        <ele>87.233936</ele>
        <time>2021-08-05T12:10:17.000Z</time>
      </trkpt>
      <trkpt lat="51.20811" lon="6.75777">
        <ele>87.36808</ele>
        <time>2021-08-05T12:10:21.000Z</time>
      </trkpt>
      <trkpt lat="51.20807" lon="6.75775">
        <ele>87.401562</ele>
        <time>2021-08-05T12:10:22.000Z</time>
      </trkpt>
      <trkpt lat="51.20773" lon="6.7576">
        <ele>87.663286</ele>
        <time>2021-08-05T12:10:30.000Z</time>
      </trkpt>
      <trkpt lat="51.20768" lon="6.75758">
        <ele>87.700418</ele>
        <time>2021-08-05T12:10:31.000Z</time>
      </trkpt>
      <trkpt lat="51.20747" lon="6.7575">
        <ele>87.85801</ele>
        <time>2021-08-05T12:10:36.000Z</time>
      </trkpt>
      <trkpt lat="51.20744" lon="6.7575">
        <ele>87.87777</ele>
        <time>2021-08-05T12:10:37.000Z</time>
      </trkpt>
      <trkpt lat="51.20735" lon="6.75751">
        <ele>87.944678</ele>
        <time>2021-08-05T12:10:41.000Z</time>
      </trkpt>
      <trkpt lat="51.20728" lon="6.75742">
        <ele>88.012464</ele>
        <time>2021-08-05T12:10:45.000Z</time>
      </trkpt>
      <trkpt lat="51.20727" lon="6.75742">
        <ele>88.016558</ele>
        <time>2021-08-05T12:10:49.000Z</time>
      </trkpt>
      <trkpt lat="51.20727" lon="6.75742">
        <ele>88.016558</ele>
        <time>2021-08-05T12:10:58.000Z</time>
      </trkpt>
      <trkpt lat="51.20727" lon="6.75742">
        <ele>88.016558</ele>
        <time>2021-08-05T12:11:06.000Z</time>
      </trkpt>
      <trkpt lat="51.20727" lon="6.75742">
        <ele>88.016558</ele>
        <time>2021-08-05T12:11:11.000Z</time>
      </trkpt>
      <trkpt lat="51.20727" lon="6.75742">
        <ele>88.016558</ele>
        <time>2021-08-05T12:11:13.000Z</time>
      </trkpt>
      <trkpt lat="51.20727" lon="6.75742">
        <ele>88.016558</ele>
        <time>2021-08-05T12:11:16.000Z</time>
      </trkpt>
      <trkpt lat="51.20727" lon="6.75742">
        <ele>88.016558</ele>
        <time>2021-08-05T12:11:21.000Z</time>
      </trkpt>
      <trkpt lat="51.20726" lon="6.75738">
        <ele>88.027738</ele>
        <time>2021-08-05T12:11:32.000Z</time>
      </trkpt>
      <trkpt lat="51.20723" lon="6.7573">
        <ele>88.025546</ele>
        <time>2021-08-05T12:11:34.000Z</time>
      </trkpt>
      <trkpt lat="51.20715" lon="6.75698">
        <ele>88.017754</ele>
        <time>2021-08-05T12:11:41.000Z</time>
      </trkpt>
      <trkpt lat="51.2071" lon="6.75677">
        <ele>88.012807</ele>
        <time>2021-08-05T12:11:47.000Z</time>
      </trkpt>
      <trkpt lat="51.20707" lon="6.75675">
        <ele>88.011574</ele>
        <time>2021-08-05T12:11:51.000Z</time>
      </trkpt>
      <trkpt lat="51.20702" lon="6.75676">
        <ele>88.00981</ele>
        <time>2021-08-05T12:11:58.000Z</time>
      </trkpt>
      <trkpt lat="51.207" lon="6.75675">
        <ele>88.008981</ele>
        <time>2021-08-05T12:11:59.000Z</time>
      </trkpt>
      <trkpt lat="51.20687" lon="6.75674">
        <ele>88.004301</ele>
        <time>2021-08-05T12:12:03.000Z</time>
      </trkpt>
      <trkpt lat="51.20683" lon="6.75673">
        <ele>88.002928</ele>
        <time>2021-08-05T12:12:04.000Z</time>
      </trkpt>
      <trkpt lat="51.20675" lon="6.75671">
        <ele>88.000164</ele>
        <time>2021-08-05T12:12:06.000Z</time>
      </trkpt>
      <trkpt lat="51.20651" lon="6.75664">
        <ele>87.991183</ele>
        <time>2021-08-05T12:12:12.000Z</time>
      </trkpt>
      <trkpt lat="51.20641" lon="6.75662">
        <ele>87.987521</ele>
        <time>2021-08-05T12:12:15.000Z</time>
      </trkpt>
      <trkpt lat="51.20618" lon="6.75658">
        <ele>87.979512</ele>
        <time>2021-08-05T12:12:21.000Z</time>
      </trkpt>
      <trkpt lat="51.20589" lon="6.75652">
        <ele>87.968977</ele>
        <time>2021-08-05T12:12:28.000Z</time>
      </trkpt>
      <trkpt lat="51.2058" lon="6.75651">
        <ele>87.965817</ele>
        <time>2021-08-05T12:12:30.000Z</time>
      </trkpt>
      <trkpt lat="51.20539" lon="6.75649">
        <ele>88.007769</ele>
        <time>2021-08-05T12:12:39.000Z</time>
      </trkpt>
      <trkpt lat="51.20493" lon="6.75634">
        <ele>88.068351</ele>
        <time>2021-08-05T12:12:49.000Z</time>
      </trkpt>
      <trkpt lat="51.20473" lon="6.75629">
        <ele>88.093857</ele>
        <time>2021-08-05T12:12:53.000Z</time>
      </trkpt>
      <trkpt lat="51.20454" lon="6.75623">
        <ele>88.118607</ele>
        <time>2021-08-05T12:12:57.000Z</time>
      </trkpt>
      <trkpt lat="51.2043" lon="6.75617">
        <ele>88.149935</ele>
        <time>2021-08-05T12:13:02.000Z</time>
      </trkpt>
      <trkpt lat="51.20421" lon="6.75614">
        <ele>88.16163</ele>
        <time>2021-08-05T12:13:04.000Z</time>
      </trkpt>
      <trkpt lat="51.20417" lon="6.75613">
        <ele>88.167477</ele>
        <time>2021-08-05T12:13:05.000Z</time>
      </trkpt>
      <trkpt lat="51.20407" lon="6.75611">
        <ele>88.17972</ele>
        <time>2021-08-05T12:13:07.000Z</time>
      </trkpt>
      <trkpt lat="51.20387" lon="6.75607">
        <ele>88.226169</ele>
        <time>2021-08-05T12:13:11.000Z</time>
      </trkpt>
      <trkpt lat="51.20373" lon="6.75603">
        <ele>88.27832</ele>
        <time>2021-08-05T12:13:14.000Z</time>
      </trkpt>
      <trkpt lat="51.20354" lon="6.75597">
        <ele>88.350281</ele>
        <time>2021-08-05T12:13:18.000Z</time>
      </trkpt>
      <trkpt lat="51.20335" lon="6.75591">
        <ele>88.420367</ele>
        <time>2021-08-05T12:13:22.000Z</time>
      </trkpt>
      <trkpt lat="51.20316" lon="6.75588">
        <ele>88.488793</ele>
        <time>2021-08-05T12:13:26.000Z</time>
      </trkpt>
      <trkpt lat="51.20303" lon="6.75586">
        <ele>88.53846</ele>
        <time>2021-08-05T12:13:29.000Z</time>
      </trkpt>
      <trkpt lat="51.20286" lon="6.75579">
        <ele>88.601313</ele>
        <time>2021-08-05T12:13:33.000Z</time>
      </trkpt>
      <trkpt lat="51.20269" lon="6.75572">
        <ele>88.665987</ele>
        <time>2021-08-05T12:13:37.000Z</time>
      </trkpt>
      <trkpt lat="51.2026" lon="6.75567">
        <ele>88.699744</ele>
        <time>2021-08-05T12:13:39.000Z</time>
      </trkpt>
      <trkpt lat="51.20255" lon="6.75564">
        <ele>88.716689</ele>
        <time>2021-08-05T12:13:40.000Z</time>
      </trkpt>
      <trkpt lat="51.20247" lon="6.75558">
        <ele>88.749806</ele>
        <time>2021-08-05T12:13:42.000Z</time>
      </trkpt>
      <trkpt lat="51.2024" lon="6.7555">
        <ele>88.781888</ele>
        <time>2021-08-05T12:13:44.000Z</time>
      </trkpt>
      <trkpt lat="51.20218" lon="6.75525">
        <ele>88.869666</ele>
        <time>2021-08-05T12:13:50.000Z</time>
      </trkpt>
      <trkpt lat="51.2021" lon="6.75515">
        <ele>88.894148</ele>
        <time>2021-08-05T12:13:52.000Z</time>
      </trkpt>
      <trkpt lat="51.20171" lon="6.75469">
        <ele>89.016673</ele>
        <time>2021-08-05T12:14:02.000Z</time>
      </trkpt>
      <trkpt lat="51.20131" lon="6.75419">
        <ele>89.145368</ele>
        <time>2021-08-05T12:14:13.000Z</time>
      </trkpt>
      <trkpt lat="51.20107" lon="6.75378">
        <ele>89.232965</ele>
        <time>2021-08-05T12:14:21.000Z</time>
      </trkpt>
      <trkpt lat="51.20105" lon="6.75365">
        <ele>89.253886</ele>
        <time>2021-08-05T12:14:23.000Z</time>
      </trkpt>
      <trkpt lat="51.20104" lon="6.75345">
        <ele>89.284953</ele>
        <time>2021-08-05T12:14:26.000Z</time>
      </trkpt>
      <trkpt lat="51.201" lon="6.75293">
        <ele>89.315152</ele>
        <time>2021-08-05T12:14:34.000Z</time>
      </trkpt>
      <trkpt lat="51.20099" lon="6.75287">
        <ele>89.317589</ele>
        <time>2021-08-05T12:14:35.000Z</time>
      </trkpt>
      <trkpt lat="51.20096" lon="6.75267">
        <ele>89.325191</ele>
        <time>2021-08-05T12:14:38.000Z</time>
      </trkpt>
      <trkpt lat="51.20093" lon="6.75239">
        <ele>89.335851</ele>
        <time>2021-08-05T12:14:42.000Z</time>
      </trkpt>
      <trkpt lat="51.20086" lon="6.75188">
        <ele>89.35538</ele>
        <time>2021-08-05T12:14:49.000Z</time>
      </trkpt>
      <trkpt lat="51.20083" lon="6.75174">
        <ele>89.360654</ele>
        <time>2021-08-05T12:14:51.000Z</time>
      </trkpt>
      <trkpt lat="51.20071" lon="6.75114">
        <ele>89.38442</ele>
        <time>2021-08-05T12:15:00.000Z</time>
      </trkpt>
      <trkpt lat="51.2006" lon="6.75088">
        <ele>89.395905</ele>
        <time>2021-08-05T12:15:05.000Z</time>
      </trkpt>
      <trkpt lat="51.20054" lon="6.75064">
        <ele>89.405672</ele>
        <time>2021-08-05T12:15:09.000Z</time>
      </trkpt>
      <trkpt lat="51.20037" lon="6.75004">
        <ele>89.418303</ele>
        <time>2021-08-05T12:15:17.000Z</time>
      </trkpt>
      <trkpt lat="51.20019" lon="6.74923">
        <ele>89.434938</ele>
        <time>2021-08-05T12:15:26.000Z</time>
      </trkpt>
      <trkpt lat="51.19998" lon="6.74842">
        <ele>89.451896</ele>
        <time>2021-08-05T12:15:35.000Z</time>
      </trkpt>
      <trkpt lat="51.19981" lon="6.74778">
        <ele>89.46375</ele>
        <time>2021-08-05T12:15:42.000Z</time>
      </trkpt>
      <trkpt lat="51.19974" lon="6.7475">
        <ele>89.467453</ele>
        <time>2021-08-05T12:15:45.000Z</time>
      </trkpt>
      <trkpt lat="51.19972" lon="6.74741">
        <ele>89.468647</ele>
        <time>2021-08-05T12:15:46.000Z</time>
      </trkpt>
      <trkpt lat="51.19954" lon="6.74669">
        <ele>89.47822</ele>
        <time>2021-08-05T12:15:54.000Z</time>
      </trkpt>
      <trkpt lat="51.19949" lon="6.74652">
        <ele>89.480523</ele>
        <time>2021-08-05T12:15:56.000Z</time>
      </trkpt>
      <trkpt lat="51.19937" lon="6.74603">
        <ele>89.486943</ele>
        <time>2021-08-05T12:16:02.000Z</time>
      </trkpt>
      <trkpt lat="51.19934" lon="6.7459">
        <ele>89.488677</ele>
        <time>2021-08-05T12:16:04.000Z</time>
      </trkpt>
      <trkpt lat="51.19933" lon="6.74578">
        <ele>89.490128</ele>
        <time>2021-08-05T12:16:06.000Z</time>
      </trkpt>
      <trkpt lat="51.19924" lon="6.74532">
        <ele>89.496105</ele>
        <time>2021-08-05T12:16:14.000Z</time>
      </trkpt>
      <trkpt lat="51.19915" lon="6.74486">
        <ele>89.651489</ele>
        <time>2021-08-05T12:16:21.000Z</time>
      </trkpt>
      <trkpt lat="51.19913" lon="6.74474">
        <ele>89.697489</ele>
        <time>2021-08-05T12:16:25.000Z</time>
      </trkpt>
      <trkpt lat="51.19911" lon="6.74469">
        <ele>89.718643</ele>
        <time>2021-08-05T12:16:28.000Z</time>
      </trkpt>
      <trkpt lat="51.19908" lon="6.74461">
        <ele>89.7513</ele>
        <time>2021-08-05T12:16:30.000Z</time>
      </trkpt>
      <trkpt lat="51.199" lon="6.74435">
        <ele>89.851872</ele>
        <time>2021-08-05T12:16:35.000Z</time>
      </trkpt>
      <trkpt lat="51.19892" lon="6.74388">
        <ele>90.022904</ele>
        <time>2021-08-05T12:16:42.000Z</time>
      </trkpt>
      <trkpt lat="51.19883" lon="6.74337">
        <ele>90.209147</ele>
        <time>2021-08-05T12:16:49.000Z</time>
      </trkpt>
      <trkpt lat="51.19877" lon="6.74296">
        <ele>90.359821</ele>
        <time>2021-08-05T12:16:55.000Z</time>
      </trkpt>
      <trkpt lat="51.19876" lon="6.74289">
        <ele>90.385826</ele>
        <time>2021-08-05T12:16:56.000Z</time>
      </trkpt>
      <trkpt lat="51.19869" lon="6.74241">
        <ele>90.648429</ele>
        <time>2021-08-05T12:17:03.000Z</time>
      </trkpt>
      <trkpt lat="51.19868" lon="6.74234">
        <ele>90.713732</ele>
        <time>2021-08-05T12:17:04.000Z</time>
      </trkpt>
      <trkpt lat="51.19867" lon="6.74227">
        <ele>90.777897</ele>
        <time>2021-08-05T12:17:05.000Z</time>
      </trkpt>
      <trkpt lat="51.19862" lon="6.74179">
        <ele>91.247021</ele>
        <time>2021-08-05T12:17:12.000Z</time>
      </trkpt>
      <trkpt lat="51.19858" lon="6.74128">
        <ele>91.733663</ele>
        <time>2021-08-05T12:17:19.000Z</time>
      </trkpt>
      <trkpt lat="51.19855" lon="6.7409">
        <ele>92.102092</ele>
        <time>2021-08-05T12:17:25.000Z</time>
      </trkpt>
      <trkpt lat="51.19852" lon="6.74043">
        <ele>92.547288</ele>
        <time>2021-08-05T12:17:32.000Z</time>
      </trkpt>
      <trkpt lat="51.19852" lon="6.74027">
        <ele>92.698241</ele>
        <time>2021-08-05T12:17:34.000Z</time>
      </trkpt>
      <trkpt lat="51.19851" lon="6.74021">
        <ele>92.762256</ele>
        <time>2021-08-05T12:17:35.000Z</time>
      </trkpt>
      <trkpt lat="51.19852" lon="6.73994">
        <ele>93.017684</ele>
        <time>2021-08-05T12:17:39.000Z</time>
      </trkpt>
      <trkpt lat="51.19849" lon="6.73943">
        <ele>93.478311</ele>
        <time>2021-08-05T12:17:46.000Z</time>
      </trkpt>
      <trkpt lat="51.19849" lon="6.73929">
        <ele>93.596929</ele>
        <time>2021-08-05T12:17:48.000Z</time>
      </trkpt>
      <trkpt lat="51.19849" lon="6.73915">
        <ele>93.709648</ele>
        <time>2021-08-05T12:17:50.000Z</time>
      </trkpt>
      <trkpt lat="51.19848" lon="6.73903">
        <ele>93.818308</ele>
        <time>2021-08-05T12:17:52.000Z</time>
      </trkpt>
      <trkpt lat="51.19847" lon="6.73883">
        <ele>93.988953</ele>
        <time>2021-08-05T12:17:55.000Z</time>
      </trkpt>
      <trkpt lat="51.19847" lon="6.73838">
        <ele>94.367684</ele>
        <time>2021-08-05T12:18:02.000Z</time>
      </trkpt>
      <trkpt lat="51.19849" lon="6.73786">
        <ele>94.805344</ele>
        <time>2021-08-05T12:18:10.000Z</time>
      </trkpt>
      <trkpt lat="51.19851" lon="6.73726">
        <ele>95.313507</ele>
        <time>2021-08-05T12:18:19.000Z</time>
      </trkpt>
      <trkpt lat="51.19852" lon="6.73684">
        <ele>95.673241</ele>
        <time>2021-08-05T12:18:25.000Z</time>
      </trkpt>
      <trkpt lat="51.19852" lon="6.73671">
        <ele>95.770582</ele>
        <time>2021-08-05T12:18:27.000Z</time>
      </trkpt>
      <trkpt lat="51.19854" lon="6.73652">
        <ele>95.907903</ele>
        <time>2021-08-05T12:18:30.000Z</time>
      </trkpt>
      <trkpt lat="51.19858" lon="6.73582">
        <ele>96.420789</ele>
        <time>2021-08-05T12:18:41.000Z</time>
      </trkpt>
      <trkpt lat="51.1986" lon="6.73558">
        <ele>96.600603</ele>
        <time>2021-08-05T12:18:45.000Z</time>
      </trkpt>
      <trkpt lat="51.19861" lon="6.73534">
        <ele>96.779646</ele>
        <time>2021-08-05T12:18:49.000Z</time>
      </trkpt>
      <trkpt lat="51.19862" lon="6.73528">
        <ele>96.824535</ele>
        <time>2021-08-05T12:18:50.000Z</time>
      </trkpt>
      <trkpt lat="51.19863" lon="6.73503">
        <ele>97.003425</ele>
        <time>2021-08-05T12:18:54.000Z</time>
      </trkpt>
      <trkpt lat="51.19868" lon="6.73425">
        <ele>97.581159</ele>
        <time>2021-08-05T12:19:07.000Z</time>
      </trkpt>
      <trkpt lat="51.19871" lon="6.73368">
        <ele>97.925368</ele>
        <time>2021-08-05T12:19:17.000Z</time>
      </trkpt>
      <trkpt lat="51.19872" lon="6.73362">
        <ele>97.951904</ele>
        <time>2021-08-05T12:19:18.000Z</time>
      </trkpt>
      <trkpt lat="51.19874" lon="6.73328">
        <ele>98.118646</ele>
        <time>2021-08-05T12:19:24.000Z</time>
      </trkpt>
      <trkpt lat="51.19875" lon="6.73305">
        <ele>98.232404</ele>
        <time>2021-08-05T12:19:28.000Z</time>
      </trkpt>
      <trkpt lat="51.19878" lon="6.73244">
        <ele>98.534343</ele>
        <time>2021-08-05T12:19:39.000Z</time>
      </trkpt>
      <trkpt lat="51.19879" lon="6.73238">
        <ele>98.563</ele>
        <time>2021-08-05T12:19:40.000Z</time>
      </trkpt>
      <trkpt lat="51.19881" lon="6.73203">
        <ele>98.7364</ele>
        <time>2021-08-05T12:19:46.000Z</time>
      </trkpt>
      <trkpt lat="51.19883" lon="6.73173">
        <ele>98.881405</ele>
        <time>2021-08-05T12:19:51.000Z</time>
      </trkpt>
      <trkpt lat="51.19888" lon="6.73092">
        <ele>99.066817</ele>
        <time>2021-08-05T12:20:05.000Z</time>
      </trkpt>
      <trkpt lat="51.1989" lon="6.73046">
        <ele>98.813564</ele>
        <time>2021-08-05T12:20:13.000Z</time>
      </trkpt>
      <trkpt lat="51.19891" lon="6.73023">
        <ele>98.683621</ele>
        <time>2021-08-05T12:20:17.000Z</time>
      </trkpt>
      <trkpt lat="51.19893" lon="6.72991">
        <ele>98.506641</ele>
        <time>2021-08-05T12:20:22.000Z</time>
      </trkpt>
      <trkpt lat="51.19896" lon="6.72926">
        <ele>98.153466</ele>
        <time>2021-08-05T12:20:31.000Z</time>
      </trkpt>
      <trkpt lat="51.199" lon="6.72864">
        <ele>97.807239</ele>
        <time>2021-08-05T12:20:40.000Z</time>
      </trkpt>
      <trkpt lat="51.19902" lon="6.7282">
        <ele>97.517116</ele>
        <time>2021-08-05T12:20:46.000Z</time>
      </trkpt>
      <trkpt lat="51.19903" lon="6.72796">
        <ele>97.195125</ele>
        <time>2021-08-05T12:20:49.000Z</time>
      </trkpt>
      <trkpt lat="51.19906" lon="6.72752">
        <ele>96.629157</ele>
        <time>2021-08-05T12:20:55.000Z</time>
      </trkpt>
      <trkpt lat="51.19907" lon="6.72729">
        <ele>96.317389</ele>
        <time>2021-08-05T12:20:58.000Z</time>
      </trkpt>
      <trkpt lat="51.19911" lon="6.72669">
        <ele>95.533307</ele>
        <time>2021-08-05T12:21:06.000Z</time>
      </trkpt>
      <trkpt lat="51.19912" lon="6.72653">
        <ele>95.325841</ele>
        <time>2021-08-05T12:21:08.000Z</time>
      </trkpt>
      <trkpt lat="51.19913" lon="6.72638">
        <ele>95.118195</ele>
        <time>2021-08-05T12:21:10.000Z</time>
      </trkpt>
      <trkpt lat="51.19913" lon="6.7263">
        <ele>95.018528</ele>
        <time>2021-08-05T12:21:11.000Z</time>
      </trkpt>
      <trkpt lat="51.19917" lon="6.72571">
        <ele>94.248982</ele>
        <time>2021-08-05T12:21:19.000Z</time>
      </trkpt>
      <trkpt lat="51.19917" lon="6.72551">
        <ele>93.984395</ele>
        <time>2021-08-05T12:21:22.000Z</time>
      </trkpt>
      <trkpt lat="51.19919" lon="6.72526">
        <ele>93.451097</ele>
        <time>2021-08-05T12:21:26.000Z</time>
      </trkpt>
      <trkpt lat="51.19921" lon="6.72501">
        <ele>92.809372</ele>
        <time>2021-08-05T12:21:31.000Z</time>
      </trkpt>
      <trkpt lat="51.19925" lon="6.72479">
        <ele>92.209055</ele>
        <time>2021-08-05T12:21:37.000Z</time>
      </trkpt>
      <trkpt lat="51.19926" lon="6.72479">
        <ele>92.159432</ele>
        <time>2021-08-05T12:21:41.000Z</time>
      </trkpt>
      <trkpt lat="51.19928" lon="6.72486">
        <ele>91.96154</ele>
        <time>2021-08-05T12:21:46.000Z</time>
      </trkpt>
      <trkpt lat="51.19929" lon="6.7249">
        <ele>91.865719</ele>
        <time>2021-08-05T12:21:47.000Z</time>
      </trkpt>
      <trkpt lat="51.19931" lon="6.725">
        <ele>91.596538</ele>
        <time>2021-08-05T12:21:50.000Z</time>
      </trkpt>
      <trkpt lat="51.19932" lon="6.72509">
        <ele>91.34875</ele>
        <time>2021-08-05T12:21:53.000Z</time>
      </trkpt>
      <trkpt lat="51.19934" lon="6.72515">
        <ele>91.174213</ele>
        <time>2021-08-05T12:21:56.000Z</time>
      </trkpt>
      <trkpt lat="51.19934" lon="6.7252">
        <ele>91.042964</ele>
        <time>2021-08-05T12:21:59.000Z</time>
      </trkpt>
      <trkpt lat="51.19934" lon="6.72521">
        <ele>91.027705</ele>
        <time>2021-08-05T12:22:00.000Z</time>
      </trkpt>
      <trkpt lat="51.19934" lon="6.72527">
        <ele>90.879658</ele>
        <time>2021-08-05T12:22:05.000Z</time>
      </trkpt>
      <trkpt lat="51.1994" lon="6.72526">
        <ele>90.648858</ele>
        <time>2021-08-05T12:22:10.000Z</time>
      </trkpt>
      <trkpt lat="51.1995" lon="6.72519">
        <ele>90.218237</ele>
        <time>2021-08-05T12:22:13.000Z</time>
      </trkpt>
      <trkpt lat="51.19957" lon="6.72514">
        <ele>89.875016</ele>
        <time>2021-08-05T12:22:15.000Z</time>
      </trkpt>
      <trkpt lat="51.19979" lon="6.72507">
        <ele>88.980291</ele>
        <time>2021-08-05T12:22:19.000Z</time>
      </trkpt>
      <trkpt lat="51.19984" lon="6.72504">
        <ele>88.758043</ele>
        <time>2021-08-05T12:22:20.000Z</time>
      </trkpt>
      <trkpt lat="51.20007" lon="6.72494">
        <ele>87.774843</ele>
        <time>2021-08-05T12:22:25.000Z</time>
      </trkpt>
      <trkpt lat="51.20028" lon="6.72482">
        <ele>86.865645</ele>
        <time>2021-08-05T12:22:31.000Z</time>
      </trkpt>
      <trkpt lat="51.20046" lon="6.72473">
        <ele>86.464329</ele>
        <time>2021-08-05T12:22:37.000Z</time>
      </trkpt>
      <trkpt lat="51.20052" lon="6.72465">
        <ele>86.464329</ele>
        <time>2021-08-05T12:22:41.000Z</time>
      </trkpt>
      <trkpt lat="51.20054" lon="6.72462">
        <ele>86.464329</ele>
        <time>2021-08-05T12:22:45.000Z</time>
      </trkpt>
      <trkpt lat="51.20056" lon="6.72458">
        <ele>86.464329</ele>
        <time>2021-08-05T12:22:47.000Z</time>
      </trkpt>
      <trkpt lat="51.20057" lon="6.72453">
        <ele>86.464329</ele>
        <time>2021-08-05T12:22:48.000Z</time>
      </trkpt>
      <trkpt lat="51.20054" lon="6.72442">
        <ele>86.464329</ele>
        <time>2021-08-05T12:22:50.000Z</time>
      </trkpt>
      <trkpt lat="51.20053" lon="6.72405">
        <ele>86.464329</ele>
        <time>2021-08-05T12:22:56.000Z</time>
      </trkpt>
      <trkpt lat="51.20055" lon="6.72402">
        <ele>86.464329</ele>
        <time>2021-08-05T12:22:58.000Z</time>
      </trkpt>
      <trkpt lat="51.20059" lon="6.72401">
        <ele>86.464329</ele>
        <time>2021-08-05T12:23:00.000Z</time>
      </trkpt>
      <trkpt lat="51.20065" lon="6.72407">
        <ele>86.464329</ele>
        <time>2021-08-05T12:23:03.000Z</time>
      </trkpt>
      <trkpt lat="51.20065" lon="6.7241">
        <ele>86.464329</ele>
        <time>2021-08-05T12:23:04.000Z</time>
      </trkpt>
      <trkpt lat="51.20066" lon="6.72427">
        <ele>86.464329</ele>
        <time>2021-08-05T12:23:09.000Z</time>
      </trkpt>
      <trkpt lat="51.20068" lon="6.72429">
        <ele>86.464329</ele>
        <time>2021-08-05T12:23:10.000Z</time>
      </trkpt>
      <trkpt lat="51.20077" lon="6.7243">
        <ele>86.464329</ele>
        <time>2021-08-05T12:23:14.000Z</time>
      </trkpt>
      <trkpt lat="51.2008" lon="6.72429">
        <ele>86.464329</ele>
        <time>2021-08-05T12:23:15.000Z</time>
      </trkpt>
      <trkpt lat="51.20081" lon="6.72428">
        <ele>86.464329</ele>
        <time>2021-08-05T12:23:16.000Z</time>
      </trkpt>
      <trkpt lat="51.20091" lon="6.72427">
        <ele>86.464329</ele>
        <time>2021-08-05T12:23:21.000Z</time>
      </trkpt>
      <trkpt lat="51.20093" lon="6.72427">
        <ele>86.464329</ele>
        <time>2021-08-05T12:23:22.000Z</time>
      </trkpt>
      <trkpt lat="51.20102" lon="6.7243">
        <ele>86.464329</ele>
        <time>2021-08-05T12:23:28.000Z</time>
      </trkpt>
      <trkpt lat="51.20102" lon="6.72434">
        <ele>86.464329</ele>
        <time>2021-08-05T12:23:32.000Z</time>
      </trkpt>
      <trkpt lat="51.20101" lon="6.72435">
        <ele>86.464329</ele>
        <time>2021-08-05T12:23:33.000Z</time>
      </trkpt>
    </trkseg>
  </trk>
</gpx>